[[{"header":{"parameterUnit":"m.s-1","parameterCategory":1,"la1":30.6,"la2":28.766,"lo1":-90.7593,"lo2":-88.6598,"dx":0.0162,"dy":0.0183,"nx":116,"ny":114,"refTime":"2023-01-21T06:00:00:Z","depth":0,"parameterNumber":2,"parameterNumberName":"U-component_of_WINDS"},"data":[0.0,0.0,0.0,0.0,0.0,0.0,0.0,0.0,0.0,0.0,0.0,0.0,0.0,0.0,0.0,0.0,0.0,0.0,0.0,0.0,0.0,0.0,0.0,0.0,0.0,0.0,0.0,0.0,0.0,0.0,0.0,0.0,0.0,0.0,0.0,0.0,0.0,0.0,0.0,0.0,0.0,0.0,0.0,0.0,0.0,0.0,0.0,0.0,0.0,0.0,0.0,0.0,0.0,0.0,0.0,0.0,0.0,0.0,0.0,0.0,0.0,0.0,0.0,0.0,0.0,0.0,0.0,0.0,0.0,0.0,0.0,0.0,0.0,0.0,0.0,0.0,0.0,0.0,0.0,0.0,0.0,0.0,0.0,0.0,0.0,0.0,0.0,0.0,0.0,0.0,0.0,0.0,0.0,0.0,0.0,0.0,0.0,0.0,0.0,0.0,0.0,0.0,0.0,0.0,0.0,0.0,0.0,0.0,0.0,0.0,0.0,0.0,0.0,0.0,0.0,0.0,0.0,0.0,0.0,0.0,0.0,0.0,0.0,0.0,0.0,0.0,0.0,0.0,0.0,0.0,0.0,0.0,0.0,0.0,0.0,0.0,0.0,0.0,0.0,0.0,0.0,0.0,0.0,0.0,0.0,0.0,0.0,0.0,0.0,0.0,0.0,0.0,0.0,0.0,0.0,0.0,0.0,0.0,0.0,0.0,0.0,0.0,0.0,0.0,0.0,0.0,0.0,0.0,0.0,0.0,0.0,0.0,0.0,0.0,0.0,0.0,0.0,0.0,0.0,0.0,0.0,0.0,0.0,0.0,0.0,0.0,0.0,0.0,0.0,0.0,0.0,0.0,0.0,0.0,0.0,0.0,0.0,0.0,0.0,0.0,0.0,0.0,0.0,0.0,0.0,0.0,0.0,0.0,0.0,0.0,0.0,0.0,0.0,0.0,0.0,0.0,0.0,0.0,0.0,0.0,0.0,0.0,0.0,0.0,0.0,0.0,0.0,0.0,0.0,0.0,0.0,0.0,0.0,0.0,0.0,0.0,0.0,0.0,0.0,0.0,0.0,0.0,0.0,0.0,0.0,0.0,0.0,0.0,0.0,0.0,0.0,0.0,0.0,0.0,0.0,0.0,0.0,0.0,0.0,0.0,0.0,0.0,0.0,0.0,0.0,0.0,0.0,0.0,0.0,0.0,0.0,0.0,0.0,0.0,0.0,0.0,0.0,0.0,0.0,0.0,0.0,0.0,0.0,0.0,0.0,0.0,0.0,0.0,0.0,0.0,0.0,0.0,0.0,0.0,0.0,0.0,0.0,0.0,0.0,0.0,0.0,0.0,0.0,0.0,0.0,0.0,0.0,0.0,0.0,0.0,0.0,0.0,0.0,0.0,0.0,0.0,0.0,0.0,0.0,0.0,0.0,0.0,0.0,0.0,0.0,0.0,0.0,0.0,0.0,0.0,0.0,0.0,0.0,0.0,0.0,0.0,0.0,0.0,0.0,0.0,0.0,0.0,0.0,0.0,0.0,0.0,0.0,0.0,0.0,0.0,0.0,0.0,0.0,0.0,0.0,0.0,0.0,0.0,0.0,0.0,0.0,0.0,0.0,0.0,0.0,0.0,0.0,0.0,0.0,0.0,0.0,0.0,0.0,0.0,0.0,0.0,0.0,0.0,0.0,0.0,0.0,0.0,0.0,0.0,0.0,0.0,0.0,0.0,0.0,0.0,0.0,0.0,0.0,0.0,0.0,0.0,0.0,0.0,0.0,0.0,0.0,0.0,0.0,0.0,0.0,0.0,0.0,0.0,0.0,0.0,0.0,0.0,0.0,0.0,0.0,0.0,0.0,0.0,0.0,0.0,0.0,0.0,0.0,0.0,0.0,0.0,0.0,0.0,0.0,0.0,0.0,0.0,0.0,0.0,0.0,0.0,0.0,0.0,0.0,0.0,0.0,0.0,0.0,0.0,0.0,0.0,0.0,0.0,0.0,0.0,0.0,0.0,0.0,0.0,0.0,0.0,0.0,0.0,0.0,0.0,0.0,0.0,0.0,0.0,0.0,0.0,0.0,0.0,0.0,0.0,0.0,0.0,0.0,0.0,0.0,0.0,0.0,0.0,0.0,0.0,0.0,0.0,0.0,0.0,0.0,0.0,0.0,0.0,0.0,0.0,0.0,0.0,0.0,0.0,0.0,0.0,0.0,0.0,0.0,0.0,0.0,0.0,0.0,0.0,0.0,0.0,0.0,0.0,0.0,0.0,0.0,0.0,0.0,0.0,0.0,0.0,0.0,0.0,0.0,0.0,0.0,0.0,0.0,0.0,0.0,0.0,0.0,0.0,0.0,0.0,0.0,0.0,0.0,0.0,0.0,0.0,0.0,0.0,0.0,0.0,0.0,0.0,0.0,0.0,0.0,0.0,0.0,0.0,0.0,0.0,0.0,0.0,0.0,0.0,0.0,0.0,0.0,0.0,0.0,0.0,0.0,0.0,0.0,0.0,0.0,0.0,0.0,0.0,0.0,0.0,0.0,0.0,0.0,0.0,0.0,0.0,0.0,0.0,0.0,0.0,0.0,0.0,0.0,0.0,0.0,0.0,0.0,0.0,0.0,0.0,0.0,0.0,0.0,0.0,0.0,0.0,0.0,0.0,0.0,0.0,0.0,0.0,0.0,0.0,0.0,0.0,0.0,0.0,0.0,0.0,0.0,0.0,0.0,0.0,0.0,0.0,0.0,0.0,0.0,0.0,0.0,0.0,0.0,0.0,0.0,0.0,0.0,0.0,0.0,0.0,0.0,0.0,0.0,0.0,0.0,0.0,0.0,0.0,0.0,0.0,0.0,0.0,0.0,0.0,0.0,0.0,0.0,0.0,0.0,0.0,0.0,0.0,0.0,0.0,0.0,0.0,0.0,0.0,0.0,0.0,0.0,0.0,0.0,0.0,0.0,0.0,0.0,0.0,0.0,0.0,0.0,0.0,0.0,0.0,0.0,0.0,0.0,0.0,0.0,0.0,0.0,0.0,0.0,0.0,0.0,0.0,0.0,0.0,0.0,0.0,0.0,0.0,0.0,0.0,0.0,0.0,0.0,0.0,0.0,0.0,0.0,0.0,0.0,0.0,0.0,0.0,0.0,0.0,0.0,0.0,0.0,0.0,0.0,0.0,0.0,0.0,0.0,0.0,0.0,0.0,0.0,0.0,0.0,0.0,0.0,0.0,0.0,0.0,0.0,0.0,0.0,0.0,0.0,0.0,0.0,0.0,0.0,0.0,0.0,0.0,0.0,0.0,0.0,0.0,0.0,0.0,0.0,0.0,0.0,0.0,0.0,0.0,0.0,0.0,0.0,0.0,0.0,0.0,0.0,0.0,0.0,0.0,0.0,0.0,0.0,0.0,0.0,0.0,0.0,0.0,0.0,0.0,0.0,0.0,0.0,0.0,0.0,0.0,0.0,0.0,0.0,0.0,0.0,0.0,0.0,0.0,0.0,0.0,0.0,0.0,0.0,0.0,0.0,0.0,0.0,0.0,0.0,0.0,0.0,0.0,0.0,0.0,0.0,0.0,0.0,0.0,0.0,0.0,0.0,0.0,0.0,0.0,0.0,0.0,0.0,0.0,0.0,0.0,0.0,0.0,0.0,0.0,0.0,0.0,0.0,0.0,0.0,0.0,0.0,0.0,0.0,0.0,0.0,0.0,0.0,0.0,0.0,0.0,0.0,0.0,0.0,0.0,0.0,0.0,0.0,0.0,0.0,0.0,0.0,0.0,0.0,0.0,0.0,0.0,0.0,0.0,0.0,0.0,0.0,0.0,0.0,0.0,0.0,0.0,0.0,0.0,0.0,0.0,0.0,0.0,0.0,0.0,0.0,0.0,0.0,0.0,0.0,0.0,0.0,0.0,0.0,0.0,0.0,0.0,0.0,0.0,0.0,0.0,0.0,0.0,0.0,0.0,0.0,0.0,0.0,0.0,0.0,0.0,0.0,0.0,0.0,0.0,0.0,0.0,0.0,0.0,0.0,0.0,0.0,0.0,0.0,0.0,0.0,0.0,0.0,0.0,0.0,0.0,0.0,0.0,0.0,0.0,0.0,0.0,0.0,0.0,0.0,0.0,0.0,0.0,0.0,0.0,0.0,0.0,0.0,0.0,0.0,0.0,0.0,0.0,0.0,0.0,0.0,0.0,0.0,0.0,0.0,0.0,0.0,0.0,0.0,0.0,0.0,0.0,0.0,0.0,0.0,0.0,0.0,0.0,0.0,0.0,0.0,0.0,0.0,0.0,0.0,0.0,0.0,0.0,0.0,0.0,0.0,0.0,0.0,0.0,0.0,0.0,0.0,0.0,0.0,0.0,0.0,0.0,0.0,0.0,0.0,0.0,0.0,0.0,0.0,0.0,0.0,0.0,0.0,0.0,0.0,0.0,0.0,0.0,0.0,0.0,0.0,0.0,0.0,0.0,0.0,0.0,0.0,0.0,0.0,0.0,0.0,0.0,0.0,0.0,0.0,0.0,0.0,0.0,0.0,0.0,0.0,0.0,0.0,0.0,0.0,0.0,0.0,0.0,0.0,0.0,0.0,0.0,0.0,0.0,0.0,0.0,0.0,0.0,0.0,0.0,0.0,0.0,0.0,0.0,0.0,0.0,0.0,0.0,0.0,0.0,0.0,0.0,0.0,0.0,0.0,0.0,0.0,0.0,0.0,0.0,0.0,0.0,0.0,0.0,0.0,0.0,0.0,0.0,0.0,0.0,0.0,0.0,0.0,0.0,0.0,0.0,0.0,0.0,0.0,0.0,0.0,0.0,0.0,0.0,0.0,0.0,0.0,0.0,0.0,0.0,0.0,0.0,0.0,0.0,0.0,0.0,0.0,0.0,0.0,0.0,0.0,0.0,0.0,0.0,0.0,0.0,0.0,0.0,0.0,0.0,0.0,0.0,0.0,0.0,0.0,0.0,0.0,0.0,0.0,0.0,0.0,0.0,0.0,0.0,0.0,0.0,0.0,0.0,0.0,0.0,0.0,0.0,0.0,0.0,0.0,0.0,0.0,0.0,0.0,0.0,0.0,0.0,0.0,0.0,0.0,0.0,0.0,0.0,0.0,0.0,0.0,0.0,0.0,0.0,0.0,0.0,0.0,0.0,0.0,0.0,0.0,0.0,0.0,0.0,0.0,0.0,0.0,0.0,0.0,0.0,0.0,0.0,0.0,0.0,0.0,0.0,0.0,0.0,0.0,0.0,0.0,0.0,0.0,0.0,0.0,0.0,0.0,0.0,0.0,0.0,0.0,0.0,0.0,0.0,0.0,0.0,0.0,0.0,0.0,0.0,0.0,0.0,0.0,0.0,0.0,0.0,0.0,0.0,0.0,0.0,0.0,0.0,0.0,0.0,0.0,0.0,0.0,0.0,0.0,0.0,0.0,0.0,0.0,0.0,0.0,0.0,0.0,0.0,0.0,0.0,0.0,0.0,0.0,0.0,0.0,0.0,0.0,0.0,0.0,0.0,0.0,0.0,0.0,0.0,0.0,0.0,0.0,0.0,0.0,0.0,0.0,0.0,0.0,0.0,0.0,0.0,0.0,0.0,0.0,0.0,0.0,0.0,0.0,0.0,0.0,0.0,0.0,0.0,0.0,0.0,0.0,0.0,0.0,0.0,0.0,0.0,0.0,0.0,0.0,0.0,0.0,0.0,0.0,0.0,0.0,0.0,0.0,0.0,0.0,0.0,0.0,0.0,0.0,0.0,0.0,0.0,0.0,0.0,0.0,0.0,0.0,0.0,0.0,0.0,0.0,0.0,0.0,0.0,0.0,0.0,0.0,0.0,0.0,0.0,0.0,0.0,0.0,0.0,0.0,0.0,0.0,0.0,0.0,0.0,0.0,0.0,0.0,0.0,0.0,0.0,0.0,0.0,0.0,0.0,0.0,0.0,0.0,0.0,0.0,0.0,0.0,0.0,0.0,0.0,0.0,0.0,0.0,0.0,0.0,0.0,0.0,0.0,0.0,0.0,0.0,0.0,0.0,0.0,0.0,0.0,0.0,0.0,0.0,0.0,0.0,0.0,0.0,0.0,0.0,0.0,0.0,0.0,0.0,0.0,0.0,0.0,0.0,0.0,3.0919,0.0,0.0,0.0,0.0,0.0,0.0,0.0,0.0,0.0,0.0,0.0,0.0,0.0,0.0,0.0,0.0,0.0,0.0,0.0,0.0,0.0,0.0,0.0,0.0,0.0,0.0,0.0,0.0,0.0,0.0,0.0,0.0,0.0,0.0,0.0,0.0,0.0,0.0,0.0,0.0,0.0,0.0,0.0,0.0,0.0,0.0,0.0,0.0,0.0,0.0,0.0,0.0,0.0,0.0,0.0,0.0,0.0,0.0,0.0,0.0,0.0,0.0,0.0,0.0,0.0,0.0,0.0,0.0,0.0,0.0,0.0,0.0,0.0,0.0,0.0,0.0,0.0,0.0,0.0,0.0,0.0,0.0,0.0,0.0,0.0,0.0,0.0,0.0,0.0,0.0,0.0,0.0,0.0,0.0,0.0,0.0,0.0,0.0,0.0,0.0,0.0,0.0,0.0,0.0,0.0,0.0,0.0,0.0,0.0,0.0,0.0,0.0,0.0,0.0,0.0,0.0,3.2121,0.0,0.0,0.0,0.0,0.0,0.0,0.0,0.0,0.0,0.0,0.0,0.0,0.0,0.0,0.0,0.0,0.0,0.0,0.0,0.0,0.0,0.0,0.0,0.0,0.0,0.0,0.0,0.0,0.0,0.0,0.0,0.0,0.0,0.0,0.0,0.0,0.0,0.0,0.0,0.0,0.0,0.0,0.0,0.0,0.0,0.0,0.0,0.0,0.0,0.0,0.0,0.0,0.0,0.0,0.0,0.0,0.0,0.0,0.0,0.0,0.0,0.0,0.0,0.0,0.0,0.0,0.0,0.0,0.0,0.0,0.0,0.0,0.0,0.0,0.0,0.0,0.0,0.0,0.0,0.0,0.0,0.0,0.0,0.0,0.0,0.0,0.0,0.0,0.0,0.0,0.0,0.0,0.0,0.0,0.0,0.0,0.0,0.0,0.0,0.0,0.0,0.0,0.0,0.0,0.0,0.0,0.0,0.0,3.3232,3.3606,3.2892,3.4112,3.4352,3.3846,3.3846,3.4352,3.5156,0.0,0.0,0.0,0.0,0.0,0.0,0.0,0.0,0.0,0.0,0.0,0.0,0.0,0.0,0.0,0.0,0.0,0.0,0.0,0.0,0.0,0.0,0.0,0.0,0.0,0.0,0.0,0.0,0.0,0.0,0.0,0.0,0.0,0.0,0.0,0.0,0.0,0.0,0.0,1.9819,1.9656,1.9765,2.0091,0.0,0.0,0.0,0.0,0.0,0.0,0.0,0.0,0.0,0.0,0.0,0.0,0.0,0.0,0.0,0.0,0.0,0.0,0.0,0.0,0.0,0.0,0.0,0.0,0.0,0.0,0.0,0.0,0.0,0.0,0.0,0.0,0.0,0.0,0.0,0.0,0.0,0.0,0.0,0.0,0.0,0.0,0.0,0.0,2.7282,2.6833,0.0,0.0,0.0,0.0,0.0,0.0,0.0,0.0,0.0,0.0,0.0,0.0,0.0,0.0,2.9689,3.2242,3.3316,3.2872,3.5636,3.6262,3.5029,3.5791,3.6061,3.5998,3.5998,0.0,3.4428,3.4334,0.0,0.0,0.0,0.0,0.0,0.0,0.0,0.0,0.0,0.0,0.0,0.0,0.0,0.0,0.0,0.0,0.0,0.0,0.0,0.0,0.0,0.0,0.0,0.0,0.0,0.0,0.0,0.0,0.0,0.0,0.0,0.0,0.0,0.0,0.0,0.0,1.8929,1.9435,1.9747,1.9648,1.9681,1.9813,1.9813,1.9911,2.014,2.0828,0.0,0.0,0.0,0.0,0.0,0.0,0.0,0.0,0.0,0.0,0.0,0.0,0.0,0.0,0.0,0.0,0.0,0.0,0.0,0.0,0.0,0.0,0.0,0.0,0.0,0.0,0.0,0.0,0.0,0.0,0.0,0.0,0.0,0.0,0.0,0.0,0.0,0.0,0.0,2.7415,2.7942,2.7656,2.7751,2.7337,0.0,0.0,0.0,0.0,0.0,0.0,0.0,0.0,0.0,2.8611,2.9675,3.0733,3.1781,3.3759,3.4758,3.4807,3.633,3.6881,3.6578,3.688,3.7006,3.7006,3.7006,3.6658,3.6072,3.5647,3.5475,3.5412,0.0,0.0,0.0,0.0,3.4356,3.4178,0.0,0.0,0.0,0.0,0.0,0.0,0.0,0.0,0.0,0.0,0.0,0.0,0.0,0.0,0.0,1.5187,0.0,0.0,0.0,0.0,0.0,0.0,0.0,0.0,0.0,0.0,0.0,0.0,1.9249,1.95,1.9533,1.95,1.9533,1.9599,1.955,1.9698,2.0009,2.0689,2.1005,0.0,0.0,0.0,0.0,0.0,0.0,0.0,0.0,0.0,0.0,0.0,0.0,0.0,0.0,0.0,0.0,0.0,0.0,0.0,0.0,0.0,0.0,0.0,0.0,0.0,0.0,0.0,0.0,0.0,0.0,0.0,0.0,0.0,0.0,0.0,0.0,0.0,0.0,2.8243,2.8852,2.8507,2.8974,2.8801,0.0,0.0,0.0,0.0,0.0,0.0,2.8627,2.8954,2.9457,3.0169,3.1345,3.2484,3.3649,3.4758,3.5611,3.6213,3.6554,3.6983,3.7495,3.7495,3.7495,3.7495,3.7495,3.7495,3.7432,3.6707,3.6408,3.6314,3.5647,3.5408,3.5408,3.5408,3.5408,3.5408,0.0,0.0,0.0,0.0,0.0,0.0,0.0,0.0,0.0,0.0,0.0,0.0,0.0,0.0,1.4017,1.3747,1.4274,1.4616,0.0,0.0,0.0,0.0,0.0,0.0,0.0,0.0,0.0,1.9094,1.9115,1.9181,1.9318,1.9164,1.9297,1.9599,1.9401,1.9434,1.967,2.0336,2.0737,2.0969,0.0,0.0,0.0,0.0,0.0,0.0,0.0,0.0,0.0,0.0,0.0,0.0,0.0,0.0,0.0,0.0,0.0,0.0,0.0,0.0,0.0,0.0,0.0,0.0,0.0,0.0,0.0,0.0,0.0,0.0,0.0,0.0,0.0,0.0,0.0,0.0,0.0,0.0,0.0,2.9123,3.0256,0.0,0.0,0.0,0.0,2.935,2.993,3.0527,3.107,3.1159,3.1421,3.2037,3.275,3.3327,3.3791,3.4651,3.5577,3.6476,3.6631,3.6983,3.7495,3.7495,3.7495,3.7495,3.7495,3.7495,3.7432,3.6707,3.6408,3.6314,3.5647,3.5408,3.5408,3.5408,3.5408,3.5408,0.0,0.0,0.0,0.0,0.0,0.0,0.0,0.0,0.0,0.0,0.0,0.0,0.0,1.3839,1.3807,1.3918,1.3759,1.3716,1.3949,0.0,0.0,0.0,0.0,0.0,0.0,0.0,1.846,1.9098,1.9098,1.9115,1.9164,1.9115,1.9148,1.9285,1.9198,1.9198,1.9318,1.9769,2.0168,2.0515,2.0756,2.1141,0.0,0.0,0.0,0.0,0.0,0.0,0.0,0.0,0.0,0.0,0.0,0.0,0.0,0.0,0.0,0.0,0.0,0.0,0.0,0.0,0.0,0.0,0.0,0.0,0.0,0.0,0.0,0.0,0.0,0.0,0.0,0.0,0.0,0.0,0.0,0.0,0.0,3.021,3.1496,0.0,0.0,3.154,3.1811,3.1811,3.2345,3.2742,3.2959,3.2959,3.2896,3.277,3.3019,3.3027,3.2757,3.3294,3.3888,3.4564,3.4983,3.5644,3.6615,3.6739,3.7038,3.7495,3.7495,3.7495,3.7463,3.721,3.7101,3.7069,3.6831,3.6736,3.6736,3.6736,3.6736,3.6736,0.0,0.0,0.0,0.0,0.0,0.0,0.0,0.0,0.0,0.0,0.0,1.4234,1.4107,1.3902,1.3759,1.3759,1.3457,1.3362,1.3585,0.0,0.0,0.0,0.0,0.0,0.0,1.8125,1.848,1.9098,1.9098,1.9015,1.8853,1.8853,1.877,1.863,1.8791,1.8853,1.8907,1.9435,1.9784,1.9965,2.0203,2.0482,2.0588,0.0,0.0,0.0,0.0,0.0,0.0,0.0,0.0,0.0,0.0,0.0,0.0,0.0,0.0,0.0,0.0,0.0,0.0,0.0,0.0,0.0,0.0,0.0,0.0,0.0,0.0,0.0,0.0,0.0,0.0,0.0,0.0,0.0,0.0,0.0,3.1815,3.1008,3.2546,3.3349,3.2488,3.3005,3.3349,3.3349,3.371,3.3908,3.3908,3.3908,3.3656,3.3115,3.3088,3.2872,3.2372,3.2579,3.303,3.3682,3.429,3.5112,3.6105,3.6514,3.6979,3.7495,3.7495,3.7495,3.7495,3.7495,3.7495,3.7495,3.7495,3.7495,3.7495,3.7495,3.7495,3.7495,0.0,0.0,0.0,0.0,0.0,0.0,0.0,0.0,0.0,0.0,1.4581,1.4439,1.4123,1.4093,1.3807,1.3171,1.3394,1.3585,1.3585,1.3585,0.0,0.0,0.0,0.0,1.7269,1.7569,1.8159,1.9077,1.9077,1.8849,1.8398,1.8398,1.8175,1.775,1.8232,1.8418,1.848,1.9388,1.9581,1.936,2.0046,2.005,1.9599,0.0,0.0,0.0,0.0,0.0,0.0,0.0,0.0,0.0,0.0,0.0,0.0,0.0,0.0,0.0,0.0,0.0,0.0,0.0,0.0,0.0,0.0,0.0,0.0,0.0,0.0,0.0,0.0,0.0,0.0,0.0,0.0,0.0,3.026,3.154,3.2277,3.1505,3.3446,3.4337,3.3049,3.3568,3.3997,3.3989,3.3989,3.3989,3.3962,3.3962,3.371,3.3142,3.3115,3.2982,3.2713,3.2713,3.3146,3.3973,3.473,3.5404,3.6088,3.6814,3.7283,3.7495,3.7495,3.7495,3.7495,3.7495,3.7495,3.7495,3.7495,3.7495,3.7495,3.7495,3.7495,3.7495,0.0,0.0,0.0,0.0,0.0,0.0,0.0,0.0,0.0,0.0,1.4171,1.3839,1.376,1.3521,1.3298,1.3124,1.3171,1.3235,1.3235,0.0,0.0,0.0,0.0,0.0,1.6923,1.7775,1.8335,1.8584,1.8584,1.8538,1.8398,1.8398,1.8522,1.8729,1.8853,1.8911,1.8932,1.9181,1.9239,1.9252,2.041,2.0785,2.0657,0.0,0.0,0.0,0.0,0.0,0.0,0.0,0.0,0.0,0.0,0.0,0.0,0.0,0.0,0.0,0.0,0.0,0.0,0.0,0.0,0.0,0.0,0.0,0.0,0.0,0.0,0.0,0.0,0.0,0.0,0.0,0.0,3.1052,3.0987,3.2695,3.387,3.3643,3.5103,3.5961,3.5595,3.611,3.634,3.5879,3.5852,3.5662,3.5228,3.5201,3.474,3.371,3.3683,3.3441,3.2991,3.2991,3.312,3.3367,3.4203,3.4747,3.5047,3.6029,3.6768,3.73,3.745,3.7495,3.7495,3.7495,3.7495,3.7495,3.7495,3.7495,3.7495,3.7495,3.7495,3.7495,0.0,0.0,0.0,0.0,0.0,0.0,0.0,0.0,0.0,0.0,1.4266,1.4029,1.4029,1.3584,1.3315,1.3315,1.3044,1.2949,1.3076,0.0,0.0,0.0,0.0,1.6269,1.7451,1.8077,1.8517,1.8688,1.8517,1.8398,1.8414,1.8195,1.8257,1.8526,1.8708,1.8808,1.8812,1.9222,1.9388,1.9471,2.0431,2.0596,2.0245,2.0182,2.0066,1.9865,1.9611,1.9557,1.9557,1.9116,0.0,0.0,0.0,0.0,0.0,0.0,0.0,0.0,0.0,0.0,0.0,0.0,0.0,0.0,0.0,0.0,0.0,0.0,0.0,0.0,0.0,0.0,0.0,0.0,3.1575,3.2489,3.2724,3.3834,3.4847,3.541,3.6288,3.688,3.6964,3.729,3.7262,3.6659,3.6605,3.6334,3.5717,3.569,3.5256,3.4314,3.4287,3.4008,3.343,3.3205,3.3088,3.3106,3.3628,3.4033,3.4303,3.5217,3.6066,0.0,3.6994,3.7196,3.7495,3.7495,3.7495,0.0,0.0,0.0,0.0,0.0,3.7495,3.7495,0.0,0.0,0.0,0.0,0.0,0.0,0.0,0.0,0.0,0.0,0.0,1.4486,1.4486,1.3918,1.3521,1.349,1.2981,1.2821,0.0,0.0,0.0,1.5163,1.6163,1.7205,1.8285,1.8407,1.8662,1.9036,1.8605,1.8398,1.8398,1.7973,1.7812,1.789,1.8278,1.8497,1.8522,1.9367,1.972,1.9761,2.0162,1.9934,1.9367,1.9803,1.999,2.0031,2.0031,2.0031,1.9948,1.9475,0.0,0.0,0.0,0.0,0.0,0.0,0.0,0.0,0.0,0.0,0.0,0.0,0.0,0.0,0.0,0.0,0.0,0.0,0.0,0.0,0.0,0.0,0.0,0.0,3.3038,3.4638,3.5004,3.5067,3.5542,3.6711,3.7134,3.7402,3.7594,3.7669,3.7452,3.6849,3.6741,3.6442,3.5825,0.0,0.0,0.0,0.0,3.4477,3.4016,3.3403,3.3142,3.3196,3.326,3.3488,3.3817,3.4582,3.5461,3.6401,3.6474,3.6911,3.7495,3.7495,3.7495,3.7495,3.7495,3.7495,3.7495,3.7495,3.7495,3.7495,0.0,0.0,0.0,0.0,0.0,0.0,0.0,0.0,0.0,1.4597,1.4123,1.3791,1.3791,1.3442,1.3092,1.2821,1.2917,1.3283,0.0,0.0,1.4695,1.5612,1.6735,1.7428,1.7674,1.8524,1.8812,1.8538,1.8439,1.8398,1.8398,1.8315,1.846,1.8833,1.8916,1.8957,1.8994,1.916,1.9243,1.9285,1.9724,2.0241,2.0703,2.0824,2.1073,2.1404,2.1404,2.1404,2.1342,2.0866,2.0721,2.0659,2.0268,0.0,0.0,0.0,0.0,0.0,0.0,0.0,0.0,0.0,0.0,0.0,0.0,0.0,0.0,0.0,0.0,0.0,0.0,0.0,0.0,3.2137,3.3927,3.5464,3.645,3.6757,3.6941,3.7086,3.7747,3.8168,3.8212,3.8673,3.87,3.8103,3.7588,3.7073,3.6469,3.5961,0.0,3.4802,3.4341,3.426,3.4612,3.3612,3.3313,3.3764,0.0,0.0,3.3835,3.5109,3.5966,3.6507,3.7036,3.7369,3.7495,3.7495,3.7495,3.7495,3.7495,3.7495,3.7495,3.7495,3.7495,3.7495,0.0,0.0,0.0,0.0,0.0,0.0,0.0,0.0,0.0,0.0,1.4314,1.4091,1.4091,1.3807,1.3537,1.3378,1.3346,0.0,0.0,1.4602,1.5282,1.6592,1.7359,1.7926,1.829,1.8845,1.8994,1.8766,1.8517,1.8522,1.8745,1.8501,1.8662,1.9098,1.9098,1.9098,1.9098,1.9098,1.9098,1.9139,1.9616,2.0179,2.0785,2.1013,2.124,2.1468,2.1735,2.1797,2.1776,2.1528,2.1447,2.1447,2.1447,2.1282,2.1054,0.0,0.0,0.0,0.0,0.0,0.0,0.0,0.0,0.0,0.0,0.0,0.0,0.0,0.0,2.6394,0.0,0.0,3.1393,3.3253,3.4999,3.6402,3.7089,3.7655,3.798,3.7931,3.8339,3.8698,3.8835,3.9129,3.9047,3.8456,3.7859,3.7235,3.6632,3.6035,3.5554,3.5256,3.4666,3.4639,3.5256,3.4109,3.3628,3.3908,3.3715,3.3521,3.3429,3.4116,3.4727,3.5217,3.5789,3.6274,3.6648,3.7248,3.7495,3.7495,3.7495,3.7495,3.7495,3.7495,3.7495,3.7495,0.0,0.0,0.0,0.0,0.0,0.0,0.0,0.0,0.0,0.0,1.4782,1.4733,1.4733,1.4493,1.4333,0.0,0.0,0.0,0.0,1.5436,1.6268,1.7842,1.8161,1.8576,1.9181,1.9198,1.9198,1.9198,1.8877,1.8903,1.9256,1.8953,1.8998,1.9351,1.9351,1.9351,1.9351,1.9264,1.9268,1.9392,1.9744,2.0162,2.0599,2.1054,2.1238,2.13,2.1654,2.1797,2.1797,2.1797,2.1797,2.188,2.2356,2.2232,2.1921,2.1838,2.1911,0.0,0.0,0.0,0.0,0.0,0.0,0.0,0.0,0.0,2.5054,2.5643,2.5732,2.6494,2.8973,3.0545,3.2083,3.4105,3.5965,3.7258,3.7531,3.8152,3.8625,3.867,3.8845,3.9042,3.9269,3.9292,3.9102,3.8591,3.8022,3.7425,3.6822,3.6205,3.5825,3.569,3.512,3.5093,3.569,3.4504,3.3946,3.4023,3.3481,3.3197,3.3176,3.3247,3.3624,3.4167,3.4754,3.5205,3.5604,3.6798,3.7274,3.7274,3.7274,3.7369,3.7495,3.7495,3.7495,3.7495,0.0,0.0,0.0,0.0,0.0,0.0,0.0,0.0,0.0,0.0,0.0,0.0,0.0,0.0,0.0,0.0,0.0,0.0,1.6818,1.696,1.7698,1.9296,1.9392,1.9446,1.9528,1.9528,1.9528,1.9528,1.9725,1.985,1.9912,2.009,2.0206,2.0248,2.0248,2.0248,2.0227,1.9869,1.9931,2.0268,2.031,2.0599,2.1075,2.153,2.1735,2.1735,2.1776,2.1797,2.1797,2.1797,2.1797,2.188,2.2356,2.2459,2.2335,2.1921,0.0,2.1712,0.0,0.0,0.0,2.3465,2.434,2.5295,0.0,0.0,2.6627,2.75,2.7697,2.8142,2.9669,3.1614,3.3383,3.4407,3.6373,3.7864,3.8088,3.8391,3.8692,3.8841,3.9114,3.9269,3.9292,3.9292,3.9264,3.921,3.8618,3.8049,3.7452,3.6829,3.6252,3.5717,3.512,3.5093,3.569,3.4504,3.408,3.4441,3.3845,3.3617,3.3739,3.4192,3.4662,3.5123,3.6059,3.584,3.4889,3.606,3.6503,3.6503,3.6503,3.6911,3.7495,3.7495,3.7495,3.7495,0.0,0.0,0.0,0.0,0.0,0.0,0.0,0.0,0.0,0.0,0.0,0.0,0.0,0.0,0.0,0.0,0.0,0.0,1.7463,1.8301,1.9022,1.9583,1.9854,1.9875,1.9615,1.9599,1.9599,1.9599,1.9982,2.0164,2.0185,2.0576,2.0748,2.0748,2.0748,2.0677,2.057,2.04,2.035,2.0454,2.0992,2.1323,2.1569,2.2025,2.2211,2.2149,2.159,2.1385,0.0,0.0,2.1385,2.1528,2.2273,2.2501,2.2459,2.2273,2.2397,0.0,2.2377,0.0,0.0,0.0,2.5117,2.6125,2.6518,2.6998,2.761,2.8309,2.868,2.9289,3.067,3.2465,3.3995,0.0,3.6776,3.8171,3.8421,3.8621,3.8734,3.8605,3.9008,3.9292,3.9292,3.9292,3.9292,3.9292,3.8429,3.7778,3.7512,3.6584,3.5961,3.5717,3.512,3.5029,3.5511,3.4662,3.4267,3.4325,3.4065,3.3905,3.3819,3.4031,3.4114,3.4072,3.4759,3.4707,3.4192,3.5351,3.6044,3.6408,3.6408,3.6833,3.7495,3.7495,3.7495,3.7495,0.0,0.0,0.0,0.0,0.0,0.0,0.0,0.0,0.0,0.0,0.0,0.0,0.0,0.0,0.0,0.0,0.0,0.0,0.0,1.9266,1.9931,1.9961,2.0407,2.0514,2.0149,2.0149,2.0149,2.0149,2.0569,2.077,2.077,2.1204,2.1399,2.1399,2.1399,2.1309,2.1144,2.1036,2.0967,2.1011,2.1622,2.1956,2.2102,2.2396,2.2418,2.2211,2.1385,2.1095,0.0,0.0,2.0909,2.1054,2.1859,2.2211,2.2315,2.2315,2.2582,2.2932,2.3036,0.0,0.0,2.4696,2.5893,2.6998,2.6998,2.7631,2.8395,2.9053,2.9469,3.0077,3.1354,3.305,0.0,3.5214,3.6936,3.8327,3.8621,3.8689,3.862,3.8434,3.8803,3.9047,3.9047,3.921,3.9292,3.9292,3.8347,3.7696,3.7512,3.6503,3.5852,3.5717,3.5283,3.5162,3.5408,3.4966,3.4622,3.4333,3.4333,3.4207,3.3974,3.3974,3.381,3.3538,3.386,3.3712,3.339,3.4528,3.5348,3.5966,3.614,3.6731,3.7495,3.7495,3.7495,3.7495,0.0,0.0,0.0,0.0,0.0,0.0,0.0,0.0,0.0,0.0,0.0,0.0,0.0,0.0,0.0,0.0,0.0,0.0,0.0,1.9716,2.0262,2.0839,2.1319,2.1542,2.1538,2.1538,2.1538,2.1538,2.18,2.1966,2.1948,2.224,2.236,2.236,2.236,2.2341,2.2339,2.1871,2.1916,2.2322,2.2157,2.2354,2.2754,2.2559,2.2211,2.1756,2.1261,0.0,0.0,0.0,2.0434,2.0516,2.0992,2.1447,0.0,2.1818,2.1972,0.0,0.0,0.0,2.4986,2.544,2.678,2.7958,2.7958,2.8375,2.9032,2.9969,3.0188,3.0472,3.1436,3.3329,3.4848,3.5065,3.6843,3.8345,3.8819,3.8451,3.8189,3.838,3.8429,3.8429,0.0,3.8966,3.9292,3.9292,3.87,3.813,3.7512,3.691,3.6307,3.5717,3.5662,3.5591,3.5408,3.538,3.5124,3.4679,3.4679,3.4576,3.4366,3.4366,3.4382,3.4363,3.4246,3.3461,3.2318,3.3487,3.4267,3.4813,3.5466,3.645,3.7495,3.7495,3.7495,3.7495,0.0,0.0,0.0,0.0,0.0,0.0,0.0,0.0,0.0,0.0,0.0,0.0,0.0,0.0,0.0,0.0,0.0,0.0,0.0,2.0061,2.0718,1.9943,2.0992,2.1446,2.1135,2.1446,2.1599,2.1599,2.199,2.2194,2.2216,2.2617,2.2796,2.2796,2.2796,2.2721,2.2609,2.2762,2.2665,2.2466,2.2986,2.3136,2.2967,2.2573,2.2456,2.2279,0.0,0.0,0.0,0.0,0.0,0.0,2.0866,0.0,0.0,2.1714,0.0,0.0,0.0,0.0,2.5547,2.6347,2.7258,2.8089,2.844,2.8922,2.9447,3.0078,2.9947,2.9925,3.0581,3.2406,3.3882,3.4114,3.6593,3.8575,3.8863,3.888,3.8634,3.7892,3.8157,0.0,0.0,0.0,0.0,3.87,3.7772,3.7121,3.691,3.6334,3.5906,3.5717,3.569,3.5737,3.5812,3.5394,3.5384,3.5754,3.5754,3.5739,3.5659,3.5659,3.5195,3.4416,3.4669,3.4068,3.2927,3.3608,3.4273,3.4896,3.5473,3.5961,3.6404,3.7187,3.721,3.6848,0.0,0.0,0.0,0.0,0.0,0.0,0.0,0.0,0.0,0.0,0.0,0.0,0.0,0.0,0.0,0.0,0.0,0.0,0.0,0.0,2.0921,1.9965,2.0992,2.1468,2.1157,2.1446,2.1599,2.1599,2.2066,2.2306,2.2306,2.2783,2.3001,2.3001,2.3001,2.3014,2.3056,2.3207,2.3002,2.2673,2.3371,2.3372,2.2945,2.2719,2.2647,0.0,0.0,0.0,0.0,0.0,0.0,0.0,0.0,0.0,0.0,0.0,0.0,0.0,0.0,2.4843,2.5934,2.6888,2.7564,2.8155,2.866,2.9032,2.9381,2.9838,2.9578,2.9403,2.986,3.1669,3.3124,3.3177,3.5767,3.7921,3.8329,3.8179,3.7989,3.7832,3.7968,0.0,0.0,0.0,0.0,3.8076,3.7175,3.6605,3.6605,3.6035,3.569,3.569,3.5851,3.5975,3.6003,3.578,3.5894,3.6315,3.6315,3.6431,3.6664,3.6431,3.5978,3.5433,3.523,3.4677,3.3923,3.4181,3.4638,3.5232,3.5828,3.6178,3.6435,3.7202,3.721,3.688,0.0,0.0,0.0,0.0,0.0,0.0,0.0,0.0,0.0,0.0,0.0,0.0,0.0,0.0,0.0,0.0,0.0,0.0,0.0,0.0,0.0,2.0818,2.1283,2.1568,2.1577,2.1599,2.1638,2.1642,2.2066,2.2306,2.235,2.2805,2.3001,2.3001,2.3001,2.3244,2.3637,2.3201,2.3023,2.3026,2.3297,2.3134,2.2727,2.2966,0.0,0.0,0.0,0.0,0.0,0.0,0.0,0.0,0.0,0.0,0.0,0.0,0.0,2.3651,2.464,2.539,2.6125,2.7086,2.7653,2.8155,2.866,2.8771,2.8878,2.9359,2.9032,2.8813,0.0,0.0,3.2621,3.2373,3.4618,3.6686,3.7491,3.6612,3.6503,0.0,0.0,0.0,0.0,0.0,0.0,3.7485,0.0,3.6605,3.6605,3.6083,3.5757,3.573,3.6178,3.6317,3.6069,3.6523,3.6646,3.6356,3.6373,3.6722,3.7273,3.6646,3.6693,3.7175,3.5836,3.5241,3.5261,3.5116,3.5324,3.575,3.6415,3.6953,3.7372,3.7419,3.7449,3.7432,0.0,0.0,0.0,0.0,0.0,0.0,0.0,0.0,0.0,0.0,0.0,0.0,0.0,0.0,0.0,0.0,0.0,0.0,0.0,0.0,0.0,0.0,0.0,0.0,0.0,0.0,0.0,0.0,0.0,2.2481,2.2826,2.2936,2.3001,2.3001,2.3001,2.3067,2.3198,2.3419,2.331,2.3045,0.0,2.3343,2.2886,0.0,0.0,0.0,0.0,0.0,0.0,0.0,0.0,0.0,0.0,0.0,2.3296,0.0,0.0,2.4142,2.4747,2.539,2.6125,2.7086,2.7653,2.8155,2.866,2.8507,2.8353,2.8857,2.8026,2.7282,0.0,0.0,0.0,3.2441,3.5396,0.0,3.8732,3.8586,0.0,0.0,0.0,3.8049,3.7778,3.7567,0.0,0.0,3.6937,3.6605,3.6605,3.6777,3.6686,3.6246,3.6634,3.6961,3.7177,3.7614,3.7558,3.7052,3.7506,3.7564,3.7302,3.7128,3.6867,3.6548,3.6166,3.6032,3.602,3.5966,3.5768,3.554,3.6055,3.5969,3.5661,3.6552,3.6806,3.677,0.0,0.0,0.0,0.0,0.0,0.0,0.0,0.0,0.0,0.0,0.0,0.0,0.0,0.0,0.0,0.0,0.0,0.0,0.0,0.0,0.0,0.0,0.0,0.0,0.0,0.0,0.0,0.0,0.0,0.0,0.0,2.275,2.2892,2.2717,2.2914,2.3001,2.3023,0.0,0.0,0.0,0.0,0.0,0.0,0.0,0.0,0.0,0.0,0.0,0.0,0.0,0.0,2.2857,2.2994,2.3518,2.4129,2.4242,0.0,2.4759,2.5216,2.5605,2.6125,2.7086,2.7348,2.7522,2.8048,2.7916,2.7719,2.7807,2.7195,0.0,0.0,0.0,0.0,0.0,0.0,0.0,3.8353,3.8288,3.8288,0.0,3.8564,0.0,3.8293,3.8049,3.7995,0.0,3.7479,3.6991,3.6991,3.7181,3.7151,3.6819,3.7108,3.7443,3.7844,3.8089,3.8028,3.7709,3.8057,3.8028,3.7709,3.7709,3.7506,3.7128,0.0,3.7033,3.7051,3.6974,3.6754,3.645,3.644,3.6328,3.6183,3.6569,3.6951,3.7371,0.0,0.0,0.0,0.0,0.0,0.0,0.0,0.0,0.0,0.0,0.0,0.0,0.0,0.0,0.0,0.0,0.0,0.0,0.0,0.0,0.0,0.0,0.0,0.0,0.0,0.0,0.0,0.0,0.0,0.0,0.0,0.0,0.0,0.0,0.0,0.0,0.0,0.0,0.0,0.0,0.0,0.0,0.0,0.0,0.0,0.0,0.0,0.0,0.0,0.0,2.3783,2.3673,2.3902,2.4317,2.4729,2.4959,2.5107,2.5293,2.5775,2.5863,2.6059,2.7064,2.6955,2.6737,2.7195,2.7239,2.7064,2.6606,0.0,0.0,2.7264,0.0,3.1073,3.1635,0.0,3.6151,3.7452,3.7154,3.7446,3.9102,3.8857,3.8727,3.9264,3.883,3.8727,3.9264,3.832,3.7696,3.7642,3.7607,3.7625,3.7663,3.777,3.7987,3.8347,3.8347,3.8289,3.8202,3.8289,3.8231,3.8086,3.8086,3.8086,3.8076,0.0,0.0,3.8026,3.7905,3.7824,3.769,3.7231,3.7321,3.7681,3.7142,3.7685,3.8634,0.0,0.0,0.0,0.0,0.0,0.0,0.0,0.0,0.0,0.0,0.0,0.0,0.0,0.0,0.0,0.0,0.0,0.0,0.0,0.0,0.0,0.0,0.0,0.0,0.0,0.0,0.0,0.0,0.0,0.0,0.0,0.0,0.0,0.0,0.0,0.0,0.0,0.0,0.0,0.0,0.0,0.0,0.0,0.0,0.0,0.0,0.0,0.0,0.0,0.0,2.4923,2.4905,2.493,2.5276,2.5666,2.5712,2.5471,2.5293,2.5775,2.5621,2.5643,2.6977,2.6955,2.6737,2.7195,2.6998,0.0,0.0,0.0,2.7382,2.744,2.9622,0.0,3.2811,0.0,0.0,0.0,0.0,3.8374,0.0,0.0,0.0,0.0,0.0,0.0,0.0,0.0,3.8754,3.8266,3.8892,3.9404,3.9609,3.9141,3.8967,3.9015,3.9015,3.8754,3.8202,3.8754,3.8492,3.7476,3.7476,3.7476,3.7447,0.0,0.0,3.8177,3.8153,3.7839,3.7425,3.7759,3.7863,3.7917,3.8283,3.8794,3.9345,0.0,0.0,0.0,0.0,0.0,0.0,0.0,0.0,0.0,0.0,0.0,0.0,0.0,0.0,0.0,0.0,0.0,0.0,0.0,0.0,0.0,0.0,0.0,0.0,0.0,0.0,0.0,0.0,0.0,0.0,0.0,0.0,0.0,0.0,0.0,0.0,0.0,0.0,0.0,0.0,0.0,0.0,0.0,0.0,0.0,0.0,0.0,0.0,0.0,0.0,2.5359,2.5577,2.5577,2.571,2.5906,2.5906,2.5732,2.56,2.5841,2.5732,2.5841,2.702,2.6955,2.6671,2.6889,0.0,0.0,0.0,0.0,2.7887,2.8131,0.0,0.0,0.0,0.0,0.0,0.0,0.0,0.0,0.0,0.0,0.0,0.0,0.0,0.0,0.0,0.0,0.0,3.9234,3.976,3.9927,3.9634,3.9363,3.9189,3.9189,3.8841,3.8696,3.8725,3.9044,3.8696,3.7796,3.8144,3.8115,3.7767,3.7767,0.0,3.8202,3.8202,3.8028,3.7756,3.77,3.7972,3.8402,3.8369,3.9069,4.0072,0.0,0.0,0.0,0.0,0.0,0.0,0.0,0.0,0.0,0.0,0.0,0.0,0.0,0.0,0.0,0.0,0.0,0.0,0.0,0.0,0.0,0.0,0.0,0.0,0.0,0.0,0.0,0.0,0.0,0.0,0.0,0.0,0.0,0.0,0.0,0.0,0.0,0.0,0.0,0.0,0.0,0.0,0.0,0.0,0.0,0.0,0.0,0.0,0.0,0.0,2.5599,2.5906,2.5906,2.5906,2.5928,2.6016,2.6059,2.6081,2.6168,2.6125,2.6278,2.7217,2.702,2.6606,2.6606,2.7055,0.0,0.0,0.0,0.0,0.0,0.0,0.0,0.0,0.0,0.0,0.0,0.0,0.0,0.0,0.0,0.0,0.0,0.0,0.0,0.0,0.0,0.0,4.0083,4.0428,4.0293,3.9634,3.9479,3.9392,3.9392,3.8754,3.8609,3.8986,3.9247,3.9044,3.8434,3.8957,3.8986,3.858,3.8318,0.0,0.0,3.826,3.8202,3.8163,3.7956,3.8371,3.91,3.8794,3.9612,4.0798,0.0,0.0,0.0,0.0,0.0,0.0,0.0,0.0,0.0,0.0,0.0,0.0,0.0,0.0,0.0,0.0,0.0,0.0,0.0,0.0,0.0,0.0,0.0,0.0,0.0,0.0,0.0,0.0,0.0,0.0,0.0,0.0,0.0,0.0,0.0,0.0,0.0,0.0,0.0,0.0,0.0,0.0,0.0,0.0,0.0,0.0,0.0,0.0,0.0,0.0,0.0,2.5906,2.5906,2.5906,2.5994,2.6409,0.0,0.0,2.7064,2.6846,2.6758,2.7696,2.726,2.6606,2.6606,0.0,0.0,0.0,2.8256,3.0369,3.0435,0.0,0.0,0.0,0.0,0.0,0.0,0.0,0.0,0.0,0.0,0.0,0.0,0.0,0.0,0.0,0.0,0.0,4.0366,4.0983,4.1204,4.0911,4.0321,4.0031,4.0031,3.9421,3.8841,3.8318,3.945,3.9683,3.9102,3.916,3.9479,3.9857,0.0,0.0,0.0,3.8463,3.8202,3.8315,3.9278,3.971,3.9921,4.0901,4.1365,4.151,0.0,0.0,0.0,0.0,0.0,0.0,0.0,0.0,0.0,0.0,0.0,0.0,0.0,0.0,0.0,0.0,0.0,0.0,0.0,0.0,0.0,0.0,0.0,0.0,0.0,0.0,0.0,0.0,0.0,0.0,0.0,0.0,0.0,0.0,0.0,0.0,0.0,0.0,0.0,0.0,0.0,0.0,0.0,0.0,0.0,0.0,0.0,0.0,0.0,0.0,0.0,0.0,2.5906,2.5906,0.0,0.0,2.6169,2.6213,2.6409,2.6321,2.6495,2.7745,2.7523,2.7273,2.8182,0.0,0.0,2.8203,2.9643,3.1074,3.1442,3.2942,0.0,0.0,0.0,0.0,0.0,0.0,0.0,0.0,0.0,0.0,0.0,0.0,0.0,0.0,0.0,0.0,4.0842,4.0697,4.0403,3.9973,3.9683,3.9567,3.9567,3.9334,3.9247,3.9363,4.0263,4.035,3.9741,4.0147,4.0263,4.006,0.0,0.0,0.0,3.8492,3.8202,3.8258,3.8694,3.9096,3.9457,3.992,4.0543,4.1122,0.0,0.0,0.0,0.0,0.0,0.0,0.0,0.0,0.0,0.0,0.0,0.0,0.0,0.0,0.0,0.0,0.0,0.0,0.0,0.0,0.0,0.0,0.0,0.0,0.0,0.0,0.0,0.0,0.0,0.0,0.0,0.0,0.0,0.0,0.0,0.0,0.0,0.0,0.0,0.0,0.0,0.0,0.0,0.0,0.0,0.0,0.0,0.0,0.0,0.0,0.0,0.0,0.0,0.0,0.0,0.0,2.6318,2.6386,2.6817,2.6861,2.7081,2.8385,2.8202,2.8052,0.0,0.0,2.9524,2.9879,3.1048,3.2136,3.2546,3.3816,3.4666,3.4233,0.0,3.5418,0.0,0.0,0.0,0.0,0.0,0.0,0.0,0.0,0.0,0.0,0.0,0.0,0.0,4.0466,4.0002,3.977,3.977,3.977,3.977,3.9567,3.9683,4.0118,4.0786,4.0844,4.0408,4.0873,4.096,4.0641,0.0,0.0,0.0,3.8754,3.8376,3.8221,3.8389,3.8723,3.9126,3.9469,4.0108,4.08,0.0,0.0,0.0,0.0,0.0,0.0,0.0,0.0,0.0,0.0,0.0,0.0,0.0,0.0,0.0,0.0,0.0,0.0,0.0,0.0,0.0,0.0,0.0,0.0,0.0,0.0,0.0,0.0,0.0,0.0,0.0,0.0,0.0,0.0,0.0,0.0,0.0,0.0,0.0,0.0,0.0,0.0,0.0,0.0,0.0,0.0,0.0,0.0,0.0,0.0,0.0,0.0,0.0,0.0,0.0,0.0,2.728,2.7591,2.8989,2.9081,2.9015,2.9942,2.9435,2.8849,0.0,0.0,3.1145,3.0667,3.2325,3.3877,3.3887,3.4379,3.4802,3.4775,3.4802,0.0,0.0,0.0,0.0,0.0,0.0,0.0,0.0,0.0,0.0,0.0,0.0,0.0,0.0,4.0466,4.0408,4.1047,4.1076,4.1076,4.1076,4.0408,4.0089,4.0118,4.0786,4.1105,4.1076,4.1105,4.1453,0.0,0.0,0.0,0.0,3.945,3.8812,3.8258,3.8852,3.9071,3.9235,4.037,4.0783,4.0899,0.0,0.0,0.0,0.0,0.0,0.0,0.0,0.0,0.0,0.0,0.0,0.0,0.0,0.0,0.0,0.0,0.0,0.0,0.0,0.0,0.0,0.0,0.0,0.0,0.0,0.0,0.0,0.0,0.0,0.0,0.0,0.0,0.0,0.0,0.0,0.0,0.0,0.0,0.0,0.0,0.0,0.0,0.0,0.0,0.0,0.0,0.0,0.0,0.0,0.0,0.0,0.0,0.0,0.0,0.0,0.0,0.0,0.0,2.779,2.8065,2.8498,2.9437,2.9792,3.0134,3.0918,0.0,3.1912,3.2129,3.3087,3.4026,3.4452,3.5028,3.5147,3.4314,3.4531,0.0,0.0,0.0,0.0,0.0,0.0,0.0,0.0,0.0,0.0,0.0,0.0,0.0,0.0,4.157,4.1134,4.0437,4.0408,4.0408,4.0408,4.0641,4.0786,4.0786,4.1453,4.1773,4.1773,4.1773,0.0,0.0,0.0,0.0,0.0,3.8957,3.8405,3.8221,3.8408,3.8482,3.8578,3.9391,4.025,4.1031,0.0,0.0,0.0,0.0,0.0,0.0,0.0,0.0,0.0,0.0,0.0,0.0,0.0,0.0,0.0,0.0,0.0,0.0,0.0,0.0,0.0,0.0,0.0,0.0,0.0,0.0,0.0,0.0,0.0,0.0,0.0,0.0,0.0,0.0,0.0,0.0,0.0,0.0,0.0,0.0,0.0,0.0,0.0,0.0,0.0,0.0,0.0,0.0,0.0,0.0,0.0,0.0,0.0,0.0,0.0,0.0,0.0,0.0,0.0,2.8407,2.9056,3.0109,3.0498,0.0,0.0,0.0,3.2619,3.3463,3.414,3.4681,3.5068,3.5445,3.5445,3.4694,3.5093,0.0,0.0,0.0,0.0,0.0,0.0,0.0,0.0,0.0,0.0,0.0,0.0,0.0,0.0,4.2092,4.1715,4.0873,4.0844,4.0844,4.0844,4.1279,4.1482,4.1482,4.1889,4.2092,4.2092,4.2092,0.0,0.0,0.0,0.0,0.0,3.8899,3.8434,3.8202,3.8202,3.8347,3.8695,3.9547,4.0498,4.1438,0.0,0.0,0.0,0.0,0.0,0.0,0.0,0.0,0.0,0.0,0.0,0.0,0.0,0.0,0.0,0.0,0.0,0.0,0.0,0.0,0.0,0.0,0.0,0.0,0.0,0.0,0.0,0.0,2.6316,2.6556,2.6093,0.0,0.0,0.0,0.0,0.0,0.0,0.0,0.0,0.0,0.0,0.0,0.0,0.0,0.0,0.0,0.0,0.0,0.0,0.0,0.0,0.0,0.0,0.0,0.0,0.0,0.0,0.0,0.0,0.0,0.0,0.0,0.0,0.0,0.0,0.0,0.0,0.0,3.5243,3.569,3.569,3.569,3.569,3.5635,3.6198,0.0,0.0,0.0,0.0,0.0,0.0,0.0,0.0,0.0,0.0,0.0,0.0,0.0,0.0,4.2092,4.2092,4.2092,4.2092,4.2092,4.2092,4.2092,4.2092,4.2092,4.2092,4.2092,4.2092,4.2092,0.0,0.0,0.0,0.0,0.0,3.9247,3.887,3.8347,3.8347,3.8725,3.9411,4.0579,4.1395,4.2046,0.0,0.0,0.0,0.0,0.0,0.0,0.0,0.0,0.0,0.0,0.0,0.0,0.0,0.0,0.0,0.0,0.0,0.0,0.0,0.0,0.0,0.0,0.0,0.0,0.0,0.0,0.0,2.5901,2.5739,2.5811,2.6093,2.5685,0.0,0.0,0.0,0.0,0.0,0.0,0.0,0.0,0.0,0.0,0.0,0.0,0.0,0.0,0.0,0.0,0.0,0.0,0.0,0.0,0.0,0.0,0.0,0.0,0.0,0.0,0.0,0.0,0.0,0.0,0.0,0.0,0.0,0.0,0.0,0.0,0.0,3.569,3.569,3.569,3.5554,3.5093,3.5906,0.0,0.0,0.0,0.0,0.0,0.0,0.0,0.0,0.0,0.0,0.0,0.0,0.0,0.0,4.2092,4.2092,4.2092,4.2092,4.2092,4.2092,4.2092,4.2092,4.2092,4.2092,4.2092,4.2092,4.2092,0.0,0.0,0.0,0.0,4.0583,3.9596,3.9392,3.9654,3.9654,3.9741,3.9983,4.0773,4.1449,4.2015,0.0,0.0,0.0,0.0,0.0,0.0,0.0,0.0,0.0,0.0,0.0,0.0,0.0,0.0,0.0,0.0,0.0,0.0,0.0,0.0,0.0,0.0,0.0,0.0,0.0,0.0,0.0,0.0,0.0,2.631,0.0,0.0,0.0,0.0,0.0,0.0,0.0,0.0,0.0,0.0,0.0,0.0,0.0,0.0,0.0,0.0,0.0,0.0,0.0,2.8263,2.8323,2.8502,0.0,0.0,0.0,0.0,0.0,0.0,0.0,0.0,0.0,0.0,0.0,0.0,0.0,0.0,0.0,0.0,0.0,0.0,3.569,0.0,0.0,0.0,0.0,0.0,0.0,0.0,0.0,0.0,0.0,0.0,0.0,0.0,0.0,0.0,0.0,0.0,0.0,4.2092,4.2092,4.2092,4.2092,4.2092,4.2092,4.2092,4.2092,4.2092,4.2092,4.2092,4.2092,4.2092,0.0,0.0,0.0,0.0,4.0583,3.9886,3.9799,4.0089,4.0089,4.0292,4.0651,4.13,4.1912,4.2515,0.0,0.0,0.0,0.0,0.0,0.0,0.0,0.0,0.0,0.0,0.0,0.0,0.0,0.0,0.0,0.0,0.0,0.0,0.0,0.0,0.0,0.0,0.0,0.0,0.0,0.0,0.0,0.0,0.0,0.0,0.0,0.0,0.0,0.0,0.0,0.0,0.0,0.0,0.0,0.0,0.0,0.0,0.0,0.0,0.0,0.0,0.0,0.0,0.0,2.8502,2.8502,2.8502,2.8502,0.0,0.0,0.0,0.0,0.0,0.0,0.0,0.0,0.0,0.0,0.0,0.0,0.0,0.0,0.0,0.0,0.0,0.0,0.0,0.0,0.0,0.0,0.0,0.0,0.0,0.0,0.0,0.0,0.0,0.0,0.0,0.0,0.0,0.0,0.0,0.0,4.2092,4.2092,4.2092,4.2092,4.2092,4.2092,4.2092,4.2092,4.2092,4.2092,4.2092,4.2092,4.2092,4.1773,0.0,0.0,0.0,4.0408,4.0292,4.0321,4.0408,4.0408,4.0757,4.1311,4.1823,4.2347,4.297,0.0,0.0,0.0,0.0,0.0,0.0,0.0,0.0,0.0,0.0,0.0,0.0,0.0,0.0,0.0,0.0,0.0,0.0,0.0,0.0,0.0,0.0,0.0,0.0,0.0,0.0,0.0,0.0,0.0,0.0,2.7445,2.7066,2.7138,0.0,0.0,0.0,0.0,0.0,0.0,0.0,0.0,0.0,0.0,0.0,0.0,0.0,0.0,0.0,0.0,2.8502,2.8502,2.8502,2.8502,0.0,0.0,0.0,0.0,0.0,2.8694,0.0,0.0,0.0,0.0,0.0,0.0,0.0,0.0,0.0,0.0,0.0,0.0,0.0,0.0,0.0,0.0,0.0,0.0,0.0,0.0,0.0,0.0,0.0,0.0,0.0,0.0,0.0,0.0,0.0,0.0,0.0,4.2092,4.2092,4.2092,4.2092,4.2092,4.2092,4.2092,4.2092,4.2092,4.2092,4.2092,4.2092,4.2034,0.0,0.0,4.1366,4.1744,4.1163,4.1279,4.1773,4.1773,4.186,4.1968,4.207,4.2149,4.231,0.0,0.0,0.0,0.0,0.0,0.0,0.0,0.0,0.0,0.0,0.0,0.0,0.0,0.0,0.0,0.0,0.0,0.0,0.0,0.0,0.0,0.0,0.0,0.0,0.0,0.0,0.0,0.0,0.0,2.7061,2.7277,2.7306,2.7613,2.8142,0.0,0.0,0.0,0.0,0.0,0.0,0.0,0.0,0.0,0.0,0.0,0.0,0.0,0.0,0.0,0.0,2.8502,2.8502,2.8502,0.0,0.0,0.0,0.0,0.0,2.8895,2.9345,0.0,0.0,0.0,0.0,0.0,0.0,0.0,0.0,0.0,0.0,0.0,0.0,0.0,0.0,0.0,0.0,0.0,0.0,0.0,0.0,0.0,0.0,0.0,0.0,0.0,0.0,0.0,0.0,0.0,0.0,4.2092,4.2092,4.2092,4.2092,4.2092,4.2092,4.2092,4.2092,4.2092,4.2092,4.2092,4.2092,4.2092,4.2063,0.0,4.1802,4.2063,4.1773,4.1831,4.2092,4.2092,4.2092,4.2092,4.2092,4.229,4.2668,0.0,0.0,0.0,0.0,0.0,0.0,0.0,0.0,0.0,0.0,0.0,0.0,0.0,0.0,0.0,0.0,0.0,0.0,0.0,0.0,0.0,0.0,0.0,0.0,0.0,0.0,0.0,2.6478,2.7301,2.7565,2.7282,2.7709,2.8094,0.0,0.0,0.0,0.0,0.0,0.0,0.0,0.0,0.0,0.0,0.0,0.0,0.0,0.0,0.0,0.0,0.0,0.0,0.0,0.0,0.0,0.0,2.8502,2.8502,2.8598,2.9047,2.9342,0.0,0.0,0.0,0.0,0.0,0.0,0.0,0.0,0.0,0.0,0.0,0.0,0.0,0.0,0.0,0.0,0.0,0.0,0.0,0.0,0.0,0.0,0.0,0.0,0.0,0.0,0.0,0.0,0.0,0.0,4.2092,4.2092,4.2092,4.2092,4.2092,4.2092,4.2092,4.2092,4.2092,4.2092,4.2092,4.2092,4.2092,4.2092,4.2092,4.2092,4.2092,4.2092,4.2092,4.2092,4.2092,4.2092,4.2092,4.2092,4.2494,4.3061,0.0,0.0,0.0,0.0,0.0,0.0,0.0,0.0,0.0,0.0,0.0,0.0,0.0,0.0,0.0,0.0,0.0,0.0,0.0,0.0,0.0,0.0,0.0,0.0,0.0,2.6117,2.6622,2.7589,2.7661,2.7926,2.8382,2.8406,2.8454,2.8502,0.0,0.0,0.0,0.0,0.0,0.0,0.0,0.0,0.0,0.0,0.0,0.0,0.0,0.0,0.0,0.0,0.0,0.0,0.0,0.0,2.8502,2.8502,2.8502,2.8498,2.8538,2.9285,2.9938,0.0,0.0,0.0,0.0,0.0,0.0,0.0,0.0,0.0,0.0,0.0,0.0,0.0,0.0,0.0,0.0,0.0,0.0,0.0,0.0,0.0,0.0,0.0,0.0,0.0,0.0,0.0,0.0,0.0,0.0,4.2092,4.2092,4.2092,4.2092,4.2092,4.2092,4.2092,4.2092,4.2092,4.2092,4.2092,4.2092,4.2092,4.2092,4.2092,4.2092,4.2092,4.2092,4.2092,4.2092,4.2092,4.2092,4.2092,4.2494,4.3001,0.0,0.0,0.0,0.0,0.0,0.0,0.0,0.0,0.0,0.0,0.0,0.0,0.0,0.0,0.0,0.0,0.0,0.0,0.0,0.0,0.0,0.0,0.0,2.682,2.6604,2.6604,2.6964,2.7709,2.8022,2.8286,2.8502,2.8502,0.0,0.0,0.0,0.0,0.0,0.0,0.0,0.0,0.0,0.0,0.0,0.0,0.0,0.0,0.0,0.0,0.0,0.0,2.8502,2.8502,2.8502,2.8502,2.8502,2.8502,2.8502,2.8502,2.8502,2.9292,3.0058,0.0,0.0,0.0,0.0,0.0,0.0,0.0,0.0,0.0,0.0,0.0,0.0,0.0,0.0,0.0,0.0,0.0,0.0,0.0,0.0,0.0,0.0,0.0,0.0,0.0,0.0,0.0,0.0,0.0,0.0,4.2092,4.2092,4.2092,4.2092,4.2092,4.2092,4.2092,4.2092,4.2092,4.2092,4.2092,4.2092,4.2092,4.2092,4.2092,4.2092,4.2092,4.2092,4.2092,4.2092,4.2092,4.2092,4.2092,4.2494,4.3041,0.0,0.0,0.0,0.0,0.0,0.0,0.0,0.0,0.0,0.0,0.0,0.0,0.0,0.0,0.0,0.0,0.0,0.0,0.0,0.0,0.0,0.0,0.0,2.7229,2.7402,2.7253,2.7421,2.795,2.831,2.8502,2.8502,0.0,0.0,0.0,0.0,0.0,0.0,0.0,0.0,0.0,0.0,0.0,0.0,0.0,0.0,0.0,0.0,0.0,0.0,0.0,2.8502,2.8502,2.8502,2.8502,2.8502,2.8502,2.8502,2.8502,2.8502,2.9292,3.0107,0.0,0.0,0.0,0.0,0.0,0.0,0.0,0.0,0.0,0.0,0.0,0.0,0.0,0.0,0.0,0.0,0.0,0.0,0.0,0.0,0.0,0.0,0.0,0.0,0.0,0.0,0.0,0.0,0.0,0.0,0.0,4.2092,4.2092,4.2092,4.2092,4.2092,4.2092,4.2092,4.2092,4.2092,4.2092,4.2092,4.2092,4.2092,4.2092,4.2092,4.2092,4.2092,4.2092,4.2092,4.2092,4.2092,4.2092,4.2351,4.2809,0.0,0.0,0.0,0.0,0.0,0.0,0.0,0.0,0.0,0.0,0.0,0.0,0.0,0.0,0.0,0.0,0.0,0.0,0.0,0.0,0.0,0.0,0.0,2.795,2.8478,2.7974,2.7974,2.8502,2.8502,2.8502,2.8502,0.0,0.0,0.0,0.0,0.0,0.0,0.0,0.0,0.0,0.0,0.0,0.0,0.0,0.0,0.0,0.0,0.0,0.0,0.0,2.8502,2.8502,2.8502,2.8502,2.8522,2.8502,2.8502,2.8522,2.8502,2.9268,0.0,0.0,0.0,0.0,0.0,0.0,0.0,0.0,0.0,0.0,0.0,0.0,0.0,0.0,0.0,0.0,0.0,0.0,0.0,0.0,0.0,0.0,0.0,0.0,0.0,0.0,0.0,0.0,0.0,0.0,0.0,0.0,4.2092,4.2092,4.2092,4.2092,4.2092,4.2092,4.2092,4.2092,4.2092,4.2092,4.2092,4.2092,4.2092,4.2092,4.2092,4.2092,4.2092,4.2092,4.2092,4.2092,4.2092,4.2092,4.2092,4.2195,0.0,0.0,0.0,0.0,0.0,0.0,0.0,0.0,0.0,0.0,0.0,0.0,0.0,0.0,0.0,0.0,0.0,0.0,0.0,0.0,0.0,0.0,0.0,0.0,0.0,0.0,2.8334,2.8502,2.8502,2.8502,0.0,0.0,0.0,2.8502,0.0,0.0,0.0,0.0,0.0,0.0,0.0,0.0,0.0,0.0,0.0,0.0,0.0,0.0,0.0,0.0,0.0,0.0,2.8502,2.8763,2.9003,2.8599,2.8763,2.8979,2.8599,0.0,0.0,0.0,0.0,0.0,0.0,0.0,0.0,0.0,0.0,0.0,0.0,0.0,0.0,0.0,0.0,0.0,0.0,0.0,0.0,0.0,0.0,0.0,0.0,0.0,0.0,0.0,0.0,0.0,0.0,0.0,0.0,0.0,4.2092,4.2092,4.2092,4.2092,4.2092,4.2092,4.2092,4.2092,4.2092,4.2092,4.2092,4.2092,4.2092,4.2092,4.2092,4.2092,4.2092,4.2092,4.2092,4.2092,4.2092,4.2092,4.2092,4.2195,0.0,0.0,0.0,0.0,0.0,0.0,0.0,0.0,0.0,0.0,0.0,0.0,0.0,0.0,0.0,0.0,0.0,0.0,0.0,0.0,0.0,0.0,0.0,0.0,0.0,2.8334,2.8502,0.0,0.0,0.0,0.0,0.0,0.0,2.8502,0.0,0.0,0.0,0.0,0.0,0.0,0.0,0.0,0.0,0.0,0.0,0.0,0.0,0.0,0.0,0.0,0.0,0.0,0.0,0.0,2.8931,2.8575,2.8739,2.8907,2.8595,0.0,0.0,0.0,0.0,0.0,0.0,0.0,0.0,0.0,0.0,0.0,0.0,0.0,0.0,0.0,0.0,0.0,0.0,0.0,0.0,0.0,0.0,0.0,0.0,0.0,0.0,0.0,0.0,0.0,0.0,0.0,0.0,0.0,4.2092,4.2092,4.2092,4.2092,4.2092,4.2092,4.2092,4.2092,4.2092,4.2092,4.2092,4.2092,4.2092,4.2092,4.2092,4.2092,4.2092,4.2092,4.2092,4.2092,4.2092,4.2092,4.2092,4.2195,0.0,0.0,0.0,0.0,0.0,0.0,0.0,0.0,0.0,0.0,0.0,0.0,0.0,0.0,0.0,0.0,0.0,0.0,0.0,0.0,0.0,0.0,0.0,0.0,0.0,0.0,0.0,0.0,0.0,0.0,0.0,0.0,2.8502,2.8502,0.0,2.8502,0.0,0.0,0.0,0.0,0.0,0.0,0.0,0.0,0.0,0.0,0.0,0.0,0.0,0.0,0.0,0.0,2.8502,2.857,2.8643,2.8595,2.8619,2.8667,0.0,0.0,0.0,0.0,0.0,0.0,0.0,0.0,0.0,0.0,0.0,0.0,0.0,0.0,0.0,0.0,0.0,0.0,0.0,0.0,0.0,0.0,0.0,0.0,0.0,0.0,0.0,0.0,0.0,0.0,0.0,0.0,0.0,0.0,4.2092,4.2092,4.2092,4.2092,4.2092,0.0,4.2092,4.2092,4.2092,4.2092,4.2092,4.2092,4.2092,4.2092,4.2092,4.2092,4.2092,4.2092,4.2092,4.2092,4.2092,4.2092,4.2092,4.2175,0.0,0.0,0.0,0.0,0.0,0.0,0.0,0.0,0.0,0.0,0.0,0.0,0.0,0.0,0.0,0.0,0.0,0.0,0.0,0.0,0.0,0.0,0.0,0.0,0.0,0.0,0.0,0.0,0.0,0.0,0.0,0.0,0.0,2.8502,0.0,2.8502,0.0,0.0,0.0,0.0,0.0,0.0,0.0,0.0,0.0,0.0,0.0,0.0,0.0,0.0,0.0,0.0,2.8502,2.9076,2.9677,2.9244,2.9436,2.9866,0.0,0.0,0.0,0.0,0.0,0.0,0.0,0.0,0.0,0.0,0.0,0.0,0.0,0.0,0.0,0.0,0.0,0.0,0.0,0.0,0.0,0.0,0.0,0.0,0.0,0.0,0.0,0.0,0.0,0.0,0.0,0.0,0.0,4.2092,4.2092,4.2092,4.2092,4.2092,4.2092,0.0,4.2092,4.2092,4.2092,4.2092,4.2092,4.2092,4.2092,4.2092,4.2092,4.2092,4.2092,4.2092,4.2092,4.2092,4.2092,4.2092,4.2092,4.2113,0.0,0.0,0.0,0.0,0.0,0.0,0.0,0.0,0.0,0.0,0.0,0.0,0.0,0.0,0.0,0.0,0.0,0.0,0.0,0.0,0.0,0.0,0.0,0.0,0.0,0.0,0.0,0.0,0.0,0.0,0.0,0.0,0.0,2.8502,0.0,2.8502,0.0,0.0,0.0,0.0,0.0,0.0,0.0,0.0,0.0,0.0,0.0,0.0,0.0,0.0,0.0,0.0,0.0,0.0,2.9653,2.9388,2.9677,3.0179,0.0,0.0,0.0,0.0,0.0,0.0,0.0,0.0,0.0,0.0,0.0,0.0,0.0,0.0,0.0,0.0,0.0,0.0,0.0,0.0,0.0,0.0,0.0,0.0,0.0,0.0,0.0,0.0,0.0,0.0,0.0,4.2092,4.2092,4.2092,4.2092,4.2092,4.2092,4.2092,4.2092,4.2092,4.2092,4.2092,4.2092,4.2092,4.2092,4.2092,4.2092,4.2092,4.2092,4.2092,4.2092,4.2092,4.2092,4.2092,4.2092,4.2092,4.2092,4.2092,0.0,0.0,0.0,0.0,0.0,0.0,0.0,0.0,0.0,0.0,0.0,0.0,0.0,0.0,0.0,0.0,0.0,0.0,0.0,0.0,0.0,0.0,0.0,0.0,0.0,0.0,0.0,0.0,0.0,0.0,0.0,0.0,0.0,2.8502,0.0,0.0,0.0,0.0,0.0,0.0,0.0,0.0,0.0,0.0,0.0,0.0,0.0,0.0,0.0,0.0,0.0,0.0,0.0,0.0,2.9436,2.9436,2.9749,3.0179,0.0,0.0,0.0,0.0,0.0,0.0,0.0,0.0,0.0,0.0,0.0,0.0,0.0,0.0,0.0,0.0,0.0,0.0,0.0,0.0,0.0,0.0,0.0,0.0,0.0,0.0,0.0,0.0,0.0,0.0,4.2092,4.2092,4.2034,4.1918,4.2034,4.2034,4.1918,4.2034,4.2092,4.2092,4.2092,4.2092,4.2092,4.2092,4.2092,4.2092,4.2092,4.2092,4.2092,4.2092,4.2092,4.2092,4.2092,4.2092,4.2092,4.2092,4.2092,4.2092,0.0,0.0,0.0,0.0,0.0,0.0,0.0,0.0,0.0,0.0,0.0,0.0,0.0,0.0,0.0,0.0,0.0,0.0,0.0,0.0,0.0,0.0,0.0,0.0,0.0,0.0,0.0,0.0,0.0,0.0,0.0,0.0,0.0,0.0,0.0,0.0,0.0,0.0,0.0,0.0,0.0,0.0,0.0,0.0,0.0,0.0,0.0,0.0,0.0,0.0,0.0,0.0,0.0,0.0,0.0,0.0,3.0037,0.0,0.0,0.0,0.0,0.0,0.0,0.0,0.0,0.0,0.0,0.0,0.0,0.0,0.0,0.0,0.0,0.0,0.0,0.0,0.0,0.0,0.0,0.0,0.0,0.0,0.0,0.0,0.0,0.0,0.0,0.0,4.2092,4.2092,4.1831,4.125,4.1802,4.1831,4.125,4.1802,4.2092,4.2092,4.2092,4.2092,4.2092,4.2092,4.2092,4.2092,4.2092,4.2092,4.2092,4.2092,4.2092,4.2092,4.2092,4.2092,4.2092,4.2092,4.2092,4.2092,0.0,0.0,0.0,0.0,0.0,0.0,0.0,0.0,0.0,0.0,0.0,0.0,0.0,0.0,0.0,0.0,0.0,0.0,0.0,0.0,0.0,0.0,0.0,0.0,0.0,0.0,0.0,0.0,0.0,0.0,0.0,2.8502,2.8502,0.0,0.0,0.0,0.0,0.0,0.0,0.0,0.0,0.0,0.0,0.0,0.0,0.0,0.0,0.0,0.0,0.0,0.0,0.0,0.0,0.0,0.0,0.0,0.0,0.0,0.0,0.0,0.0,0.0,0.0,0.0,0.0,0.0,0.0,0.0,0.0,0.0,0.0,0.0,0.0,0.0,0.0,0.0,0.0,0.0,0.0,0.0,0.0,0.0,0.0,0.0,0.0,0.0,0.0,4.2092,4.2092,4.2092,4.1947,4.1657,4.1947,4.1947,4.1657,4.1947,4.2092,4.2092,4.2092,4.2092,4.2092,4.2092,4.2092,4.2092,4.2092,4.2092,4.2092,4.2092,4.2092,4.2092,4.2092,4.2092,4.2092,4.2092,4.2092,4.2092,0.0,0.0,0.0,0.0,0.0,0.0,0.0,0.0,0.0,0.0,0.0,0.0,0.0,0.0,0.0,0.0,0.0,0.0,0.0,0.0,0.0,0.0,0.0,0.0,0.0,0.0,0.0,0.0,0.0,0.0,2.8502,2.8502,2.8502,0.0,2.8502,0.0,0.0,0.0,0.0,0.0,0.0,0.0,0.0,0.0,0.0,0.0,0.0,0.0,0.0,0.0,0.0,0.0,0.0,0.0,0.0,0.0,0.0,0.0,0.0,0.0,0.0,0.0,0.0,0.0,0.0,0.0,0.0,0.0,0.0,0.0,0.0,0.0,0.0,0.0,0.0,0.0,0.0,0.0,0.0,0.0,0.0,0.0,0.0,0.0,0.0,0.0,0.0,4.2092,4.2092,4.2092,4.2005,4.186,4.2005,4.2005,4.1831,4.2005,4.2092,4.2092,4.2092,4.2092,4.2092,4.2092,4.2092,4.2092,4.2092,4.2092,4.2092,4.2092,4.2092,4.2092,4.2092,4.2092,4.2092,4.2092,4.2092,4.2092,0.0,0.0,0.0,0.0,0.0,0.0,0.0,0.0,0.0,0.0,0.0,0.0,0.0,0.0,0.0,0.0,0.0,0.0,0.0,0.0,0.0,0.0,0.0,0.0,0.0,0.0,0.0,0.0,0.0,0.0,2.8502,2.8502,2.8502,2.8502,2.8502,2.8502,2.8502,0.0,0.0,0.0,0.0,0.0,0.0,0.0,0.0,0.0,0.0,0.0,0.0,0.0,0.0,0.0,0.0,0.0,0.0,0.0,0.0,0.0,0.0,0.0,0.0,0.0,0.0,0.0,0.0,0.0,0.0,0.0,0.0,0.0,0.0,0.0,0.0,0.0,0.0,0.0,0.0,0.0,0.0,0.0,0.0,0.0,0.0,0.0,0.0,0.0,0.0,4.2092,4.2092,4.2092,4.1802,4.1163,4.1773,4.1802,4.1163,4.1773,4.2092,4.2092,4.2092,4.2092,4.2092,4.2092,4.2092,4.2092,4.2092,4.2092,4.2092,4.2092,4.2092,4.2092,4.2092,4.2092,4.2092,4.2092,4.2092,4.2092,0.0,0.0,0.0,0.0,0.0,0.0,0.0,0.0,0.0,0.0,0.0,0.0,0.0,0.0,0.0,0.0,0.0,0.0,0.0,0.0,0.0,0.0,0.0,0.0,0.0,0.0,0.0,0.0,0.0,2.8502,2.8502,2.8502,2.8502,2.8502,2.8502,2.8502,2.8502,2.8502,0.0,0.0,0.0,0.0,0.0,0.0,0.0,0.0,0.0,0.0,0.0,0.0,0.0,0.0,0.0,0.0,0.0,0.0,0.0,0.0,0.0,0.0,0.0,0.0,0.0,0.0,0.0,0.0,0.0,0.0,0.0,0.0,0.0,0.0,0.0,0.0,0.0,0.0,0.0,0.0,0.0,0.0,0.0,0.0,0.0,0.0,0.0,0.0,0.0,0.0,4.2092,4.2092,4.1773,4.1105,4.1744,4.1976,4.1744,4.1976,4.2092,4.2092,4.2092,4.2092,4.2092,4.2092,4.2092,4.2092,4.2092,4.2092,4.2092,4.2092,4.2092,4.2092,4.2092,4.2092,4.2092,4.2092,4.2092,4.2092,0.0,0.0,0.0,0.0,0.0,0.0,0.0,0.0,0.0,0.0,0.0,0.0,0.0,0.0,0.0,0.0,0.0,0.0,0.0,0.0,0.0,0.0,0.0,0.0,0.0,0.0,0.0,0.0,0.0,0.0,0.0,0.0,2.8502,2.8502,2.8502,0.0,0.0,0.0,0.0,2.8502,0.0,0.0,2.8502,0.0,0.0,0.0,0.0,0.0,0.0,0.0,0.0,0.0,0.0,0.0,0.0,0.0,0.0,0.0,0.0,0.0,0.0,0.0,0.0,0.0,0.0,0.0,0.0,0.0,0.0,0.0,0.0,0.0,0.0,0.0,0.0,0.0,0.0,0.0,0.0,0.0,0.0,0.0,0.0,0.0,0.0,0.0,0.0,0.0,4.2092,4.2092,4.1889,4.1453,4.186,4.1976,4.1773,4.1773,4.1773,4.1773,4.1773,4.1889,4.2092,4.2092,4.2092,4.2092,4.2092,4.2092,4.2092,4.2092,4.2092,4.2092,4.2092,4.2092,4.2092,4.2092,4.2092,4.2092,0.0,0.0,0.0,0.0,0.0,0.0,0.0,0.0,0.0,0.0,0.0,0.0,0.0,0.0,0.0,0.0,0.0,0.0,0.0,0.0,0.0,0.0,0.0,0.0,0.0,0.0,0.0,0.0,0.0,0.0,0.0,0.0,2.8502,0.0,2.8502,2.8502,2.8502,0.0,2.8502,2.8502,0.0,2.8502,2.8502,0.0,0.0,0.0,2.8502,2.8502,0.0,0.0,0.0,0.0,0.0,0.0,0.0,0.0,0.0,0.0,0.0,0.0,0.0,0.0,0.0,0.0,0.0,0.0,0.0,0.0,0.0,0.0,0.0,0.0,0.0,0.0,0.0,0.0,0.0,0.0,0.0,0.0,0.0,0.0,0.0,0.0,0.0,0.0,0.0,4.2092,4.2092,4.2063,4.2063,4.2092,4.2063,4.1744,4.1105,4.1076,4.1076,4.1076,4.1076,4.1424,4.2063,4.2092,4.2092,4.2092,4.2092,4.2092,4.2092,4.2092,4.2092,4.2092,4.2092,4.2092,4.2092,4.2092,4.2092,4.2092,0.0,0.0,0.0,0.0,0.0,0.0,0.0,0.0,0.0,0.0,0.0,0.0,0.0,0.0,0.0,0.0,0.0,0.0,0.0,0.0,0.0,0.0,0.0,0.0,0.0,0.0,0.0,0.0,0.0,0.0,0.0,0.0,0.0,0.0,2.8502,2.8502,2.8502,2.8502,0.0,0.0,2.8502,2.8502,0.0,0.0,0.0,0.0,0.0,2.8502,0.0,0.0,2.8859,2.9268,0.0,0.0,0.0,0.0,0.0,0.0,3.3334,0.0,0.0,0.0,0.0,0.0,0.0,0.0,0.0,0.0,0.0,0.0,0.0,0.0,0.0,0.0,0.0,0.0,0.0,0.0,0.0,0.0,0.0,0.0,0.0,0.0,0.0,0.0,4.2092,4.2092,4.2092,4.1628,4.1599,4.2092,4.1163,4.0786,4.1105,4.0612,4.0379,4.0379,4.0873,4.1192,4.1395,4.1889,4.2092,4.2092,4.2092,4.2092,4.2092,4.2092,4.2092,4.2092,4.2092,4.2092,4.2092,4.2092,4.2092,4.2092,0.0,0.0,0.0,0.0,0.0,0.0,0.0,0.0,0.0,0.0,0.0,0.0,0.0,0.0,0.0,0.0,0.0,0.0,0.0,0.0,2.6747,2.7747,2.779,2.8012,0.0,0.0,0.0,0.0,0.0,0.0,0.0,0.0,0.0,0.0,0.0,0.0,0.0,0.0,0.0,0.0,2.8502,0.0,0.0,2.8502,2.8502,0.0,0.0,0.0,2.9172,2.9172,2.9508,0.0,0.0,0.0,0.0,0.0,0.0,0.0,0.0,0.0,0.0,0.0,0.0,0.0,0.0,4.226,0.0,0.0,0.0,0.0,0.0,0.0,0.0,0.0,0.0,0.0,0.0,0.0,0.0,0.0,0.0,0.0,0.0,0.0,0.0,4.2092,4.2092,4.2092,4.2092,4.1715,4.157,4.1686,4.0931,4.0437,4.0321,3.9915,3.9712,3.9741,4.0379,4.0815,4.1105,4.1773,4.2092,4.2092,4.2092,4.2092,4.2092,4.2092,4.2092,4.2092,4.2092,4.2092,4.2092,4.2092,4.2092,4.2092,0.0,0.0,0.0,0.0,0.0,0.0,0.0,0.0,0.0,0.0,0.0,0.0,0.0,0.0,0.0,0.0,0.0,0.0,0.0,0.0,2.7368,2.7941,2.7921,2.8082,2.8502,0.0,0.0,0.0,0.0,0.0,0.0,0.0,0.0,0.0,0.0,0.0,0.0,0.0,0.0,2.8502,2.8502,2.8546,0.0,0.0,2.8643,0.0,2.922,2.9697,3.0107,3.0179,3.0516,0.0,0.0,0.0,0.0,0.0,3.1223,0.0,0.0,0.0,0.0,0.0,0.0,0.0,4.2676,4.2905,4.2876,0.0,0.0,0.0,0.0,0.0,0.0,0.0,0.0,0.0,0.0,0.0,0.0,0.0,0.0,0.0,0.0,4.2557,4.2237,4.2295,4.2295,4.2237,4.2121,4.215,4.186,4.1105,4.1018,4.0408,3.9218,3.9131,3.9102,3.9102,3.9712,4.035,4.1018,4.1686,4.2034,4.2092,4.2092,4.2092,4.2092,4.2092,4.2092,4.2092,4.2092,4.2092,4.2092,4.2092,4.215,4.2208,0.0,0.0,0.0,0.0,0.0,0.0,0.0,0.0,0.0,0.0,0.0,0.0,0.0,0.0,0.0,0.0,0.0,0.0,0.0,0.0,2.7165,2.8319,2.8062,2.8082,2.8502,2.8502,2.8502,0.0,0.0,0.0,0.0,0.0,0.0,0.0,0.0,0.0,0.0,0.0,0.0,2.8502,2.8502,0.0,2.9148,2.9148,2.9412,2.9797,2.9914,2.9989,3.0179,0.0,3.0804,3.0853,0.0,0.0,0.0,0.0,0.0,0.0,0.0,0.0,0.0,0.0,0.0,0.0,4.21,4.2266,4.2121,0.0,0.0,0.0,0.0,0.0,0.0,0.0,0.0,0.0,0.0,0.0,0.0,0.0,0.0,0.0,0.0,4.3195,4.305,4.3573,4.3631,4.3166,4.215,4.2557,4.2295,4.1134,4.0583,3.9944,3.9218,3.8667,3.8405,3.8405,3.9073,3.9683,4.0321,4.0989,4.1599,4.2092,4.2092,4.2092,4.2092,4.2092,4.2092,4.2092,4.2092,4.2092,4.2092,4.2092,4.2411,4.2818,0.0,0.0,0.0,0.0,0.0,0.0,0.0,0.0,0.0,0.0,0.0,0.0,0.0,0.0,0.0,0.0,0.0,0.0,0.0,0.0,0.0,2.747,2.776,2.7982,2.8203,2.8403,2.8502,2.8502,0.0,0.0,0.0,0.0,0.0,0.0,0.0,0.0,0.0,0.0,2.8667,2.8907,2.8907,0.0,2.934,2.9581,2.989,3.0155,3.0395,3.066,3.0925,3.1214,3.1647,0.0,0.0,3.1454,3.2123,0.0,3.2835,3.4137,0.0,0.0,0.0,4.1435,0.0,0.0,0.0,4.2092,4.2005,4.1657,0.0,0.0,0.0,0.0,0.0,0.0,0.0,0.0,0.0,0.0,0.0,0.0,0.0,0.0,0.0,4.3863,4.3652,4.3979,4.3398,4.305,4.305,4.2731,4.2092,4.1134,4.0437,3.9654,3.8725,3.8376,3.8376,3.8725,3.9334,3.9973,4.0612,4.1279,4.1773,4.2092,4.2092,4.2092,4.2092,4.2092,4.2092,4.2092,4.2092,4.2092,4.2121,4.244,4.2731,4.3071,0.0,0.0,0.0,0.0,0.0,0.0,0.0,0.0,0.0,0.0,0.0,0.0,0.0,0.0,0.0,0.0,0.0,0.0,0.0,0.0,0.0,0.0,2.7516,2.7941,2.8002,2.8343,2.8502,2.8502,2.8502,0.0,0.0,0.0,0.0,0.0,0.0,0.0,0.0,0.0,0.0,2.9316,0.0,2.9605,2.9673,3.0107,3.0323,3.0468,3.0901,3.1334,3.1717,3.1815,0.0,3.2923,3.1743,3.22,0.0,0.0,0.0,0.0,0.0,0.0,0.0,0.0,0.0,4.125,0.0,0.0,0.0,4.1918,0.0,0.0,0.0,0.0,0.0,0.0,0.0,0.0,0.0,0.0,0.0,0.0,0.0,0.0,0.0,4.4669,4.4298,4.4182,4.334,4.3166,4.3972,4.3021,4.2034,4.1134,4.0437,3.9479,3.8202,3.8202,3.8551,3.9218,3.9683,4.035,4.1105,4.1657,4.1976,4.2092,4.2092,4.2092,4.2092,4.2092,4.2092,4.2092,4.2092,4.2092,4.2179,4.276,4.3079,4.3282,0.0,0.0,0.0,0.0,0.0,0.0,0.0,0.0,0.0,0.0,0.0,0.0,0.0,0.0,0.0,0.0,0.0,0.0,2.6466,0.0,0.0,0.0,0.0,0.0,2.8419,2.8483,2.8502,2.8502,2.8502,2.8502,0.0,0.0,0.0,0.0,2.8502,0.0,0.0,0.0,2.9244,0.0,3.0347,3.0708,0.0,3.078,3.1093,3.1548,3.1597,3.1669,3.1767,0.0,3.2491,3.2635,0.0,3.2827,0.0,0.0,0.0,0.0,0.0,0.0,0.0,0.0,4.1163,0.0,0.0,0.0,4.1918,4.1337,0.0,0.0,0.0,0.0,0.0,0.0,0.0,0.0,0.0,0.0,0.0,0.0,0.0,0.0,0.0,0.0,4.5453,4.4843,4.522,4.5046,4.4037,4.3863,4.2963,4.1163,4.0437,3.9479,3.8202,3.8202,3.8551,3.9189,3.9276,3.9944,4.1105,4.1163,4.1541,4.2092,4.2092,4.2092,4.2092,4.2092,4.2092,4.2092,4.2092,4.2092,4.2179,4.276,4.3369,4.3979,0.0,0.0,0.0,0.0,0.0,0.0,0.0,0.0,0.0,0.0,0.0,0.0,0.0,0.0,0.0,0.0,0.0,0.0,0.0,0.0,0.0,0.0,0.0,0.0,0.0,2.8383,2.8502,2.8502,2.8502,2.8502,2.8502,0.0,0.0,0.0,2.8835,0.0,2.9003,0.0,0.0,0.0,0.0,0.0,0.0,3.1358,3.15,3.1717,3.1717,3.1717,3.1719,0.0,3.2465,0.0,0.0,0.0,0.0,0.0,0.0,0.0,0.0,0.0,0.0,0.0,0.0,0.0,0.0,0.0,4.1802,0.0,0.0,0.0,0.0,0.0,0.0,0.0,0.0,0.0,0.0,0.0,0.0,0.0,0.0,0.0,0.0,0.0,0.0,0.0,0.0,4.432,4.4523,4.3485,4.2528,4.1715,4.0641,3.9683,3.8783,3.9131,3.9828,4.0873,4.0873,4.1337,4.2179,4.1831,4.1831,4.2092,4.2092,4.2092,4.2092,4.2092,4.2092,4.2092,4.2092,4.2092,4.2208,4.3195,4.3768,4.4124,0.0,0.0,0.0,0.0,0.0,0.0,0.0,0.0,0.0,0.0,0.0,0.0,2.6278,2.6278,0.0,0.0,0.0,2.6037,0.0,0.0,2.6507,0.0,0.0,0.0,0.0,0.0,2.8502,2.8502,2.8502,2.8595,2.8715,0.0,0.0,0.0,0.0,2.9292,2.934,0.0,0.0,3.0901,3.1045,3.1334,3.1717,3.1717,3.1717,3.1717,3.1717,3.1717,3.1741,3.1863,3.2441,0.0,3.2345,0.0,0.0,0.0,0.0,0.0,3.9518,0.0,0.0,0.0,0.0,0.0,0.0,0.0,0.0,0.0,0.0,0.0,0.0,0.0,0.0,0.0,0.0,0.0,0.0,0.0,0.0,0.0,0.0,0.0,0.0,0.0,0.0,0.0,0.0,0.0,4.461,4.334,4.2528,4.2353,4.125,4.035,3.9741,3.9973,4.067,4.1831,4.1831,4.215,4.2731,4.2295,4.2092,4.2092,4.2092,4.2092,4.2092,4.2092,4.2092,4.2092,4.2092,4.2208,4.2469,4.3573,4.3979,4.4182,0.0,2.2264,0.0,0.0,0.0,0.0,0.0,0.0,0.0,0.0,0.0,0.0,0.0,0.0,0.0,0.0,0.0,2.6387,2.5928,0.0,2.6507,0.0,0.0,0.0,0.0,0.0,0.0,0.0,0.0,2.8763,2.9268,2.8739,0.0,0.0,0.0,2.9292,2.9364,3.0443,3.0877,3.0949,3.1476,3.1693,3.1717,0.0,3.1717,3.1717,3.1717,0.0,0.0,3.2298,3.2491,0.0,0.0,0.0,0.0,0.0,0.0,0.0,0.0,0.0,0.0,0.0,0.0,0.0,0.0,0.0,4.2984,0.0,0.0,0.0,0.0,0.0,0.0,0.0,0.0,0.0,0.0,0.0,0.0,0.0,0.0,0.0,0.0,0.0,0.0,0.0,0.0,0.0,4.4059,4.395,4.3631,4.2992,4.2353,4.1715,4.1047,4.0408,4.0437,4.1134,4.1134,4.1482,4.2121,4.2121,4.2092,4.2092,4.2092,4.2092,4.2092,4.2092,4.2092,4.2092,4.2092,4.244,4.305,4.3768,4.3979,4.4182,0.0,0.0,0.0,0.0,0.0,0.0,0.0,2.3777,0.0,0.0,0.0,0.0,0.0,0.0,2.704,0.0,0.0,2.6868,2.6387,2.6778,0.0,0.0,0.0,2.8252,0.0,0.0,0.0,0.0,0.0,0.0,2.9821,2.9629,2.9673,0.0,0.0,3.0371,0.0,0.0,0.0,0.0,0.0,3.1912,3.22,0.0,0.0,3.1717,3.1717,3.1717,0.0,3.1912,3.2224,3.2466,3.2297,3.2609,3.3086,3.3393,3.4115,0.0,0.0,0.0,3.8234,4.0485,0.0,0.0,0.0,0.0,0.0,0.0,0.0,0.0,0.0,0.0,4.3884,4.3427,0.0,0.0,0.0,0.0,0.0,0.0,0.0,0.0,0.0,0.0,0.0,0.0,0.0,0.0,0.0,4.3108,4.2847,4.1773,4.1976,4.1773,4.1105,4.1308,4.1744,4.2353,4.2353,4.2469,4.2673,4.2266,4.2092,4.2092,4.2092,4.2092,4.2092,4.2092,4.2092,4.2092,4.2092,4.2469,4.3079,4.3747,4.4262,4.4858,2.2126,0.0,0.0,0.0,0.0,0.0,0.0,0.0,0.0,0.0,2.5794,0.0,2.6145,0.0,2.7246,0.0,2.7276,2.7348,2.6889,2.7129,0.0,2.6813,2.7864,0.0,0.0,0.0,0.0,0.0,0.0,3.0203,3.0395,3.0203,3.0203,0.0,0.0,0.0,0.0,0.0,3.1791,0.0,0.0,3.2178,0.0,0.0,3.1815,3.196,0.0,3.1717,3.1717,3.1717,3.1936,3.2176,3.1791,3.2176,3.2749,3.2901,3.338,3.4303,3.6135,3.6577,0.0,0.0,3.9947,0.0,0.0,0.0,0.0,0.0,0.0,0.0,0.0,0.0,0.0,4.3768,4.3834,0.0,0.0,0.0,0.0,0.0,0.0,0.0,0.0,0.0,0.0,0.0,0.0,0.0,0.0,0.0,4.2615,4.1802,4.2179,4.2324,4.2121,4.2121,4.2295,4.2673,4.2673,4.2673,4.2673,4.2266,4.2092,4.2092,4.2092,4.2092,4.2092,4.2092,4.2092,4.2121,4.2324,4.2789,4.3398,4.3834,4.4531,4.5441,0.0,0.0,0.0,0.0,2.3241,0.0,0.0,0.0,2.5331,0.0,2.609,2.6408,2.7939,2.7887,2.78,2.7973,2.8065,0.0,2.7413,2.7413,0.0,0.0,2.7811,2.8044,2.7926,0.0,0.0,0.0,0.0,0.0,3.0973,3.0443,3.0443,0.0,3.0973,0.0,3.0973,3.1548,3.208,3.2539,3.2515,3.2515,3.2491,3.1912,0.0,3.2418,3.1887,3.1717,3.1717,3.1717,3.1717,3.1717,3.1717,3.1717,3.1717,3.1717,3.1739,3.2308,3.4846,3.6178,3.7325,3.9271,0.0,0.0,0.0,0.0,4.3158,0.0,0.0,0.0,0.0,0.0,0.0,4.334,4.3565,0.0,0.0,0.0,0.0,0.0,0.0,0.0,0.0,0.0,0.0,0.0,0.0,0.0,0.0,0.0,4.2992,4.2847,4.2963,4.3333,4.3892,4.2702,4.2092,4.2092,4.2092,4.2092,4.2092,4.2092,4.2092,4.2092,4.2092,4.2092,4.2092,4.2092,4.2121,4.2208,4.276,4.3449,4.4059,4.4066,4.4894,4.5933,2.2913,2.3151,2.3431,0.0,2.3415,2.314,0.0,0.0,0.0,0.0,2.6778,2.7415,2.7041,2.854,2.9095,2.7946,2.8921,0.0,0.0,0.0,0.0,2.737,2.8791,2.928,2.8495,3.0599,0.0,3.1069,0.0,0.0,3.2082,3.1526,3.1358,3.1502,0.0,0.0,3.1573,3.2489,3.297,3.3044,3.2659,3.2731,0.0,0.0,3.2032,3.2418,3.1887,3.1717,3.1717,3.1717,3.1717,3.1717,3.1717,3.1717,3.1717,3.1717,3.2069,3.2748,3.4241,3.5432,3.666,3.8456,3.9282,3.9857,0.0,0.0,0.0,0.0,0.0,0.0,0.0,0.0,0.0,0.0,0.0,0.0,0.0,0.0,0.0,0.0,0.0,0.0,0.0,0.0,0.0,0.0,0.0,0.0,0.0,0.0,0.0,4.0902,4.2731,4.3369,4.2586,4.2266,4.2092,4.2092,4.2092,4.2092,4.2092,4.2092,4.2092,4.2092,4.2092,4.2092,4.2092,4.2092,4.2353,4.2789,4.2934,4.366,4.4727,4.5249,4.5939,4.6712,2.3688,0.0,0.0,2.4672,0.0,0.0,2.4205,0.0,0.0,2.6241,2.6581,0.0,2.7041,2.7985,2.8512,2.8291,2.9109,0.0,0.0,0.0,0.0,2.8584,2.942,2.9736,2.9372,3.0954,0.0,3.1717,0.0,0.0,3.2491,3.196,3.1717,3.1741,0.0,3.2322,0.0,3.3164,3.3621,3.3597,3.3285,0.0,0.0,3.2465,3.2248,3.2418,3.1887,3.1717,3.1717,3.1717,3.1717,3.1717,3.1717,3.1717,3.1717,3.1717,3.1981,3.2481,3.3462,3.463,3.5952,3.7618,3.8626,3.9509,4.0699,4.1541,4.2179,0.0,0.0,0.0,0.0,0.0,0.0,0.0,0.0,0.0,0.0,0.0,0.0,0.0,0.0,0.0,0.0,0.0,0.0,0.0,0.0,0.0,0.0,0.0,0.0,4.0176,4.2644,4.3515,4.2498,4.2498,4.2353,4.2092,4.2092,4.2092,4.2092,4.2092,4.2092,4.2092,4.2092,4.2237,4.2498,4.2498,4.2847,4.3456,4.3739,4.4465,4.5395,4.5772,4.6314,4.6945,0.0,0.0,0.0,0.0,0.0,0.0,0.0,2.5138,0.0,2.7354,0.0,2.5868,2.7696,2.7379,2.7563,0.0,0.0,2.9554,3.0248,2.9904,2.9833,3.0171,2.9867,2.9897,3.0381,3.0866,0.0,0.0,0.0,0.0,3.2683,3.208,3.1839,0.0,0.0,0.0,0.0,3.3669,3.403,0.0,3.403,3.3982,3.391,3.2971,3.2611,3.2539,3.2008,3.1765,3.1717,3.1717,3.1717,3.1717,3.1717,3.1717,3.1695,3.1767,3.1809,3.2072,3.3111,3.4292,3.5615,3.7206,3.8465,3.977,4.1453,4.1918,4.2121,4.2644,4.2731,0.0,0.0,0.0,0.0,0.0,0.0,0.0,0.0,0.0,0.0,0.0,0.0,0.0,0.0,0.0,0.0,0.0,0.0,0.0,0.0,0.0,0.0,4.0176,4.2469,0.0,4.2992,0.0,4.2644,4.2208,4.2121,4.2092,4.2092,4.2092,4.215,4.2208,4.2208,4.2557,4.3137,4.3137,4.3515,4.4182,4.4785,4.5395,4.5917,4.5917,4.638,4.7011,0.0,0.0,0.0,0.0,0.0,2.6139,2.6856,2.6221,2.6087,2.7162,2.7281,0.0,2.8745,2.9367,2.9829,3.0113,3.0756,0.0,0.0,0.0,0.0,3.0222,3.0477,3.0903,3.1435,3.1944,3.2687,0.0,3.3212,3.326,3.3717,3.2803,3.2609,0.0,0.0,0.0,3.4366,3.4102,0.0,3.4631,3.4198,3.3982,3.3958,3.338,3.314,3.3092,3.2539,3.208,3.1717,3.1717,3.1717,3.1717,3.1717,3.1717,3.1789,3.2226,3.2457,3.2962,3.4958,3.6008,3.6982,3.8686,3.9538,4.0031,4.0379,4.0873,4.1308,4.1395,4.1424,4.1337,4.0989,0.0,0.0,0.0,0.0,0.0,0.0,0.0,0.0,0.0,0.0,0.0,0.0,0.0,0.0,0.0,0.0,0.0,0.0,0.0,0.0,0.0,4.1599,0.0,0.0,0.0,4.244,4.2839,4.2324,4.2092,4.2092,4.2092,4.2353,4.2847,4.2847,4.3224,4.3805,4.3805,4.4182,4.4814,4.5482,4.5801,4.5917,4.5917,4.666,4.7713,0.0,0.0,0.0,0.0,0.0,0.0,0.0,2.7041,0.0,2.7416,2.7473,2.7639,2.8015,2.9278,3.0093,3.0093,3.0858,3.1452,3.1647,3.1171,3.1048,3.1321,3.133,0.0,3.2512,0.0,3.2972,3.3982,3.326,3.3284,3.3958,3.2972,0.0,3.3308,0.0,3.4078,0.0,0.0,0.0,3.4775,3.4535,3.439,3.4366,3.3862,3.3645,3.3621,3.3092,3.2754,3.2441,3.1887,3.1887,3.2128,3.2128,3.2321,3.2585,3.2827,3.2958,3.3402,3.5193,3.625,3.7253,3.9191,4.0158,4.0699,4.1047,4.1395,4.1628,4.1628,4.1337,4.1105,4.1105,4.1105,0.0,0.0,0.0,0.0,0.0,0.0,0.0,0.0,0.0,0.0,0.0,0.0,0.0,0.0,0.0,0.0,0.0,0.0,0.0,0.0,0.0,0.0,0.0,0.0,0.0,4.3536,4.3224,4.3079,4.3079,4.3079,4.3224,4.3515,4.3515,4.3863,4.4472,4.4843,4.5162,4.5453,4.575,4.5917,4.5917,4.5917,4.6535,4.7443,0.0,2.6582,0.0,0.0,2.7206,0.0,0.0,2.772,2.7891,2.7754,2.7492,2.7424,2.7627,2.9012,3.0046,3.0341,3.1066,3.1752,3.2368,3.1677,3.1576,3.2381,3.2048,3.2391,3.3433,3.2829,3.2972,0.0,3.3116,3.3165,0.0,3.3237,0.0,0.0,0.0,0.0,0.0,0.0,3.4799,3.4799,3.4799,3.4799,3.4751,3.4342,3.415,3.4126,3.3621,3.3452,3.3308,3.2369,3.2321,3.2659,3.2659,3.2947,3.3308,3.3428,3.338,3.3656,3.5316,3.6243,3.7273,3.9452,4.0591,4.1331,4.1955,4.2092,4.2092,4.2092,4.157,4.1134,4.1279,4.1512,0.0,0.0,0.0,0.0,0.0,0.0,0.0,0.0,0.0,0.0,0.0,0.0,0.0,0.0,0.0,0.0,3.8463,4.1395,0.0,0.0,0.0,4.3195,4.3979,0.0,4.3921,0.0,4.4059,4.3979,4.3979,4.3979,4.4066,4.4182,4.4182,4.4552,4.5162,4.5685,4.5917,4.5917,4.5917,4.5917,4.5917,4.5917,4.6314,4.6997,0.0,0.0,0.0,0.0,0.0,0.0,0.0,2.8315,2.8197,2.7852,2.776,2.8164,2.9344,2.9975,3.0826,3.2048,3.2611,3.2778,3.2416,3.2311,3.2307,3.2401,3.2427,3.2895,3.39,3.298,3.2972,0.0,0.0,0.0,0.0,0.0,0.0,0.0,0.0,0.0,0.0,3.4799,3.4799,3.4799,3.4799,3.4799,3.4799,3.4751,3.4727,3.4655,3.4102,3.391,3.3862,3.3332,3.3164,3.3212,3.3212,3.326,3.338,3.3814,3.3621,3.3826,3.6301,3.6975,3.7559,4.0006,4.1015,4.1506,4.198,4.2092,4.2092,4.2092,4.157,4.1279,4.1889,4.1047,4.067,0.0,0.0,0.0,0.0,0.0,0.0,0.0,0.0,0.0,0.0,0.0,0.0,0.0,0.0,4.1976,4.1657,4.0902,4.035,4.0118,0.0,4.276,4.3979,4.3398,0.0,4.4814,4.4262,4.3979,4.3979,4.3979,4.4298,4.4843,4.4843,4.5191,4.583,4.5866,4.5917,4.5917,4.5917,4.5917,4.5917,4.5917,4.6314,4.6909,0.0,0.0,0.0,0.0,0.0,0.0,0.0,2.859,2.8711,2.8546,2.8518,2.854,2.8565,3.0374,3.1602,3.1628,3.2781,3.342,3.3246,3.27,3.2545,3.2865,3.2901,3.3263,3.3991,3.3625,3.3766,0.0,0.0,0.0,0.0,0.0,0.0,0.0,0.0,3.4799,3.4799,3.4799,3.4799,3.4799,3.4799,3.4799,3.4799,3.4799,3.4799,3.4775,3.4559,3.4487,3.4462,3.4246,3.3982,3.3717,3.3717,3.3934,3.4222,3.4438,3.4701,3.5219,3.6722,3.759,3.8474,3.9913,4.0623,4.11,4.1564,4.1668,4.1781,4.203,4.1889,4.1773,4.2063,4.1947,4.1773,0.0,0.0,0.0,0.0,0.0,0.0,0.0,0.0,0.0,0.0,0.0,0.0,0.0,0.0,0.0,4.157,4.1366,4.1453,4.1831,0.0,4.2469,4.4523,4.4269,4.461,4.5511,4.5278,4.5162,4.5162,4.5162,4.5256,4.5511,4.5511,4.5656,4.5917,4.5917,4.5917,4.5917,4.5917,4.5917,4.5917,4.5917,4.6075,4.6358,2.7545,0.0,2.7738,0.0,2.8215,2.8572,2.8572,2.881,2.9005,2.9005,2.8892,2.8786,2.8757,3.0938,3.226,3.1926,3.3057,3.3792,3.3792,3.3027,3.2844,3.3389,3.3432,0.0,3.4212,3.4246,3.4318,3.4558,3.4198,0.0,0.0,0.0,0.0,0.0,3.4631,3.4799,3.4799,3.4799,3.4799,3.4799,3.4799,3.4799,3.4799,3.4799,3.4799,3.4799,3.4799,3.4799,3.4799,3.4799,3.4559,3.4246,3.4246,3.4511,3.4799,3.4799,3.5211,3.5858,3.6849,3.7704,3.8612,3.9733,4.0235,4.0645,4.1269,4.1396,4.1522,4.2009,4.2092,4.2092,4.2092,4.244,4.2498,4.1773,0.0,0.0,0.0,0.0,0.0,0.0,0.0,3.8522,3.9131,0.0,0.0,0.0,0.0,0.0,0.0,4.1831,0.0,0.0,0.0,0.0,0.0,4.4814,4.5249,4.5917,4.5917,4.5917,4.5917,4.5917,4.5917,4.5917,4.5917,4.5917,4.5917,4.5917,4.5917,4.5917,4.5917,4.5917,4.5917,4.5917,4.5917,4.5985,2.8388,2.8729,2.8986,2.8986,2.9005,2.8975,2.8975,2.9005,2.9005,2.9005,2.8656,2.9066,3.0772,3.1842,3.2759,3.3682,3.3792,3.3792,3.3792,3.336,3.3382,0.0,0.0,3.4231,3.4799,3.4799,3.4535,3.4006,0.0,0.0,3.4823,0.0,3.5304,3.4799,3.4799,3.4799,3.4799,3.4799,3.4799,3.4799,3.4799,3.4799,3.4799,3.4799,3.4799,3.4799,3.4799,3.4799,3.4799,3.4799,3.4799,3.4799,3.4799,3.4799,3.4799,3.4799,3.4799,3.5163,3.6687,3.7106,3.7589,3.9508,3.9996,4.0235,4.1206,4.1396,4.1522,4.2009,4.2092,4.2092,4.2092,4.2121,4.2295,4.2876,0.0,0.0,0.0,0.0,0.0,0.0,4.2557,4.1947,3.945,4.0931,0.0,0.0,0.0,0.0,0.0,0.0,0.0,4.0176,4.2615,0.0,4.4008,4.4589,4.5249,4.5917,4.5917,4.5917,4.5917,4.5917,4.5917,4.5917,4.5917,4.5917,4.5917,4.5917,4.5917,4.5917,4.5917,4.5917,4.5917,4.5917,4.5917,4.5917,2.8388,2.8498,2.8663,2.8968,2.9005,2.9097,2.9372,2.9188,2.9005,2.9005,2.9994,3.0795,3.0982,3.1309,3.187,0.0,3.3717,3.4294,0.0,3.4218,3.4289,3.4479,3.4875,3.4996,3.4806,3.5155,3.5087,3.4559,0.0,0.0,0.0,3.4967,3.4967,3.4799,3.4799,3.4799,3.4799,3.4799,3.4799,3.4799,3.4799,3.4799,3.4799,3.4799,3.4799,3.4799,3.4799,3.4799,3.4799,3.4799,3.4799,3.4799,3.4799,3.4799,3.4799,3.4799,3.5187,3.574,3.6239,3.7083,3.8004,3.8643,3.9158,3.9755,4.0709,4.1417,4.1926,4.2071,4.2092,4.2092,4.2092,4.2092,4.215,4.2353,0.0,0.0,0.0,0.0,0.0,0.0,0.0,3.8812,0.0,3.9247,0.0,0.0,0.0,0.0,0.0,0.0,0.0,0.0,4.3311,0.0,4.461,4.5278,4.5685,4.5917,4.5917,4.5917,4.5917,4.5917,4.5917,4.5917,4.5917,4.5917,4.5917,4.5917,4.5917,4.5917,4.5917,4.5917,4.5917,4.5917,4.5917,4.5917,2.8608,2.8737,2.8865,2.8975,2.9133,2.9262,2.9372,2.917,2.903,2.9225,2.9982,3.0576,3.0717,3.0957,0.0,3.2815,3.3723,3.4288,3.4485,3.4433,3.4553,3.4984,3.5357,3.5512,3.5377,0.0,0.0,3.54,3.54,3.5304,3.5111,3.5304,3.528,3.5111,3.5304,3.54,3.54,3.54,3.54,3.54,3.54,3.54,3.54,3.54,3.54,3.54,3.54,3.54,3.5376,3.5159,3.5111,3.5063,3.4871,3.4799,3.4799,3.4799,3.538,3.6048,3.6332,3.7292,3.8281,3.8553,3.9119,3.9863,4.0808,4.176,4.2353,4.215,4.2266,4.244,4.244,4.2644,4.2818,4.2818,4.3137,4.3158,0.0,0.0,0.0,0.0,0.0,0.0,0.0,4.0031,0.0,0.0,0.0,0.0,0.0,0.0,0.0,4.2673,4.3747,0.0,4.4901,4.5547,4.5917,4.5917,4.5917,4.5917,4.5917,4.5917,4.5917,4.5917,4.5917,4.5917,4.5917,4.5917,4.5917,4.5917,4.5917,4.5917,4.5917,4.5917,4.5917,4.5917,2.906,2.9335,0.0,0.0,2.9354,0.0,2.9122,2.9078,2.9188,2.9592,2.9124,2.9154,3.0314,3.1025,3.2064,3.3699,0.0,0.0,0.0,3.418,3.4435,3.5512,3.5623,3.5923,3.6433,3.694,3.694,3.6411,3.6411,3.6146,3.5689,3.617,3.6146,3.5664,3.6194,3.6411,3.6411,3.6411,3.6411,3.6411,3.6411,3.6411,3.6411,3.6411,3.6411,3.6411,3.6411,3.6411,3.6314,3.5808,3.564,3.5568,3.5063,3.4919,3.4895,3.4823,3.5331,3.6097,3.6875,3.7621,3.8357,3.9155,3.9834,4.0536,4.1407,4.2345,4.2863,4.2312,4.2652,4.305,4.305,4.3573,4.3979,4.3979,4.3979,4.3747,4.3042,0.0,0.0,0.0,0.0,0.0,0.0,4.2528,4.2411,0.0,0.0,0.0,0.0,0.0,4.4146,4.2295,4.4008,4.4988,4.4988,4.5598,4.5917,4.5917,4.5946,4.5946,4.5917,4.5946,4.5946,4.5917,4.5917,4.5917,4.5917,4.5917,4.5917,4.5917,4.5917,4.5917,4.5917,4.5917,4.5946,4.5953,0.0,0.0,2.9317,2.9819,2.947,2.9335,2.9837,2.9666,2.9611,3.0002,3.1194,3.1979,3.1909,3.328,3.4259,3.4326,3.4332,3.4376,3.4485,3.5261,3.5822,3.6094,3.6932,3.7278,3.7012,3.7132,3.694,3.6411,3.6411,3.6338,3.6218,3.6338,3.6338,3.6218,3.6338,3.6411,3.6411,3.6411,3.6411,3.6411,3.6411,3.6411,3.6411,3.6411,3.6411,3.6411,3.6411,3.6411,3.6386,3.6266,3.6218,3.6194,3.6074,3.6001,3.5856,3.5039,3.492,3.5332,3.6571,3.7462,3.8348,3.9541,4.0615,4.1484,4.1711,4.2495,4.3105,4.2961,4.3373,4.3747,4.3747,4.3892,4.3979,4.3979,4.3979,4.3602,4.2469,4.2063,0.0,0.0,4.0525,4.0583,4.1279,4.1453,4.2034,0.0,0.0,0.0,0.0,4.5162,4.4995,4.3573,4.4908,4.5663,4.5663,4.583,4.5917,4.5917,4.6388,4.6359,4.5917,4.6388,4.6359,4.5917,4.5917,4.5917,4.5917,4.5917,4.5917,4.5917,4.5917,4.5917,4.5917,4.5917,4.6185,4.6598,2.9647,2.9574,2.9562,2.9635,2.958,2.9617,2.9874,2.9904,3.0002,3.0424,3.1236,3.1745,3.1676,3.3008,3.3815,3.3562,3.4138,3.4507,3.4507,3.5373,3.6009,3.6305,3.712,3.7589,3.7565,3.7591,3.7421,3.7132,3.7132,3.7012,3.6771,3.7012,3.6988,3.6771,3.7012,3.7132,3.7132,3.7132,3.7132,3.7132,3.7132,3.7132,3.7132,3.7132,3.7132,3.7132,3.7132,3.7132,3.7084,3.6843,3.6771,3.6723,3.6483,3.6411,3.629,3.5688,3.5768,3.626,3.7413,3.8289,3.9209,4.0573,4.1556,4.2205,4.221,4.2782,4.3284,4.3199,4.3658,4.4174,4.4364,4.4647,4.4763,4.4465,4.4414,4.395,4.2673,4.2266,0.0,4.1482,4.1163,4.1395,4.2324,4.2673,4.3158,4.3921,0.0,0.0,4.4901,4.554,4.5453,4.4436,4.5395,4.5917,4.5917,4.5917,4.604,4.633,4.6359,4.6359,4.633,4.6359,4.6214,4.5917,4.5917,4.5917,4.5917,4.5917,4.5917,4.5946,4.6214,4.6127,4.5976,4.6556,4.6795,4.6801,2.9849,2.9947,2.9929,2.939,2.9782,3.0094,2.9831,3.0057,3.0424,3.0827,3.0746,3.081,3.1301,3.2239,3.2869,3.3046,3.399,3.4628,3.4624,3.5118,3.5699,3.639,3.6931,3.7468,3.7974,3.8,3.8,3.8,3.8,3.7784,3.7324,3.7808,3.776,3.7324,3.7808,3.8,3.8,3.8,3.8,3.8,3.8,3.8,3.8,3.8,3.8,3.8,3.8,3.8,3.7928,3.7469,3.73,3.7228,3.6795,3.6651,3.6651,3.6651,3.7085,3.7767,3.8683,3.9635,4.0635,4.1839,4.2445,4.2724,4.2728,4.3171,4.351,4.3408,4.3944,4.4585,4.4987,4.5511,4.5714,4.5162,4.4901,4.4349,4.3166,0.0,4.2382,4.2789,4.2586,4.2847,4.4008,4.4523,4.464,4.4298,4.522,4.554,0.0,4.5598,4.5663,4.5198,4.5721,4.604,4.604,4.604,4.6301,4.6801,4.6475,4.6534,4.6946,4.6505,4.6214,4.604,4.604,4.5982,4.5917,4.5917,4.5946,4.6098,4.6598,4.654,4.6324,4.7399,4.7491,4.7091,3.0552,3.0125,2.9868,3.0406,3.0332,3.0296,3.0552,3.0662,3.0846,3.1263,3.1978,3.2845,3.3732,3.4391,3.5098,3.5954,3.5454,3.5153,3.5235,3.5409,3.5929,3.6931,3.7548,3.7894,3.8,3.8,3.8,3.8,3.8,3.7976,3.788,3.7976,3.7952,3.788,3.7976,3.8,3.8,3.8,3.8,3.8,3.8,3.8,3.8,3.8,3.8,3.8,3.8,3.8,3.8,3.7904,3.788,3.788,3.7784,3.776,3.776,3.776,3.7839,3.8162,3.9271,4.0988,4.2484,4.2714,4.281,4.2858,4.2858,4.3575,4.4228,4.4213,4.4984,4.5653,4.5721,4.583,4.5888,4.575,4.4843,4.3863,4.3108,0.0,4.2702,4.2295,4.3108,4.3979,4.4698,4.4356,4.4552,4.554,4.5256,4.5278,4.5743,4.5859,4.6098,4.6482,4.6598,4.6656,4.6656,4.6656,4.6714,4.683,4.7787,4.8072,4.7637,4.8101,4.7671,4.6656,4.6656,4.6388,4.5917,4.5917,4.6214,4.6685,4.6772,4.7114,4.7544,4.7718,4.8072,4.8426,3.0791,3.0314,3.002,3.0406,3.0314,3.0332,3.0736,3.0974,3.1208,3.1391,3.2288,3.3063,3.3536,3.4554,3.5369,3.584,3.549,3.5357,3.5753,3.5859,3.6137,3.6634,3.7521,3.8,3.8,3.8,3.8,3.8,3.8,3.8,3.8,3.8,3.8,3.8,3.8,3.8,3.8,3.8,3.8,3.8,3.8,3.8,3.8,3.8,3.8,3.8,3.8,3.8,3.8,3.8,3.8,3.8,3.8,3.8,3.8,3.8,3.8608,3.9392,3.993,4.1459,4.2925,4.2925,4.2925,4.2864,4.2828,4.3393,4.4027,4.4252,4.4932,4.5549,4.5872,4.5917,4.5801,4.5424,4.461,0.0,0.0,4.3245,4.3137,4.3565,4.4146,4.4756,4.5395,4.5191,4.5278,4.5859,4.5627,4.5547,4.5866,4.6214,4.6511,4.6801,4.7149,4.7346,4.7346,4.7346,4.7521,4.7845,4.8101,4.8246,4.8275,4.8246,4.7724,4.6801,4.6801,4.6453,4.5917,4.5917,4.604,4.6359,4.6685,4.6975,4.7346,4.8043,4.8455,4.8687,3.0974,3.0534,3.0222,3.0314,3.0332,3.0442,3.0736,3.1344,3.1744,3.1744,3.2638,3.3347,3.3568,3.4657,3.5477,3.5689,3.5603,3.5753,3.624,3.6405,3.6474,3.6495,3.7441,3.8,3.8,3.8,3.8,3.8,3.8,3.8,3.8,3.8,3.8,3.8,3.8,3.8,3.8,3.8,3.8,3.8,3.8,3.8,3.8,3.8,3.8,3.8,3.8,3.8,3.8,3.8,3.8,3.8,3.8,3.8,3.8,3.8,3.9,4.016,4.0338,4.1619,4.2925,4.2925,4.2925,4.2909,4.292,4.3353,4.3901,4.4328,4.4886,4.5413,4.5827,4.5917,4.5743,4.522,0.0,0.0,0.0,4.3747,4.3805,4.4763,4.5046,4.5337,4.5859,4.5917,4.5953,4.6098,4.6098,4.6156,4.6353,4.6795,4.7091,4.7236,4.7608,4.7863,4.8014,4.8014,4.8246,4.8687,4.8391,4.8478,4.8943,4.8449,4.7782,4.7033,4.7033,4.6592,4.5917,4.5917,4.5982,4.6156,4.6627,4.6975,4.7352,4.8339,4.8803,4.8919,3.13,3.0717,3.0314,3.0681,3.0754,3.0754,3.0791,3.1929,3.2778,3.2778,3.3662,3.4632,3.5592,3.5786,3.6225,3.7179,3.6842,3.6626,3.6719,3.6849,3.698,3.7036,3.7655,3.8,3.8,3.8,3.8,3.8,3.8,3.8,3.8,3.8,3.8,3.8,3.8,3.8,3.8,3.8,3.8,3.8,3.8,3.8,3.8,3.8,3.8,3.8,3.8,3.8,3.8,3.8,3.8,3.8,3.8,3.8,3.8,3.8,3.8607,3.9441,4.0185,4.1619,4.2925,4.2925,4.2925,4.3018,4.344,4.3942,4.449,4.4915,4.5475,4.5872,4.5895,4.5917,4.5866,4.583,0.0,0.0,4.4843,4.4785,4.4792,4.4901,4.5453,4.5859,4.5917,4.5917,4.6127,4.6685,4.6743,4.7004,4.7631,4.7718,4.7985,4.8542,4.8072,4.8072,4.8629,4.8629,4.8658,4.8716,4.9262,4.9577,4.9635,4.9577,4.888,4.7747,4.7747,4.705,4.5917,4.5917,4.6243,4.6743,4.6772,4.7526,4.8571,4.8658,4.9088,4.9635,3.1373,3.0937,3.0681,3.1116,3.0987,3.0864,3.1121,3.2162,3.2905,3.2905,3.432,3.5469,3.5838,3.6472,3.698,3.7374,3.7582,3.7569,3.7291,3.804,3.8231,3.7676,3.7868,3.8,3.8,3.8,3.8,3.8,3.8,3.8,3.8,3.8,3.8,3.8,3.8,3.8,3.8,3.8,3.8,3.8,3.8,3.8,3.8,3.8,3.8,3.8,3.8,3.8,3.8,3.8,3.8,3.8,3.8,3.8,3.8,3.8,3.858,3.9285,3.957,4.0869,4.2184,4.2319,4.2331,4.226,4.198,4.2648,4.3259,4.2997,4.4265,4.5298,4.4918,4.5425,4.5917,4.5917,0.0,4.5046,4.5459,4.514,4.5046,4.5482,4.6069,4.6453,4.6453,4.6824,4.7172,4.7404,4.7433,4.7521,4.7805,4.8159,4.8653,4.9291,4.9112,4.9083,4.932,4.932,4.932,4.932,4.9577,4.9693,4.9693,4.9693,4.9228,4.8362,4.8362,4.7869,4.705,4.665,4.6598,4.6772,4.6388,4.6772,4.7526,4.7526,4.8165,4.903,3.1244,3.0882,3.0644,3.0822,3.0699,3.0699,3.0974,3.2086,3.2905,3.2905,3.4663,3.59,3.59,3.6807,3.7404,3.7404,3.7946,3.8193,3.7904,3.8878,3.909,3.831,3.8096,3.8,3.8,3.8,3.8,3.8,3.8,3.8,3.8,3.8,3.8,3.8,3.8,3.8,3.8,3.8,3.8,3.8,3.8,3.8,3.8,3.8,3.8,3.8,3.8,3.8,3.8,3.8,3.8,3.8,3.8,3.8,3.8,3.8,3.8703,3.9534,3.9794,4.09,4.1925,4.1665,4.1815,4.1906,4.1539,4.2399,4.3143,4.2767,4.4311,4.5561,4.5115,4.5836,4.644,4.6214,4.5808,4.5663,4.6127,4.5779,4.575,4.6411,4.6853,4.7091,4.7091,4.7521,4.7892,4.8072,4.8072,4.8159,4.8386,4.8798,4.9233,4.9693,4.9693,4.9693,4.9693,4.9693,4.9693,4.9693,4.9693,4.9693,4.9693,4.9693,4.932,4.8687,4.8687,4.8223,4.7433,4.6975,4.6685,4.6482,4.604,4.6388,4.7091,4.7091,4.7927,4.8972,3.0882,3.0479,3.0094,2.9702,2.9947,3.0222,3.0222,3.1747,3.2924,3.2905,3.4663,3.59,3.59,3.6807,3.7404,3.7404,3.7946,3.8371,3.8509,3.9198,3.9369,3.8864,3.8286,3.8024,3.8024,3.8024,3.8024,3.8024,3.8,3.8,3.8,3.8,3.8,3.8,3.8,3.8,3.8,3.8,3.8,3.8,3.8,3.8,3.8,3.8,3.8,3.8,3.8,3.8,3.8,3.8,3.8,3.8024,3.8024,3.8024,3.8024,3.8024,3.9,4.0266,4.1103,4.193,4.2327,4.1114,4.1405,4.2123,4.2586,4.3618,4.4601,4.4998,4.6091,4.6971,4.6801,4.7346,4.7579,4.6917,4.683,4.683,4.683,4.683,4.7033,4.7718,4.7805,4.7805,4.7805,4.7805,4.8043,4.8658,4.8716,4.9001,4.9664,4.9693,4.9693,4.9693,4.9693,4.9693,4.9693,4.9693,4.9693,4.9693,4.9693,4.9693,4.9693,4.9693,4.932,4.8716,4.8716,4.799,4.683,4.683,4.6453,4.5917,4.5917,4.6673,4.7805,4.7805,4.8589,4.9693,3.1616,3.1543,3.1506,3.1671,3.1799,3.1781,3.1506,3.2526,3.3475,3.389,3.5098,3.6166,3.6868,3.7223,3.7404,3.7404,3.8365,3.9416,4.0353,4.0253,4.009,3.9922,3.9417,3.9128,3.9128,3.8767,3.8575,3.8575,3.8166,3.8,3.8,3.8,3.8,3.8,3.8,3.8,3.8,3.8,3.8,3.8,3.8,3.8,3.8,3.8,3.8,3.8,3.8,3.8,3.8,3.8,3.8238,3.8575,3.8575,3.8815,3.9056,3.8671,3.956,4.0707,4.0948,4.1775,4.2559,4.233,4.2136,4.192,4.1649,4.2518,4.3417,4.3464,4.5067,4.6413,4.6307,4.7137,4.7747,4.7521,4.7491,4.7491,4.7491,4.7491,4.7579,4.7776,4.8159,4.8449,4.8449,4.8856,4.9228,4.9378,4.9378,4.949,4.9693,4.9693,4.9693,4.9693,4.9693,4.9693,4.9693,4.9693,4.9693,4.9693,4.9693,4.9693,4.9693,4.9693,4.9606,4.9378,4.9378,4.8914,4.8106,4.7695,4.7114,4.6482,4.6069,4.615,4.6527,4.694,4.7637,4.8386,3.1506,3.1524,3.1543,3.1634,3.1781,3.1854,3.1781,3.2784,3.3656,3.3989,3.5302,3.6347,3.6767,3.7162,3.7495,3.7736,3.893,4.01,4.1115,4.0912,4.0715,4.0715,4.0403,4.0042,3.9609,3.9296,3.9101,3.9101,3.8575,3.831,3.831,3.8094,3.8,3.8,3.8,3.8,3.8,3.8,3.8,3.8,3.8,3.8,3.8,3.8,3.8,3.8,3.8,3.8,3.8,3.8,3.8214,3.8527,3.8716,3.9005,3.9245,3.9149,4.0123,4.1307,4.1659,4.2472,4.3353,4.3841,4.3308,4.2602,4.2249,4.309,4.3991,4.4105,4.5632,4.7003,4.71,4.7912,4.8473,4.8188,4.8159,4.8159,4.8159,4.8159,4.8246,4.8531,4.8856,4.9117,4.9117,4.9436,4.9693,4.9693,4.9693,4.9693,4.9693,4.9693,4.9693,4.9693,4.9693,4.9693,4.9693,4.9693,4.9693,4.9693,4.9693,4.9693,4.9693,4.9693,4.9693,4.9693,4.9407,4.8943,4.8304,4.7666,4.7027,4.6417,4.604,4.6208,4.6702,4.7056,4.7782,4.856,3.0956,3.0901,3.0791,3.0479,3.0717,3.1066,3.141,3.2666,3.3572,3.3585,3.5324,3.6414,3.6086,3.6837,3.7616,3.8178,3.9344,4.0339,4.1144,4.1144,4.1144,4.1201,4.1201,4.0739,3.9777,3.9705,3.9681,3.9681,3.9125,3.8836,3.8788,3.8286,3.8048,3.8,3.8,3.8,3.8,3.8,3.8,3.8,3.8,3.8,3.8,3.8,3.8048,3.8046,3.8046,3.8046,3.8046,3.8046,3.8094,3.8241,3.8719,3.8933,3.9101,3.9561,4.0685,4.1963,4.2756,4.3592,4.4494,4.5331,4.4776,4.4011,4.3902,4.4771,4.5731,4.6122,4.721,4.8236,4.8649,4.9267,4.9519,4.889,4.8774,4.8774,4.8774,4.8774,4.903,4.9635,4.9693,4.9693,4.9693,4.9693,4.9693,4.9693,4.9693,4.9693,4.9693,4.9693,4.9693,4.9693,4.9693,4.9693,4.9693,4.9693,4.9693,4.9693,4.9693,4.9693,4.9693,4.9693,4.9693,4.9664,4.9059,4.842,4.7747,4.712,4.6505,4.5917,4.5917,4.6614,4.766,4.7776,4.8531,4.9548,3.1689,3.1744,3.1818,3.2038,3.2148,3.2129,3.1909,3.2808,3.3701,3.4143,3.5273,3.6302,3.7011,3.7283,3.7435,3.7585,3.8276,3.9403,4.1086,4.0711,4.0653,4.1196,4.1201,4.1105,4.0836,4.0427,4.0234,4.0234,3.9705,3.9224,3.8788,3.8668,3.8407,3.8,3.8,3.8,3.8,3.8,3.8,3.8,3.8,3.8,3.8,3.8,3.8262,3.8647,3.8647,3.8647,3.8647,3.8647,3.8912,3.9272,3.9393,3.9994,4.0619,4.0306,4.1219,4.2367,4.2563,4.3725,4.4942,4.5183,4.5552,4.5667,4.4719,4.5071,4.5738,4.6258,4.7293,4.8277,4.8759,4.9313,4.9664,4.9519,4.9465,4.9465,4.9465,4.9465,4.9548,4.9693,4.9693,4.9693,4.9693,4.9693,4.9693,4.9693,4.9693,4.9693,4.9693,4.9693,4.9693,4.9693,4.9693,4.9693,4.9693,4.9693,4.9693,4.9693,4.9693,4.9693,4.9693,4.9693,4.9693,4.9693,4.9548,4.8851,4.7805,4.766,4.6934,4.5917,4.5917,4.6063,4.644,4.7428,4.7979,4.8357,3.1653,3.1708,3.1836,3.2239,3.2148,3.2074,3.2258,3.2997,3.3643,3.3953,3.5301,3.6421,3.6967,3.7262,3.7646,3.8246,3.8871,3.9755,4.1115,4.0884,4.0826,4.1172,4.1201,4.1201,4.1201,4.0908,4.0763,4.0763,4.0234,3.9705,3.9173,3.9173,3.8767,3.8024,3.8262,3.8238,3.8,3.8,3.8,3.8,3.8,3.8,3.8,3.8,3.8166,3.8431,3.8431,3.8599,3.8836,3.9104,3.9369,3.9657,3.9898,4.0355,4.0812,4.0787,4.1298,4.2061,4.288,4.3795,4.4696,4.5555,4.6139,4.6346,4.5695,4.5803,4.6175,4.6741,4.7499,4.8255,4.881,4.9326,4.9693,4.9693,4.9693,4.9693,4.9693,4.9693,4.9693,4.9693,4.9693,4.9693,4.9693,4.9693,4.9693,4.9693,4.9693,4.9693,4.9693,4.9693,4.9693,4.9693,4.9693,4.9693,4.9693,4.9693,4.9693,4.9693,4.9693,4.9693,4.9693,4.9693,4.9693,4.9693,4.9349,4.8856,4.8188,4.7579,4.694,4.6301,4.6011,4.6069,4.6417,4.7085,4.7724,4.8362,3.1501,3.1488,3.1616,3.2038,3.1818,3.185,3.2496,3.3363,3.3947,3.3902,3.5616,3.6885,3.697,3.7363,3.8094,3.919,3.98,4.0487,4.1288,4.1302,4.1374,4.1461,4.1394,4.1345,4.1345,4.1249,4.1201,4.1201,4.0643,4.0138,3.9609,3.9513,3.8936,3.8024,3.8455,3.8407,3.8,3.8,3.8,3.8,3.8,3.8,3.8,3.8,3.8072,3.8118,3.8118,3.8479,3.9005,3.9465,3.9657,3.9826,4.0258,4.0451,4.0619,4.1052,4.1201,4.1516,4.2964,4.3549,4.4153,4.5662,4.6271,4.6509,4.6509,4.6509,4.6666,4.7184,4.775,4.8255,4.881,4.9326,4.9693,4.9693,4.9693,4.9693,4.9693,4.9693,4.9693,4.9693,4.9693,4.9751,4.9867,4.978,4.9751,4.9867,4.9751,4.9693,4.9693,4.9693,4.9693,4.9693,4.9693,4.9693,4.9693,4.9693,4.9693,4.9693,4.9693,4.9693,4.9693,4.9693,4.9693,4.9664,4.9117,4.8803,4.86,4.7439,4.6975,4.6888,4.6185,4.6272,4.6801,4.6801,4.7613,4.8774,3.1854,3.1928,3.2056,3.2441,3.2459,3.2459,3.257,3.4183,3.5416,3.5416,3.6845,3.8031,3.8465,3.8591,3.8785,3.9259,3.9696,4.0501,4.1806,4.1775,4.1983,4.2543,4.214,4.1899,4.1899,4.1442,4.1201,4.1201,4.0643,4.0138,3.9609,3.9152,3.8575,3.8,3.8096,3.8072,3.8,3.8,3.8,3.8,3.8,3.8,3.8,3.8,3.8286,3.8668,3.8668,3.9056,3.9513,3.9585,3.9922,4.0306,4.0379,4.0715,4.1129,4.1201,4.1201,4.123,4.1488,4.2656,4.3852,4.4098,4.5341,4.6509,4.6509,4.6509,4.6666,4.7184,4.775,4.8255,4.881,4.9326,4.9693,4.9693,4.9693,4.9693,4.9693,4.9693,4.9693,4.9693,4.9693,4.9925,5.0506,5.0042,4.9954,5.0506,5.0013,4.9693,4.9693,4.9693,4.9693,4.9693,4.9693,4.9693,4.9693,4.9693,4.9693,4.9693,4.9693,4.9693,4.9693,4.9693,4.9693,4.9693,4.9606,4.9233,4.8658,4.7956,4.7637,4.7573,4.6359,4.6272,4.6801,4.6801,4.7613,4.8716,3.1928,3.2001,3.2203,3.2845,3.2753,3.268,3.2918,3.4018,3.4884,3.4884,3.6481,3.7846,3.8349,3.8913,3.9259,3.9304,3.9984,4.0868,4.1926,4.2209,4.249,4.2789,4.2284,4.1995,4.1995,4.149,4.1201,4.1201,4.0956,4.0403,3.9609,3.9657,3.908,3.8024,3.831,3.8286,3.8,3.8,3.8,3.8,3.8,3.8,3.8,3.8,3.8169,3.8383,3.8668,3.9125,3.9657,3.9946,4.0403,4.0836,4.0836,4.1033,4.1201,4.1201,4.1201,4.1287,4.1802,4.2824,4.3907,4.4397,4.5529,4.6509,4.6509,4.6744,4.7003,4.7236,4.7979,4.8606,4.8859,4.9326,4.9693,4.9693,4.9693,4.9693,4.9693,4.9693,4.9693,4.9693,4.9693,4.9809,5.01,4.9867,4.9809,5.0129,4.9867,4.9693,4.9693,4.9693,4.9693,4.9693,4.9693,4.9693,4.9693,4.9693,4.9693,4.9693,4.9693,4.9693,4.9693,4.9693,4.9693,4.9693,4.9693,4.9548,4.9175,4.8212,4.7805,4.7689,4.6411,4.604,4.6359,4.6685,4.7381,4.8246]},{"header":{"parameterUnit":"m.s-1","parameterCategory":1,"la1":30.6,"la2":28.766,"lo1":-90.7593,"lo2":-88.6598,"dx":0.0162,"dy":0.0183,"nx":116,"ny":114,"refTime":"2023-01-21T06:00:00:Z","depth":0,"parameterNumber":3,"parameterNumberName":"V-component_of_WINDS"},"data":[0.0,0.0,0.0,0.0,0.0,0.0,0.0,0.0,0.0,0.0,0.0,0.0,0.0,0.0,0.0,0.0,0.0,0.0,0.0,0.0,0.0,0.0,0.0,0.0,0.0,0.0,0.0,0.0,0.0,0.0,0.0,0.0,0.0,0.0,0.0,0.0,0.0,0.0,0.0,0.0,0.0,0.0,0.0,0.0,0.0,0.0,0.0,0.0,0.0,0.0,0.0,0.0,0.0,0.0,0.0,0.0,0.0,0.0,0.0,0.0,0.0,0.0,0.0,0.0,0.0,0.0,0.0,0.0,0.0,0.0,0.0,0.0,0.0,0.0,0.0,0.0,0.0,0.0,0.0,0.0,0.0,0.0,0.0,0.0,0.0,0.0,0.0,0.0,0.0,0.0,0.0,0.0,0.0,0.0,0.0,0.0,0.0,0.0,0.0,0.0,0.0,0.0,0.0,0.0,0.0,0.0,0.0,0.0,0.0,0.0,0.0,0.0,0.0,0.0,0.0,0.0,0.0,0.0,0.0,0.0,0.0,0.0,0.0,0.0,0.0,0.0,0.0,0.0,0.0,0.0,0.0,0.0,0.0,0.0,0.0,0.0,0.0,0.0,0.0,0.0,0.0,0.0,0.0,0.0,0.0,0.0,0.0,0.0,0.0,0.0,0.0,0.0,0.0,0.0,0.0,0.0,0.0,0.0,0.0,0.0,0.0,0.0,0.0,0.0,0.0,0.0,0.0,0.0,0.0,0.0,0.0,0.0,0.0,0.0,0.0,0.0,0.0,0.0,0.0,0.0,0.0,0.0,0.0,0.0,0.0,0.0,0.0,0.0,0.0,0.0,0.0,0.0,0.0,0.0,0.0,0.0,0.0,0.0,0.0,0.0,0.0,0.0,0.0,0.0,0.0,0.0,0.0,0.0,0.0,0.0,0.0,0.0,0.0,0.0,0.0,0.0,0.0,0.0,0.0,0.0,0.0,0.0,0.0,0.0,0.0,0.0,0.0,0.0,0.0,0.0,0.0,0.0,0.0,0.0,0.0,0.0,0.0,0.0,0.0,0.0,0.0,0.0,0.0,0.0,0.0,0.0,0.0,0.0,0.0,0.0,0.0,0.0,0.0,0.0,0.0,0.0,0.0,0.0,0.0,0.0,0.0,0.0,0.0,0.0,0.0,0.0,0.0,0.0,0.0,0.0,0.0,0.0,0.0,0.0,0.0,0.0,0.0,0.0,0.0,0.0,0.0,0.0,0.0,0.0,0.0,0.0,0.0,0.0,0.0,0.0,0.0,0.0,0.0,0.0,0.0,0.0,0.0,0.0,0.0,0.0,0.0,0.0,0.0,0.0,0.0,0.0,0.0,0.0,0.0,0.0,0.0,0.0,0.0,0.0,0.0,0.0,0.0,0.0,0.0,0.0,0.0,0.0,0.0,0.0,0.0,0.0,0.0,0.0,0.0,0.0,0.0,0.0,0.0,0.0,0.0,0.0,0.0,0.0,0.0,0.0,0.0,0.0,0.0,0.0,0.0,0.0,0.0,0.0,0.0,0.0,0.0,0.0,0.0,0.0,0.0,0.0,0.0,0.0,0.0,0.0,0.0,0.0,0.0,0.0,0.0,0.0,0.0,0.0,0.0,0.0,0.0,0.0,0.0,0.0,0.0,0.0,0.0,0.0,0.0,0.0,0.0,0.0,0.0,0.0,0.0,0.0,0.0,0.0,0.0,0.0,0.0,0.0,0.0,0.0,0.0,0.0,0.0,0.0,0.0,0.0,0.0,0.0,0.0,0.0,0.0,0.0,0.0,0.0,0.0,0.0,0.0,0.0,0.0,0.0,0.0,0.0,0.0,0.0,0.0,0.0,0.0,0.0,0.0,0.0,0.0,0.0,0.0,0.0,0.0,0.0,0.0,0.0,0.0,0.0,0.0,0.0,0.0,0.0,0.0,0.0,0.0,0.0,0.0,0.0,0.0,0.0,0.0,0.0,0.0,0.0,0.0,0.0,0.0,0.0,0.0,0.0,0.0,0.0,0.0,0.0,0.0,0.0,0.0,0.0,0.0,0.0,0.0,0.0,0.0,0.0,0.0,0.0,0.0,0.0,0.0,0.0,0.0,0.0,0.0,0.0,0.0,0.0,0.0,0.0,0.0,0.0,0.0,0.0,0.0,0.0,0.0,0.0,0.0,0.0,0.0,0.0,0.0,0.0,0.0,0.0,0.0,0.0,0.0,0.0,0.0,0.0,0.0,0.0,0.0,0.0,0.0,0.0,0.0,0.0,0.0,0.0,0.0,0.0,0.0,0.0,0.0,0.0,0.0,0.0,0.0,0.0,0.0,0.0,0.0,0.0,0.0,0.0,0.0,0.0,0.0,0.0,0.0,0.0,0.0,0.0,0.0,0.0,0.0,0.0,0.0,0.0,0.0,0.0,0.0,0.0,0.0,0.0,0.0,0.0,0.0,0.0,0.0,0.0,0.0,0.0,0.0,0.0,0.0,0.0,0.0,0.0,0.0,0.0,0.0,0.0,0.0,0.0,0.0,0.0,0.0,0.0,0.0,0.0,0.0,0.0,0.0,0.0,0.0,0.0,0.0,0.0,0.0,0.0,0.0,0.0,0.0,0.0,0.0,0.0,0.0,0.0,0.0,0.0,0.0,0.0,0.0,0.0,0.0,0.0,0.0,0.0,0.0,0.0,0.0,0.0,0.0,0.0,0.0,0.0,0.0,0.0,0.0,0.0,0.0,0.0,0.0,0.0,0.0,0.0,0.0,0.0,0.0,0.0,0.0,0.0,0.0,0.0,0.0,0.0,0.0,0.0,0.0,0.0,0.0,0.0,0.0,0.0,0.0,0.0,0.0,0.0,0.0,0.0,0.0,0.0,0.0,0.0,0.0,0.0,0.0,0.0,0.0,0.0,0.0,0.0,0.0,0.0,0.0,0.0,0.0,0.0,0.0,0.0,0.0,0.0,0.0,0.0,0.0,0.0,0.0,0.0,0.0,0.0,0.0,0.0,0.0,0.0,0.0,0.0,0.0,0.0,0.0,0.0,0.0,0.0,0.0,0.0,0.0,0.0,0.0,0.0,0.0,0.0,0.0,0.0,0.0,0.0,0.0,0.0,0.0,0.0,0.0,0.0,0.0,0.0,0.0,0.0,0.0,0.0,0.0,0.0,0.0,0.0,0.0,0.0,0.0,0.0,0.0,0.0,0.0,0.0,0.0,0.0,0.0,0.0,0.0,0.0,0.0,0.0,0.0,0.0,0.0,0.0,0.0,0.0,0.0,0.0,0.0,0.0,0.0,0.0,0.0,0.0,0.0,0.0,0.0,0.0,0.0,0.0,0.0,0.0,0.0,0.0,0.0,0.0,0.0,0.0,0.0,0.0,0.0,0.0,0.0,0.0,0.0,0.0,0.0,0.0,0.0,0.0,0.0,0.0,0.0,0.0,0.0,0.0,0.0,0.0,0.0,0.0,0.0,0.0,0.0,0.0,0.0,0.0,0.0,0.0,0.0,0.0,0.0,0.0,0.0,0.0,0.0,0.0,0.0,0.0,0.0,0.0,0.0,0.0,0.0,0.0,0.0,0.0,0.0,0.0,0.0,0.0,0.0,0.0,0.0,0.0,0.0,0.0,0.0,0.0,0.0,0.0,0.0,0.0,0.0,0.0,0.0,0.0,0.0,0.0,0.0,0.0,0.0,0.0,0.0,0.0,0.0,0.0,0.0,0.0,0.0,0.0,0.0,0.0,0.0,0.0,0.0,0.0,0.0,0.0,0.0,0.0,0.0,0.0,0.0,0.0,0.0,0.0,0.0,0.0,0.0,0.0,0.0,0.0,0.0,0.0,0.0,0.0,0.0,0.0,0.0,0.0,0.0,0.0,0.0,0.0,0.0,0.0,0.0,0.0,0.0,0.0,0.0,0.0,0.0,0.0,0.0,0.0,0.0,0.0,0.0,0.0,0.0,0.0,0.0,0.0,0.0,0.0,0.0,0.0,0.0,0.0,0.0,0.0,0.0,0.0,0.0,0.0,0.0,0.0,0.0,0.0,0.0,0.0,0.0,0.0,0.0,0.0,0.0,0.0,0.0,0.0,0.0,0.0,0.0,0.0,0.0,0.0,0.0,0.0,0.0,0.0,0.0,0.0,0.0,0.0,0.0,0.0,0.0,0.0,0.0,0.0,0.0,0.0,0.0,0.0,0.0,0.0,0.0,0.0,0.0,0.0,0.0,0.0,0.0,0.0,0.0,0.0,0.0,0.0,0.0,0.0,0.0,0.0,0.0,0.0,0.0,0.0,0.0,0.0,0.0,0.0,0.0,0.0,0.0,0.0,0.0,0.0,0.0,0.0,0.0,0.0,0.0,0.0,0.0,0.0,0.0,0.0,0.0,0.0,0.0,0.0,0.0,0.0,0.0,0.0,0.0,0.0,0.0,0.0,0.0,0.0,0.0,0.0,0.0,0.0,0.0,0.0,0.0,0.0,0.0,0.0,0.0,0.0,0.0,0.0,0.0,0.0,0.0,0.0,0.0,0.0,0.0,0.0,0.0,0.0,0.0,0.0,0.0,0.0,0.0,0.0,0.0,0.0,0.0,0.0,0.0,0.0,0.0,0.0,0.0,0.0,0.0,0.0,0.0,0.0,0.0,0.0,0.0,0.0,0.0,0.0,0.0,0.0,0.0,0.0,0.0,0.0,0.0,0.0,0.0,0.0,0.0,0.0,0.0,0.0,0.0,0.0,0.0,0.0,0.0,0.0,0.0,0.0,0.0,0.0,0.0,0.0,0.0,0.0,0.0,0.0,0.0,0.0,0.0,0.0,0.0,0.0,0.0,0.0,0.0,0.0,0.0,0.0,0.0,0.0,0.0,0.0,0.0,0.0,0.0,0.0,0.0,0.0,0.0,0.0,0.0,0.0,0.0,0.0,0.0,0.0,0.0,0.0,0.0,0.0,0.0,0.0,0.0,0.0,0.0,0.0,0.0,0.0,0.0,0.0,0.0,0.0,0.0,0.0,0.0,0.0,0.0,0.0,0.0,0.0,0.0,0.0,0.0,0.0,0.0,0.0,0.0,0.0,0.0,0.0,0.0,0.0,0.0,0.0,0.0,0.0,0.0,0.0,0.0,0.0,0.0,0.0,0.0,0.0,0.0,0.0,0.0,0.0,0.0,0.0,0.0,0.0,0.0,0.0,0.0,0.0,0.0,0.0,0.0,0.0,0.0,0.0,0.0,0.0,0.0,0.0,0.0,0.0,0.0,0.0,0.0,0.0,0.0,0.0,0.0,0.0,0.0,0.0,0.0,0.0,0.0,0.0,0.0,0.0,0.0,0.0,0.0,0.0,0.0,0.0,0.0,0.0,0.0,0.0,0.0,0.0,0.0,0.0,0.0,0.0,0.0,0.0,0.0,0.0,0.0,0.0,0.0,0.0,0.0,0.0,0.0,0.0,0.0,0.0,0.0,0.0,0.0,0.0,0.0,0.0,0.0,0.0,0.0,0.0,0.0,0.0,0.0,0.0,0.0,0.0,0.0,0.0,0.0,0.0,0.0,0.0,0.0,0.0,0.0,0.0,0.0,0.0,0.0,0.0,0.0,0.0,0.0,0.0,0.0,0.0,0.0,0.0,0.0,0.0,0.0,0.0,0.0,0.0,0.0,0.0,0.0,0.0,0.0,0.0,0.0,0.0,0.0,0.0,0.0,0.0,0.0,0.0,0.0,0.0,0.0,0.0,0.0,0.0,0.0,0.0,0.0,0.0,0.0,0.0,0.0,0.0,0.0,0.0,0.0,0.0,0.0,0.0,0.0,0.0,0.0,0.0,0.0,0.0,0.0,0.0,0.0,0.0,0.0,0.0,0.0,0.0,0.0,0.0,0.0,0.0,0.0,0.0,0.0,0.0,0.0,0.0,0.0,0.0,0.0,0.0,0.0,0.0,0.0,0.0,0.0,0.0,0.0,0.0,0.0,0.0,0.0,0.0,0.0,0.0,0.0,0.0,0.0,0.0,0.0,0.0,0.0,0.0,0.0,0.0,0.0,0.0,0.0,0.0,0.0,0.0,0.0,0.0,0.0,0.0,0.0,0.0,0.0,0.0,0.0,0.0,0.0,0.0,2.2438,0.0,0.0,0.0,0.0,0.0,0.0,0.0,0.0,0.0,0.0,0.0,0.0,0.0,0.0,0.0,0.0,0.0,0.0,0.0,0.0,0.0,0.0,0.0,0.0,0.0,0.0,0.0,0.0,0.0,0.0,0.0,0.0,0.0,0.0,0.0,0.0,0.0,0.0,0.0,0.0,0.0,0.0,0.0,0.0,0.0,0.0,0.0,0.0,0.0,0.0,0.0,0.0,0.0,0.0,0.0,0.0,0.0,0.0,0.0,0.0,0.0,0.0,0.0,0.0,0.0,0.0,0.0,0.0,0.0,0.0,0.0,0.0,0.0,0.0,0.0,0.0,0.0,0.0,0.0,0.0,0.0,0.0,0.0,0.0,0.0,0.0,0.0,0.0,0.0,0.0,0.0,0.0,0.0,0.0,0.0,0.0,0.0,0.0,0.0,0.0,0.0,0.0,0.0,0.0,0.0,0.0,0.0,0.0,0.0,0.0,0.0,0.0,0.0,0.0,0.0,0.0,2.3177,0.0,0.0,0.0,0.0,0.0,0.0,0.0,0.0,0.0,0.0,0.0,0.0,0.0,0.0,0.0,0.0,0.0,0.0,0.0,0.0,0.0,0.0,0.0,0.0,0.0,0.0,0.0,0.0,0.0,0.0,0.0,0.0,0.0,0.0,0.0,0.0,0.0,0.0,0.0,0.0,0.0,0.0,0.0,0.0,0.0,0.0,0.0,0.0,0.0,0.0,0.0,0.0,0.0,0.0,0.0,0.0,0.0,0.0,0.0,0.0,0.0,0.0,0.0,0.0,0.0,0.0,0.0,0.0,0.0,0.0,0.0,0.0,0.0,0.0,0.0,0.0,0.0,0.0,0.0,0.0,0.0,0.0,0.0,0.0,0.0,0.0,0.0,0.0,0.0,0.0,0.0,0.0,0.0,0.0,0.0,0.0,0.0,0.0,0.0,0.0,0.0,0.0,0.0,0.0,0.0,0.0,0.0,0.0,2.4172,2.4388,2.3843,2.4756,2.4958,2.459,2.459,2.4958,2.5513,0.0,0.0,0.0,0.0,0.0,0.0,0.0,0.0,0.0,0.0,0.0,0.0,0.0,0.0,0.0,0.0,0.0,0.0,0.0,0.0,0.0,0.0,0.0,0.0,0.0,0.0,0.0,0.0,0.0,0.0,0.0,0.0,0.0,0.0,0.0,0.0,0.0,0.0,0.0,2.9838,2.9945,2.9968,2.9891,0.0,0.0,0.0,0.0,0.0,0.0,0.0,0.0,0.0,0.0,0.0,0.0,0.0,0.0,0.0,0.0,0.0,0.0,0.0,0.0,0.0,0.0,0.0,0.0,0.0,0.0,0.0,0.0,0.0,0.0,0.0,0.0,0.0,0.0,0.0,0.0,0.0,0.0,0.0,0.0,0.0,0.0,0.0,0.0,2.8283,2.7847,0.0,0.0,0.0,0.0,0.0,0.0,0.0,0.0,0.0,0.0,0.0,0.0,0.0,0.0,2.4474,2.4908,2.485,2.4268,2.5981,2.6316,2.5421,2.6034,2.626,2.6214,2.6214,0.0,2.4985,2.4916,0.0,0.0,0.0,0.0,0.0,0.0,0.0,0.0,0.0,0.0,0.0,0.0,0.0,0.0,0.0,0.0,0.0,0.0,0.0,0.0,0.0,0.0,0.0,0.0,0.0,0.0,0.0,0.0,0.0,0.0,0.0,0.0,0.0,0.0,0.0,0.0,2.9253,2.9856,3.0119,3.0184,3.0162,3.0076,3.0076,3.0011,2.9858,2.9335,0.0,0.0,0.0,0.0,0.0,0.0,0.0,0.0,0.0,0.0,0.0,0.0,0.0,0.0,0.0,0.0,0.0,0.0,0.0,0.0,0.0,0.0,0.0,0.0,0.0,0.0,0.0,0.0,0.0,0.0,0.0,0.0,0.0,0.0,0.0,0.0,0.0,0.0,0.0,2.8858,2.922,2.8953,2.8862,2.8339,0.0,0.0,0.0,0.0,0.0,0.0,0.0,0.0,0.0,2.7841,2.7401,2.728,2.7566,2.7767,2.7524,2.689,2.747,2.7321,2.6545,2.6795,2.6887,2.6887,2.6887,2.6634,2.6178,2.5899,2.5804,2.5758,0.0,0.0,0.0,0.0,2.4818,2.4464,0.0,0.0,0.0,0.0,0.0,0.0,0.0,0.0,0.0,0.0,0.0,0.0,0.0,0.0,0.0,3.175,0.0,0.0,0.0,0.0,0.0,0.0,0.0,0.0,0.0,0.0,0.0,0.0,3.007,3.028,3.0259,3.028,3.0259,3.0216,3.0248,3.0152,2.9946,2.9719,2.9448,0.0,0.0,0.0,0.0,0.0,0.0,0.0,0.0,0.0,0.0,0.0,0.0,0.0,0.0,0.0,0.0,0.0,0.0,0.0,0.0,0.0,0.0,0.0,0.0,0.0,0.0,0.0,0.0,0.0,0.0,0.0,0.0,0.0,0.0,0.0,0.0,0.0,0.0,2.9958,3.0403,3.0138,3.0233,2.9857,0.0,0.0,0.0,0.0,0.0,0.0,2.9645,2.9271,2.9265,2.9712,2.939,2.9539,3.0231,2.9916,2.9388,2.8644,2.8335,2.7837,2.721,2.721,2.721,2.721,2.721,2.721,2.7165,2.67,2.6513,2.6444,2.5899,2.5696,2.5696,2.5696,2.5696,2.5696,0.0,0.0,0.0,0.0,0.0,0.0,0.0,0.0,0.0,0.0,0.0,0.0,0.0,0.0,3.1344,3.0652,3.1872,3.1888,0.0,0.0,0.0,0.0,0.0,0.0,0.0,0.0,0.0,3.0445,3.0479,3.0437,3.0396,3.0447,3.0363,3.0216,3.0343,3.0322,3.0216,3.0761,3.035,2.933,0.0,0.0,0.0,0.0,0.0,0.0,0.0,0.0,0.0,0.0,0.0,0.0,0.0,0.0,0.0,0.0,0.0,0.0,0.0,0.0,0.0,0.0,0.0,0.0,0.0,0.0,0.0,0.0,0.0,0.0,0.0,0.0,0.0,0.0,0.0,0.0,0.0,0.0,0.0,3.106,3.1709,0.0,0.0,0.0,0.0,3.0359,3.0993,3.1612,3.2174,3.2196,3.2431,3.3031,3.2324,3.173,3.1407,3.0455,2.9491,2.8498,2.8299,2.7837,2.721,2.721,2.721,2.721,2.721,2.721,2.7165,2.67,2.6513,2.6444,2.5899,2.5696,2.5696,2.5696,2.5696,2.5696,0.0,0.0,0.0,0.0,0.0,0.0,0.0,0.0,0.0,0.0,0.0,0.0,0.0,3.1082,3.1011,3.126,3.0903,3.0538,3.0346,0.0,0.0,0.0,0.0,0.0,0.0,0.0,2.9506,3.0489,3.0489,3.0479,3.0447,3.0479,3.0458,3.0417,3.0426,3.0426,3.0396,3.0478,3.0543,3.0594,3.0809,3.0403,0.0,0.0,0.0,0.0,0.0,0.0,0.0,0.0,0.0,0.0,0.0,0.0,0.0,0.0,0.0,0.0,0.0,0.0,0.0,0.0,0.0,0.0,0.0,0.0,0.0,0.0,0.0,0.0,0.0,0.0,0.0,0.0,0.0,0.0,0.0,0.0,0.0,3.229,3.3009,0.0,0.0,3.2697,3.2869,3.2869,3.3494,3.398,3.4205,3.4205,3.4102,3.3898,3.3601,3.3208,3.265,3.2046,3.136,3.0613,2.9289,2.848,2.8128,2.7185,2.6909,2.721,2.721,2.721,2.7188,2.7004,2.6955,2.6932,2.6729,2.666,2.666,2.666,2.666,2.666,0.0,0.0,0.0,0.0,0.0,0.0,0.0,0.0,0.0,0.0,0.0,3.2017,3.1732,3.1225,3.0903,3.0903,3.0225,2.9968,3.0468,0.0,0.0,0.0,0.0,0.0,0.0,2.9254,2.9539,3.0489,3.0489,3.0357,3.0135,3.0135,3.0003,2.9814,3.0036,3.0135,3.0148,3.0507,3.0794,3.1002,3.1221,3.0945,3.0309,0.0,0.0,0.0,0.0,0.0,0.0,0.0,0.0,0.0,0.0,0.0,0.0,0.0,0.0,0.0,0.0,0.0,0.0,0.0,0.0,0.0,0.0,0.0,0.0,0.0,0.0,0.0,0.0,0.0,0.0,0.0,0.0,0.0,0.0,0.0,3.3784,3.3362,3.4221,3.4534,3.379,3.4215,3.4534,3.4534,3.4946,3.5189,3.5189,3.5189,3.4889,3.4217,3.4189,3.3854,3.3086,3.2828,3.2318,3.1581,3.0038,2.9073,2.8655,2.7422,2.699,2.721,2.721,2.721,2.721,2.721,2.721,2.721,2.721,2.721,2.721,2.721,2.721,2.721,0.0,0.0,0.0,0.0,0.0,0.0,0.0,0.0,0.0,0.0,3.2846,3.2525,3.1768,3.1653,3.1011,2.954,3.004,3.0468,3.0468,3.0468,0.0,0.0,0.0,0.0,2.9948,2.8953,2.9095,3.0456,3.0456,3.0092,2.9407,2.9407,2.9085,2.8475,2.9142,2.944,2.9539,3.0952,3.1108,3.0462,3.109,3.0948,3.0216,0.0,0.0,0.0,0.0,0.0,0.0,0.0,0.0,0.0,0.0,0.0,0.0,0.0,0.0,0.0,0.0,0.0,0.0,0.0,0.0,0.0,0.0,0.0,0.0,0.0,0.0,0.0,0.0,0.0,0.0,0.0,0.0,0.0,3.357,3.4307,3.4689,3.4232,3.536,3.5752,3.4713,3.5028,3.532,3.5273,3.5273,3.5273,3.5245,3.5245,3.4946,3.4245,3.4217,3.3746,3.2749,3.2749,3.2255,3.1267,3.0424,2.9576,2.8738,2.7867,2.7368,2.721,2.721,2.721,2.721,2.721,2.721,2.721,2.721,2.721,2.721,2.721,2.721,2.721,0.0,0.0,0.0,0.0,0.0,0.0,0.0,0.0,0.0,0.0,3.1875,3.1082,3.086,3.0368,2.9869,2.9433,2.9583,2.9683,2.9683,0.0,0.0,0.0,0.0,0.0,2.9201,2.9148,2.9307,2.9705,2.9705,2.9595,2.9407,2.9407,2.9605,2.9936,3.0135,3.0191,3.0224,3.0621,3.0677,3.0623,3.2387,3.2981,3.2739,0.0,0.0,0.0,0.0,0.0,0.0,0.0,0.0,0.0,0.0,0.0,0.0,0.0,0.0,0.0,0.0,0.0,0.0,0.0,0.0,0.0,0.0,0.0,0.0,0.0,0.0,0.0,0.0,0.0,0.0,0.0,0.0,3.4223,3.3965,3.51,3.5926,3.5764,3.6749,3.7279,3.6981,3.7515,3.7673,3.7195,3.7167,3.697,3.652,3.6492,3.6014,3.4946,3.4918,3.4554,3.3792,3.3792,3.3666,3.3367,3.1479,3.0405,2.9999,2.7928,2.7145,2.7412,2.7272,2.721,2.721,2.721,2.721,2.721,2.721,2.721,2.721,2.721,2.721,2.721,0.0,0.0,0.0,0.0,0.0,0.0,0.0,0.0,0.0,0.0,3.2089,3.151,3.151,3.0511,2.9861,2.9861,2.9255,2.9041,2.9369,0.0,0.0,0.0,0.0,2.872,2.9116,2.9284,2.9562,2.987,2.9562,2.9407,2.9397,2.9118,2.9218,2.9648,2.9903,3.0026,3.0069,3.0688,3.0952,3.1085,3.2696,3.2961,3.2398,3.2299,3.1957,3.1483,3.1043,3.0846,3.0661,2.9969,0.0,0.0,0.0,0.0,0.0,0.0,0.0,0.0,0.0,0.0,0.0,0.0,0.0,0.0,0.0,0.0,0.0,0.0,0.0,0.0,0.0,0.0,0.0,0.0,3.5067,3.5925,3.5712,3.6442,3.7206,3.7642,3.8156,3.84,3.8319,3.8657,3.8629,3.7962,3.7906,3.7625,3.7026,3.6998,3.6548,3.5611,3.5583,3.5255,3.4618,3.4347,3.4189,3.4171,3.2262,3.0913,3.0083,2.8264,2.7301,0.0,2.697,2.7024,2.721,2.721,2.721,0.0,0.0,0.0,0.0,0.0,2.721,2.721,0.0,0.0,0.0,0.0,0.0,0.0,0.0,0.0,0.0,0.0,0.0,3.2632,3.2632,3.126,3.0325,3.0254,2.9069,2.8627,0.0,0.0,0.0,2.8481,2.8824,2.9172,2.9477,2.9493,2.9794,3.039,2.9738,2.9407,2.9407,2.8797,2.8575,2.8664,2.9251,2.9529,2.9605,3.0919,3.1482,3.1548,3.2266,3.1901,3.0919,3.1615,3.1912,3.1979,3.1979,3.1979,3.1846,3.1129,0.0,0.0,0.0,0.0,0.0,0.0,0.0,0.0,0.0,0.0,0.0,0.0,0.0,0.0,0.0,0.0,0.0,0.0,0.0,0.0,0.0,0.0,0.0,0.0,3.6693,3.8301,3.8284,3.8227,3.8533,3.9367,3.9345,3.9199,3.9015,3.905,3.8825,3.8159,3.8046,3.7737,3.7139,0.0,0.0,0.0,0.0,3.578,3.5302,3.459,3.4245,3.4301,3.2864,3.1331,2.9689,2.8794,2.7767,2.6721,2.6622,2.6818,2.721,2.721,2.721,2.721,2.721,2.721,2.721,2.721,2.721,2.721,0.0,0.0,0.0,0.0,0.0,0.0,0.0,0.0,0.0,3.2882,3.1768,3.0975,3.0975,3.0147,2.9362,2.8713,2.8969,2.9104,0.0,0.0,2.9075,2.9171,2.9578,2.981,2.9892,3.0155,3.0069,2.9595,2.9473,2.9407,2.9407,2.9274,2.9506,3.0102,3.0234,3.0301,3.0323,3.0588,3.0721,3.0787,3.1526,3.2354,3.3171,3.3326,3.3723,3.4253,3.4253,3.4253,3.4154,3.3392,3.316,3.3061,3.2475,0.0,0.0,0.0,0.0,0.0,0.0,0.0,0.0,0.0,0.0,0.0,0.0,0.0,0.0,0.0,0.0,0.0,0.0,0.0,0.0,3.5927,3.768,3.9344,4.0349,4.0334,4.0006,3.9337,3.9517,3.9654,3.9613,4.009,4.0119,3.95,3.8966,3.8432,3.7765,3.7279,0.0,3.6117,3.5639,3.5555,3.592,3.4768,3.4459,3.5002,0.0,0.0,3.1072,2.9624,2.8641,2.8076,2.7374,2.7119,2.721,2.721,2.721,2.721,2.721,2.721,2.721,2.721,2.721,2.721,0.0,0.0,0.0,0.0,0.0,0.0,0.0,0.0,0.0,0.0,3.2196,3.1696,3.1696,3.1011,3.0404,3.0004,2.9933,0.0,0.0,2.9733,2.9872,2.9703,3.0257,3.047,3.0252,3.0416,3.0323,2.9959,2.9562,2.9605,2.9926,2.9572,2.9794,3.0489,3.0489,3.0489,3.0489,3.0489,3.0489,3.0555,3.1317,3.2255,3.3304,3.3668,3.4033,3.4397,3.4783,3.4883,3.4849,3.4452,3.4364,3.4364,3.4364,3.4099,3.3735,0.0,0.0,0.0,0.0,0.0,0.0,0.0,0.0,0.0,0.0,0.0,0.0,0.0,0.0,3.5915,0.0,0.0,3.7704,3.7339,3.887,4.034,4.0877,4.1048,4.0907,4.0366,4.0356,4.0337,4.0259,4.0519,4.0435,3.9866,3.9247,3.86,3.7934,3.7316,3.6857,3.6548,3.5977,3.5949,3.6548,3.5321,3.4861,3.5189,3.4122,3.2654,3.0935,3.0117,2.9107,2.795,2.7215,2.7025,2.7242,2.7218,2.721,2.721,2.721,2.721,2.721,2.721,2.721,2.721,0.0,0.0,0.0,0.0,0.0,0.0,0.0,0.0,0.0,0.0,3.2671,3.2564,3.2564,3.1987,3.1588,0.0,0.0,0.0,0.0,3.0583,3.0636,3.0065,3.0603,3.0764,3.0437,3.0426,3.0426,3.0426,3.0028,3.0104,3.0667,3.0257,3.0367,3.093,3.093,3.093,3.093,3.0754,3.0797,3.0996,3.1559,3.2266,3.3006,3.3735,3.3988,3.4087,3.4696,3.4883,3.4883,3.4883,3.4883,3.5015,3.5777,3.5578,3.5081,3.4949,3.4811,0.0,0.0,0.0,0.0,0.0,0.0,0.0,0.0,0.0,3.7145,3.7973,3.8149,3.8147,3.8231,3.914,3.9664,3.8932,4.0207,4.1198,4.1003,4.1227,4.1375,4.1332,4.1114,4.0873,4.0709,4.0688,4.0491,4.0006,3.9416,3.8797,3.8131,3.7532,3.7139,3.6998,3.6408,3.6379,3.6998,3.5808,3.5152,3.5078,3.4406,3.2873,3.0634,3.0499,2.9553,2.7947,2.7214,2.7014,2.7135,2.7105,2.705,2.705,2.705,2.7119,2.721,2.721,2.721,2.721,0.0,0.0,0.0,0.0,0.0,0.0,0.0,0.0,0.0,0.0,0.0,0.0,0.0,0.0,0.0,0.0,0.0,0.0,3.0069,3.0169,3.0196,3.0179,3.0257,3.0268,3.0215,3.0215,3.0215,3.0215,3.0925,3.1308,3.1407,3.2034,3.2376,3.2442,3.2442,3.2442,3.2409,3.1758,3.1857,3.2475,3.2542,3.3006,3.3768,3.4497,3.4783,3.4783,3.4849,3.4883,3.4883,3.4883,3.4883,3.5015,3.5777,3.5943,3.5744,3.5081,0.0,3.4705,0.0,0.0,0.0,3.6089,3.673,3.7501,0.0,0.0,3.9523,4.0867,4.1111,4.1139,4.1213,4.1669,4.1827,4.1141,4.1567,4.1914,4.1657,4.1485,4.1311,4.1064,4.0859,4.0709,4.0688,4.0688,4.0659,4.0603,4.0034,3.9444,3.8825,3.8179,3.754,3.7026,3.6408,3.6379,3.6998,3.5808,3.5022,3.4667,3.3993,3.2891,3.1462,3.0854,3.0265,2.9668,2.8523,2.747,2.6591,2.6592,2.6582,2.6582,2.6582,2.6818,2.721,2.721,2.721,2.721,0.0,0.0,0.0,0.0,0.0,0.0,0.0,0.0,0.0,0.0,0.0,0.0,0.0,0.0,0.0,0.0,0.0,0.0,3.0827,3.1381,3.127,3.0227,3.0609,3.0642,3.0205,3.0216,3.0216,3.0216,3.0991,3.1386,3.1418,3.2142,3.245,3.245,3.245,3.2495,3.2562,3.2254,3.2332,3.2774,3.3635,3.4165,3.4518,3.5247,3.5545,3.5446,3.4551,3.4265,0.0,0.0,3.4265,3.4452,3.5644,3.6009,3.5943,3.5644,3.5843,0.0,3.581,0.0,0.0,0.0,3.7902,3.8732,3.9361,4.0121,4.0981,4.197,4.252,4.2815,4.285,4.2936,4.2738,0.0,4.1889,4.1793,4.1564,4.1325,4.0951,4.0372,4.0527,4.0688,4.0688,4.0688,4.0688,4.0688,3.9837,3.9163,3.893,3.7926,3.7279,3.7026,3.6408,3.6115,3.6136,3.5272,3.4454,3.3731,3.3439,3.2706,3.1606,3.132,3.0414,2.9036,2.8147,2.7146,2.6088,2.6039,2.6217,2.6513,2.6513,2.6792,2.721,2.721,2.721,2.721,0.0,0.0,0.0,0.0,0.0,0.0,0.0,0.0,0.0,0.0,0.0,0.0,0.0,0.0,0.0,0.0,0.0,0.0,0.0,3.1945,3.1857,3.0446,3.1088,3.1251,3.0696,3.0696,3.0696,3.0696,3.1448,3.1831,3.1831,3.2574,3.2913,3.2913,3.2913,3.2971,3.3031,3.2822,3.2912,3.33,3.4393,3.4967,3.5199,3.5798,3.5876,3.5545,3.4265,3.3801,0.0,0.0,3.3503,3.3735,3.4982,3.5545,3.5711,3.5711,3.605,3.6476,3.6687,0.0,0.0,3.7758,3.9028,4.0074,4.0074,4.1013,4.2147,4.3023,4.3638,4.4122,4.452,4.4109,0.0,4.2908,4.2164,4.1598,4.1325,4.0993,4.052,3.9887,4.0182,4.0435,4.0435,4.0603,4.0688,4.0688,3.9753,3.9078,3.893,3.7841,3.7167,3.7026,3.6576,3.6095,3.5524,3.5081,3.4209,3.2938,3.2938,3.2391,3.144,3.144,3.0577,2.9058,2.8318,2.733,2.6293,2.6226,2.6306,2.6522,2.6681,2.6932,2.721,2.721,2.721,2.721,0.0,0.0,0.0,0.0,0.0,0.0,0.0,0.0,0.0,0.0,0.0,0.0,0.0,0.0,0.0,0.0,0.0,0.0,0.0,3.1023,3.1276,3.0895,3.1607,3.1975,3.1931,3.1931,3.1931,3.1931,3.2742,3.3148,3.316,3.4043,3.4431,3.4431,3.4431,3.4443,3.4399,3.3678,3.3788,3.4456,3.4655,3.5131,3.5803,3.5927,3.5545,3.4816,3.4066,0.0,0.0,0.0,3.274,3.2873,3.3635,3.4364,0.0,3.4916,3.4865,0.0,0.0,0.0,3.766,3.839,4.0079,4.1547,4.1547,4.2067,4.299,4.4431,4.4755,4.5176,4.6551,4.5507,4.4354,4.4083,4.2711,4.1527,4.1085,4.0519,4.0067,3.983,3.9837,3.9837,0.0,4.035,4.0688,4.0688,4.0119,3.9528,3.893,3.8263,3.7597,3.7026,3.697,3.6495,3.5524,3.5496,3.4479,3.2516,3.2516,3.1997,3.1011,3.1011,3.0992,3.0839,2.9672,2.8547,2.7541,2.7482,2.7074,2.6562,2.7122,2.7311,2.721,2.721,2.721,2.721,0.0,0.0,0.0,0.0,0.0,0.0,0.0,0.0,0.0,0.0,0.0,0.0,0.0,0.0,0.0,0.0,0.0,0.0,0.0,3.0708,3.1117,2.9567,3.1121,3.1757,3.126,3.1757,3.1984,3.1984,3.2756,3.3137,3.317,3.3888,3.4238,3.4238,3.4238,3.4288,3.4362,3.4635,3.4652,3.4595,3.5608,3.5883,3.562,3.5177,3.5206,3.5225,0.0,0.0,0.0,0.0,0.0,0.0,3.3392,0.0,0.0,3.475,0.0,0.0,0.0,0.0,3.8507,3.9711,4.0794,4.1742,4.2164,4.2829,4.3605,4.4593,4.4399,4.4366,4.5338,4.4197,4.3027,4.2743,4.2049,4.1367,4.1043,4.0704,4.0182,3.9324,3.9556,0.0,0.0,0.0,0.0,4.0119,3.9114,3.844,3.8263,3.7625,3.7223,3.7026,3.6998,3.6406,3.5116,3.4706,3.3873,3.262,3.262,3.2463,3.2143,3.2143,3.1724,3.0955,3.0138,2.9161,2.8091,2.7704,2.763,2.7664,2.7497,2.7376,2.7308,2.7235,2.7004,2.6772,0.0,0.0,0.0,0.0,0.0,0.0,0.0,0.0,0.0,0.0,0.0,0.0,0.0,0.0,0.0,0.0,0.0,0.0,0.0,0.0,3.098,2.9599,3.1121,3.179,3.1292,3.1757,3.1984,3.1984,3.2752,3.3109,3.3109,3.3777,3.4101,3.4101,3.4101,3.428,3.4628,3.4856,3.4711,3.446,3.5731,3.5776,3.5122,3.4943,3.5083,0.0,0.0,0.0,0.0,0.0,0.0,0.0,0.0,0.0,0.0,0.0,0.0,0.0,0.0,3.7802,3.8859,4.0289,4.1106,4.1791,4.244,4.299,4.3508,4.4237,4.38,4.3541,4.4269,4.3043,4.1783,4.1291,4.0695,4.0267,4.0258,3.9752,3.9339,3.9219,3.936,0.0,0.0,0.0,0.0,3.9472,3.8496,3.7906,3.7906,3.7316,3.6998,3.6998,3.6842,3.6172,3.492,3.4364,3.3619,3.2698,3.2698,3.2803,3.3012,3.2803,3.2431,3.1869,3.0625,2.965,2.8909,2.8114,2.7862,2.7931,2.7741,2.7542,2.7331,2.7215,2.7004,2.6795,0.0,0.0,0.0,0.0,0.0,0.0,0.0,0.0,0.0,0.0,0.0,0.0,0.0,0.0,0.0,0.0,0.0,0.0,0.0,0.0,0.0,3.072,3.1443,3.1863,3.1951,3.1984,3.2004,3.2049,3.2752,3.3109,3.3174,3.3809,3.4101,3.4101,3.4101,3.4502,3.5085,3.4437,3.4133,3.4178,3.5031,3.4951,3.4378,3.5155,0.0,0.0,0.0,0.0,0.0,0.0,0.0,0.0,0.0,0.0,0.0,0.0,0.0,3.5733,3.714,3.7954,3.8732,4.0156,4.1046,4.1791,4.244,4.2554,4.2764,4.3476,4.299,4.2667,0.0,0.0,4.0736,3.9932,3.9,3.8532,3.8951,3.7954,3.7841,0.0,0.0,0.0,0.0,0.0,0.0,3.8902,0.0,3.7906,3.7906,3.7324,3.6987,3.6959,3.6575,3.5884,3.4908,3.4433,3.3728,3.2771,3.2751,3.3064,3.3561,3.3032,3.3038,3.3436,3.1118,3.0132,3.0049,2.8883,2.8067,2.7587,2.8132,2.7878,2.7246,2.7249,2.7208,2.7165,0.0,0.0,0.0,0.0,0.0,0.0,0.0,0.0,0.0,0.0,0.0,0.0,0.0,0.0,0.0,0.0,0.0,0.0,0.0,0.0,0.0,0.0,0.0,0.0,0.0,0.0,0.0,0.0,0.0,3.3368,3.3841,3.4003,3.4101,3.4101,3.4101,3.4198,3.4392,3.4761,3.4599,3.4165,0.0,3.4812,3.4131,0.0,0.0,0.0,0.0,0.0,0.0,0.0,0.0,0.0,0.0,0.0,3.5873,0.0,0.0,3.6345,3.7256,3.7954,3.8732,4.0156,4.1046,4.1791,4.244,4.2213,4.2035,4.2731,4.1501,4.0495,0.0,0.0,0.0,3.9574,3.9615,0.0,4.0196,3.9957,0.0,0.0,0.0,3.9444,3.9163,3.8986,0.0,0.0,3.8291,3.7906,3.7906,3.7466,3.7007,3.6563,3.6118,3.5615,3.5049,3.458,3.4003,3.3398,3.377,3.3822,3.3587,3.343,3.3195,3.2908,3.228,3.2019,3.1973,3.1681,3.1196,3.0624,3.0321,2.9322,2.8019,2.7953,2.7422,2.6746,0.0,0.0,0.0,0.0,0.0,0.0,0.0,0.0,0.0,0.0,0.0,0.0,0.0,0.0,0.0,0.0,0.0,0.0,0.0,0.0,0.0,0.0,0.0,0.0,0.0,0.0,0.0,0.0,0.0,0.0,0.0,3.361,3.3939,3.368,3.3971,3.4101,3.4133,0.0,0.0,0.0,0.0,0.0,0.0,0.0,0.0,0.0,0.0,0.0,0.0,0.0,0.0,3.4946,3.5324,3.5914,3.6541,3.6888,0.0,3.6967,3.7695,3.814,3.8732,4.0156,4.0592,4.0851,4.1534,4.1387,4.1143,4.1225,4.0318,0.0,0.0,0.0,0.0,0.0,0.0,0.0,3.9802,3.9648,3.9648,0.0,3.9978,0.0,3.9697,3.9444,3.9388,0.0,3.8853,3.8347,3.8347,3.7671,3.7151,3.6819,3.5913,3.5223,3.4791,3.4522,3.4241,3.3953,3.4267,3.4241,3.3953,3.3953,3.377,3.343,0.0,3.2656,3.2636,3.2071,3.1669,3.1303,3.0712,2.9747,2.8556,2.8315,2.775,2.7182,0.0,0.0,0.0,0.0,0.0,0.0,0.0,0.0,0.0,0.0,0.0,0.0,0.0,0.0,0.0,0.0,0.0,0.0,0.0,0.0,0.0,0.0,0.0,0.0,0.0,0.0,0.0,0.0,0.0,0.0,0.0,0.0,0.0,0.0,0.0,0.0,0.0,0.0,0.0,0.0,0.0,0.0,0.0,0.0,0.0,0.0,0.0,0.0,0.0,0.0,3.5552,3.5766,3.6457,3.6651,3.6705,3.7397,3.7486,3.7455,3.8213,3.8343,3.8634,4.0124,4.0009,3.9685,4.0366,4.043,4.0171,3.9491,0.0,0.0,3.8801,0.0,3.7361,3.7245,0.0,3.7476,3.8825,3.8516,3.8777,4.0491,4.0238,4.0147,4.0659,4.021,4.0147,4.0659,3.9725,3.9078,3.9022,3.8019,3.7339,3.7133,3.5843,3.4924,3.4528,3.4528,3.4476,3.4397,3.4476,3.4424,3.4293,3.4293,3.4293,3.4246,0.0,0.0,3.2765,3.1701,3.1249,3.1104,3.0555,2.9886,2.9176,2.8596,2.8269,2.8102,0.0,0.0,0.0,0.0,0.0,0.0,0.0,0.0,0.0,0.0,0.0,0.0,0.0,0.0,0.0,0.0,0.0,0.0,0.0,0.0,0.0,0.0,0.0,0.0,0.0,0.0,0.0,0.0,0.0,0.0,0.0,0.0,0.0,0.0,0.0,0.0,0.0,0.0,0.0,0.0,0.0,0.0,0.0,0.0,0.0,0.0,0.0,0.0,0.0,0.0,3.695,3.701,3.7134,3.7561,3.8051,3.8209,3.7806,3.7455,3.8213,3.794,3.7973,3.9994,4.0009,3.9685,4.0366,4.0074,0.0,0.0,0.0,3.7515,3.7424,3.658,0.0,3.7209,0.0,0.0,0.0,0.0,3.9781,0.0,0.0,0.0,0.0,0.0,0.0,0.0,0.0,4.0175,3.9669,3.8723,3.7639,3.6335,3.5631,3.5241,3.5129,3.5129,3.4894,3.4397,3.4894,3.4659,3.3744,3.3744,3.3744,3.3718,0.0,0.0,3.4074,3.3866,3.3514,3.3038,3.2357,3.1385,3.0329,2.9675,2.9068,2.8586,0.0,0.0,0.0,0.0,0.0,0.0,0.0,0.0,0.0,0.0,0.0,0.0,0.0,0.0,0.0,0.0,0.0,0.0,0.0,0.0,0.0,0.0,0.0,0.0,0.0,0.0,0.0,0.0,0.0,0.0,0.0,0.0,0.0,0.0,0.0,0.0,0.0,0.0,0.0,0.0,0.0,0.0,0.0,0.0,0.0,0.0,0.0,0.0,0.0,0.0,3.7552,3.7876,3.7876,3.8116,3.8408,3.8408,3.8149,3.7954,3.8311,3.8149,3.8311,4.0059,4.0009,3.9588,3.9912,0.0,0.0,0.0,0.0,3.6798,3.6662,0.0,0.0,0.0,0.0,0.0,0.0,0.0,0.0,0.0,0.0,0.0,0.0,0.0,0.0,0.0,0.0,0.0,3.9925,3.8733,3.7314,3.5726,3.5443,3.5286,3.5286,3.4972,3.4842,3.4868,3.5155,3.4842,3.4031,3.4345,3.4319,3.4005,3.4005,0.0,3.4397,3.4397,3.4241,3.3959,3.3317,3.2288,3.1097,3.0452,2.9742,2.9114,0.0,0.0,0.0,0.0,0.0,0.0,0.0,0.0,0.0,0.0,0.0,0.0,0.0,0.0,0.0,0.0,0.0,0.0,0.0,0.0,0.0,0.0,0.0,0.0,0.0,0.0,0.0,0.0,0.0,0.0,0.0,0.0,0.0,0.0,0.0,0.0,0.0,0.0,0.0,0.0,0.0,0.0,0.0,0.0,0.0,0.0,0.0,0.0,0.0,0.0,3.7908,3.8408,3.8408,3.8408,3.844,3.857,3.8634,3.8667,3.8796,3.8732,3.8958,4.0398,4.0106,3.9491,3.9491,3.9137,0.0,0.0,0.0,0.0,0.0,0.0,0.0,0.0,0.0,0.0,0.0,0.0,0.0,0.0,0.0,0.0,0.0,0.0,0.0,0.0,0.0,0.0,3.9519,3.849,3.7206,3.5726,3.5547,3.5469,3.5469,3.4894,3.4763,3.5103,3.5338,3.5155,3.4607,3.5077,3.5103,3.4737,3.4502,0.0,0.0,3.445,3.4397,3.4324,3.3618,3.2663,3.1663,3.0858,3.019,2.9642,0.0,0.0,0.0,0.0,0.0,0.0,0.0,0.0,0.0,0.0,0.0,0.0,0.0,0.0,0.0,0.0,0.0,0.0,0.0,0.0,0.0,0.0,0.0,0.0,0.0,0.0,0.0,0.0,0.0,0.0,0.0,0.0,0.0,0.0,0.0,0.0,0.0,0.0,0.0,0.0,0.0,0.0,0.0,0.0,0.0,0.0,0.0,0.0,0.0,0.0,0.0,3.8408,3.8408,3.8408,3.8537,3.9199,0.0,0.0,4.0124,3.9847,3.9718,4.1158,4.051,3.9491,3.9491,0.0,0.0,0.0,3.5722,3.509,3.6111,0.0,0.0,0.0,0.0,0.0,0.0,0.0,0.0,0.0,0.0,0.0,0.0,0.0,0.0,0.0,0.0,0.0,3.7931,3.83,3.8005,3.6877,3.6305,3.6044,3.6044,3.5495,3.4972,3.4502,3.5521,3.573,3.5208,3.526,3.5547,3.5887,0.0,0.0,0.0,3.4633,3.4397,3.4272,3.2921,3.2336,3.2076,3.0751,3.0191,3.0124,0.0,0.0,0.0,0.0,0.0,0.0,0.0,0.0,0.0,0.0,0.0,0.0,0.0,0.0,0.0,0.0,0.0,0.0,0.0,0.0,0.0,0.0,0.0,0.0,0.0,0.0,0.0,0.0,0.0,0.0,0.0,0.0,0.0,0.0,0.0,0.0,0.0,0.0,0.0,0.0,0.0,0.0,0.0,0.0,0.0,0.0,0.0,0.0,0.0,0.0,0.0,0.0,3.8408,3.8408,0.0,0.0,3.8843,3.8908,3.9153,3.9023,3.9142,4.0322,3.9906,3.9176,3.9058,0.0,0.0,3.6261,3.5603,3.5355,3.55,3.5404,0.0,0.0,0.0,0.0,0.0,0.0,0.0,0.0,0.0,0.0,0.0,0.0,0.0,0.0,0.0,0.0,3.7302,3.717,3.6739,3.5992,3.573,3.5626,3.5626,3.5417,3.5338,3.5443,3.6253,3.6332,3.5783,3.6149,3.6253,3.607,0.0,0.0,0.0,3.4659,3.4397,3.4335,3.3784,3.3318,3.2889,3.2326,3.1605,3.0847,0.0,0.0,0.0,0.0,0.0,0.0,0.0,0.0,0.0,0.0,0.0,0.0,0.0,0.0,0.0,0.0,0.0,0.0,0.0,0.0,0.0,0.0,0.0,0.0,0.0,0.0,0.0,0.0,0.0,0.0,0.0,0.0,0.0,0.0,0.0,0.0,0.0,0.0,0.0,0.0,0.0,0.0,0.0,0.0,0.0,0.0,0.0,0.0,0.0,0.0,0.0,0.0,0.0,0.0,0.0,0.0,3.8789,3.9027,3.9064,3.9128,3.9403,4.0257,3.9812,3.9056,0.0,0.0,3.7409,3.5966,3.5638,3.5613,3.5557,3.5869,3.5977,3.5527,0.0,3.6717,0.0,0.0,0.0,0.0,0.0,0.0,0.0,0.0,0.0,0.0,0.0,0.0,0.0,3.6436,3.6018,3.5809,3.5809,3.5809,3.5809,3.5626,3.573,3.6123,3.6724,3.6776,3.6384,3.6802,3.6881,3.6593,0.0,0.0,0.0,3.4894,3.4554,3.4377,3.4189,3.381,3.3343,3.2936,3.2154,3.1272,0.0,0.0,0.0,0.0,0.0,0.0,0.0,0.0,0.0,0.0,0.0,0.0,0.0,0.0,0.0,0.0,0.0,0.0,0.0,0.0,0.0,0.0,0.0,0.0,0.0,0.0,0.0,0.0,0.0,0.0,0.0,0.0,0.0,0.0,0.0,0.0,0.0,0.0,0.0,0.0,0.0,0.0,0.0,0.0,0.0,0.0,0.0,0.0,0.0,0.0,0.0,0.0,0.0,0.0,0.0,0.0,3.9693,4.0475,4.0547,4.0817,4.1151,4.1497,4.0514,3.9346,0.0,0.0,3.7199,3.6427,3.5705,3.5543,3.6659,3.6466,3.6117,3.6089,3.6117,0.0,0.0,0.0,0.0,0.0,0.0,0.0,0.0,0.0,0.0,0.0,0.0,0.0,0.0,3.6436,3.6384,3.6959,3.6985,3.6985,3.6985,3.6384,3.6096,3.6123,3.6724,3.7011,3.6985,3.7011,3.7325,0.0,0.0,0.0,0.0,3.5521,3.4946,3.4335,3.3662,3.3407,3.3215,3.1825,3.1294,3.1206,0.0,0.0,0.0,0.0,0.0,0.0,0.0,0.0,0.0,0.0,0.0,0.0,0.0,0.0,0.0,0.0,0.0,0.0,0.0,0.0,0.0,0.0,0.0,0.0,0.0,0.0,0.0,0.0,0.0,0.0,0.0,0.0,0.0,0.0,0.0,0.0,0.0,0.0,0.0,0.0,0.0,0.0,0.0,0.0,0.0,0.0,0.0,0.0,0.0,0.0,0.0,0.0,0.0,0.0,0.0,0.0,0.0,0.0,3.8426,3.8806,3.936,3.9737,3.9178,3.8569,3.8696,0.0,3.675,3.6196,3.6227,3.6369,3.6344,3.655,3.6436,3.5611,3.5836,0.0,0.0,0.0,0.0,0.0,0.0,0.0,0.0,0.0,0.0,0.0,0.0,0.0,0.0,3.7429,3.7037,3.641,3.6384,3.6384,3.6384,3.6593,3.6724,3.6724,3.7325,3.7612,3.7612,3.7612,0.0,0.0,0.0,0.0,0.0,3.5077,3.458,3.4377,3.4168,3.4084,3.4093,3.4054,3.3402,3.2564,0.0,0.0,0.0,0.0,0.0,0.0,0.0,0.0,0.0,0.0,0.0,0.0,0.0,0.0,0.0,0.0,0.0,0.0,0.0,0.0,0.0,0.0,0.0,0.0,0.0,0.0,0.0,0.0,0.0,0.0,0.0,0.0,0.0,0.0,0.0,0.0,0.0,0.0,0.0,0.0,0.0,0.0,0.0,0.0,0.0,0.0,0.0,0.0,0.0,0.0,0.0,0.0,0.0,0.0,0.0,0.0,0.0,0.0,0.0,3.8215,3.8999,3.8886,3.873,0.0,0.0,0.0,3.691,3.62,3.653,3.6826,3.6512,3.6745,3.6745,3.6005,3.6379,0.0,0.0,0.0,0.0,0.0,0.0,0.0,0.0,0.0,0.0,0.0,0.0,0.0,0.0,3.79,3.756,3.6802,3.6776,3.6776,3.6776,3.7168,3.7351,3.7351,3.7717,3.79,3.79,3.79,0.0,0.0,0.0,0.0,0.0,3.5025,3.4607,3.4397,3.4397,3.4528,3.4726,3.4529,3.4019,3.3369,0.0,0.0,0.0,0.0,0.0,0.0,0.0,0.0,0.0,0.0,0.0,0.0,0.0,0.0,0.0,0.0,0.0,0.0,0.0,0.0,0.0,0.0,0.0,0.0,0.0,0.0,0.0,0.0,3.372,3.4028,3.3398,0.0,0.0,0.0,0.0,0.0,0.0,0.0,0.0,0.0,0.0,0.0,0.0,0.0,0.0,0.0,0.0,0.0,0.0,0.0,0.0,0.0,0.0,0.0,0.0,0.0,0.0,0.0,0.0,0.0,0.0,0.0,0.0,0.0,0.0,0.0,0.0,0.0,3.6615,3.6998,3.6998,3.6998,3.6998,3.6942,3.7484,0.0,0.0,0.0,0.0,0.0,0.0,0.0,0.0,0.0,0.0,0.0,0.0,0.0,0.0,3.79,3.79,3.79,3.79,3.79,3.79,3.79,3.79,3.79,3.79,3.79,3.79,3.79,0.0,0.0,0.0,0.0,0.0,3.5338,3.4999,3.4528,3.4528,3.4868,3.5214,3.3862,3.367,3.3859,0.0,0.0,0.0,0.0,0.0,0.0,0.0,0.0,0.0,0.0,0.0,0.0,0.0,0.0,0.0,0.0,0.0,0.0,0.0,0.0,0.0,0.0,0.0,0.0,0.0,0.0,0.0,3.3152,3.2981,3.3074,3.3398,3.2875,0.0,0.0,0.0,0.0,0.0,0.0,0.0,0.0,0.0,0.0,0.0,0.0,0.0,0.0,0.0,0.0,0.0,0.0,0.0,0.0,0.0,0.0,0.0,0.0,0.0,0.0,0.0,0.0,0.0,0.0,0.0,0.0,0.0,0.0,0.0,0.0,0.0,3.6998,3.6998,3.6998,3.6857,3.6379,3.7223,0.0,0.0,0.0,0.0,0.0,0.0,0.0,0.0,0.0,0.0,0.0,0.0,0.0,0.0,3.79,3.79,3.79,3.79,3.79,3.79,3.79,3.79,3.79,3.79,3.79,3.79,3.79,0.0,0.0,0.0,0.0,3.6541,3.5652,3.5469,3.5704,3.5704,3.5783,3.5922,3.6034,3.5794,3.5372,0.0,0.0,0.0,0.0,0.0,0.0,0.0,0.0,0.0,0.0,0.0,0.0,0.0,0.0,0.0,0.0,0.0,0.0,0.0,0.0,0.0,0.0,0.0,0.0,0.0,0.0,0.0,0.0,0.0,3.3675,0.0,0.0,0.0,0.0,0.0,0.0,0.0,0.0,0.0,0.0,0.0,0.0,0.0,0.0,0.0,0.0,0.0,0.0,0.0,3.6708,3.6662,3.6523,0.0,0.0,0.0,0.0,0.0,0.0,0.0,0.0,0.0,0.0,0.0,0.0,0.0,0.0,0.0,0.0,0.0,0.0,3.6998,0.0,0.0,0.0,0.0,0.0,0.0,0.0,0.0,0.0,0.0,0.0,0.0,0.0,0.0,0.0,0.0,0.0,0.0,3.79,3.79,3.79,3.79,3.79,3.79,3.79,3.79,3.79,3.79,3.79,3.79,3.79,0.0,0.0,0.0,0.0,3.6541,3.5913,3.5835,3.6096,3.6096,3.6279,3.6523,3.6499,3.6393,3.6231,0.0,0.0,0.0,0.0,0.0,0.0,0.0,0.0,0.0,0.0,0.0,0.0,0.0,0.0,0.0,0.0,0.0,0.0,0.0,0.0,0.0,0.0,0.0,0.0,0.0,0.0,0.0,0.0,0.0,0.0,0.0,0.0,0.0,0.0,0.0,0.0,0.0,0.0,0.0,0.0,0.0,0.0,0.0,0.0,0.0,0.0,0.0,0.0,0.0,3.6523,3.6523,3.6523,3.6523,0.0,0.0,0.0,0.0,0.0,0.0,0.0,0.0,0.0,0.0,0.0,0.0,0.0,0.0,0.0,0.0,0.0,0.0,0.0,0.0,0.0,0.0,0.0,0.0,0.0,0.0,0.0,0.0,0.0,0.0,0.0,0.0,0.0,0.0,0.0,0.0,3.79,3.79,3.79,3.79,3.79,3.79,3.79,3.79,3.79,3.79,3.79,3.79,3.79,3.7612,0.0,0.0,0.0,3.6384,3.6279,3.6305,3.6384,3.6384,3.6698,3.7074,3.6436,3.6488,3.6781,0.0,0.0,0.0,0.0,0.0,0.0,0.0,0.0,0.0,0.0,0.0,0.0,0.0,0.0,0.0,0.0,0.0,0.0,0.0,0.0,0.0,0.0,0.0,0.0,0.0,0.0,0.0,0.0,0.0,0.0,3.5168,3.472,3.4813,0.0,0.0,0.0,0.0,0.0,0.0,0.0,0.0,0.0,0.0,0.0,0.0,0.0,0.0,0.0,0.0,3.6523,3.6523,3.6523,3.6523,0.0,0.0,0.0,0.0,0.0,3.6521,0.0,0.0,0.0,0.0,0.0,0.0,0.0,0.0,0.0,0.0,0.0,0.0,0.0,0.0,0.0,0.0,0.0,0.0,0.0,0.0,0.0,0.0,0.0,0.0,0.0,0.0,0.0,0.0,0.0,0.0,0.0,3.79,3.79,3.79,3.79,3.79,3.79,3.79,3.79,3.79,3.79,3.79,3.79,3.7848,0.0,0.0,3.7246,3.7586,3.7063,3.7168,3.7612,3.7612,3.7691,3.7746,3.7632,3.7661,3.7598,0.0,0.0,0.0,0.0,0.0,0.0,0.0,0.0,0.0,0.0,0.0,0.0,0.0,0.0,0.0,0.0,0.0,0.0,0.0,0.0,0.0,0.0,0.0,0.0,0.0,0.0,0.0,0.0,0.0,3.4675,3.4952,3.5028,3.5383,3.6061,0.0,0.0,0.0,0.0,0.0,0.0,0.0,0.0,0.0,0.0,0.0,0.0,0.0,0.0,0.0,0.0,3.6523,3.6523,3.6523,0.0,0.0,0.0,0.0,0.0,3.6163,3.6603,0.0,0.0,0.0,0.0,0.0,0.0,0.0,0.0,0.0,0.0,0.0,0.0,0.0,0.0,0.0,0.0,0.0,0.0,0.0,0.0,0.0,0.0,0.0,0.0,0.0,0.0,0.0,0.0,0.0,0.0,3.79,3.79,3.79,3.79,3.79,3.79,3.79,3.79,3.79,3.79,3.79,3.79,3.79,3.7874,0.0,3.7639,3.7874,3.7612,3.7665,3.79,3.79,3.79,3.79,3.79,3.7621,3.7132,0.0,0.0,0.0,0.0,0.0,0.0,0.0,0.0,0.0,0.0,0.0,0.0,0.0,0.0,0.0,0.0,0.0,0.0,0.0,0.0,0.0,0.0,0.0,0.0,0.0,0.0,0.0,3.3891,3.4983,3.5322,3.4998,3.5506,3.5999,0.0,0.0,0.0,0.0,0.0,0.0,0.0,0.0,0.0,0.0,0.0,0.0,0.0,0.0,0.0,0.0,0.0,0.0,0.0,0.0,0.0,0.0,3.6523,3.6523,3.6398,3.599,3.6806,0.0,0.0,0.0,0.0,0.0,0.0,0.0,0.0,0.0,0.0,0.0,0.0,0.0,0.0,0.0,0.0,0.0,0.0,0.0,0.0,0.0,0.0,0.0,0.0,0.0,0.0,0.0,0.0,0.0,0.0,3.79,3.79,3.79,3.79,3.79,3.79,3.79,3.79,3.79,3.79,3.79,3.79,3.79,3.79,3.79,3.79,3.79,3.79,3.79,3.79,3.79,3.79,3.79,3.79,3.739,3.6615,0.0,0.0,0.0,0.0,0.0,0.0,0.0,0.0,0.0,0.0,0.0,0.0,0.0,0.0,0.0,0.0,0.0,0.0,0.0,0.0,0.0,0.0,0.0,0.0,0.0,3.3429,3.4075,3.5352,3.5445,3.5783,3.6369,3.6399,3.6461,3.6523,0.0,0.0,0.0,0.0,0.0,0.0,0.0,0.0,0.0,0.0,0.0,0.0,0.0,0.0,0.0,0.0,0.0,0.0,0.0,0.0,3.6523,3.6523,3.6523,3.6476,3.6445,3.7399,3.8276,0.0,0.0,0.0,0.0,0.0,0.0,0.0,0.0,0.0,0.0,0.0,0.0,0.0,0.0,0.0,0.0,0.0,0.0,0.0,0.0,0.0,0.0,0.0,0.0,0.0,0.0,0.0,0.0,0.0,0.0,3.79,3.79,3.79,3.79,3.79,3.79,3.79,3.79,3.79,3.79,3.79,3.79,3.79,3.79,3.79,3.79,3.79,3.79,3.79,3.79,3.79,3.79,3.79,3.739,3.6686,0.0,0.0,0.0,0.0,0.0,0.0,0.0,0.0,0.0,0.0,0.0,0.0,0.0,0.0,0.0,0.0,0.0,0.0,0.0,0.0,0.0,0.0,0.0,3.4367,3.409,3.409,3.4552,3.5506,3.5907,3.6245,3.6523,3.6523,0.0,0.0,0.0,0.0,0.0,0.0,0.0,0.0,0.0,0.0,0.0,0.0,0.0,0.0,0.0,0.0,0.0,0.0,3.6523,3.6523,3.6523,3.6523,3.6523,3.6523,3.6523,3.6523,3.6523,3.7492,3.843,0.0,0.0,0.0,0.0,0.0,0.0,0.0,0.0,0.0,0.0,0.0,0.0,0.0,0.0,0.0,0.0,0.0,0.0,0.0,0.0,0.0,0.0,0.0,0.0,0.0,0.0,0.0,0.0,0.0,0.0,3.79,3.79,3.79,3.79,3.79,3.79,3.79,3.79,3.79,3.79,3.79,3.79,3.79,3.79,3.79,3.79,3.79,3.79,3.79,3.79,3.79,3.79,3.79,3.739,3.6639,0.0,0.0,0.0,0.0,0.0,0.0,0.0,0.0,0.0,0.0,0.0,0.0,0.0,0.0,0.0,0.0,0.0,0.0,0.0,0.0,0.0,0.0,0.0,3.489,3.5152,3.4921,3.5137,3.5814,3.6276,3.6523,3.6523,0.0,0.0,0.0,0.0,0.0,0.0,0.0,0.0,0.0,0.0,0.0,0.0,0.0,0.0,0.0,0.0,0.0,0.0,0.0,3.6523,3.6523,3.6523,3.6523,3.6523,3.6523,3.6523,3.6523,3.6523,3.7492,3.8491,0.0,0.0,0.0,0.0,0.0,0.0,0.0,0.0,0.0,0.0,0.0,0.0,0.0,0.0,0.0,0.0,0.0,0.0,0.0,0.0,0.0,0.0,0.0,0.0,0.0,0.0,0.0,0.0,0.0,0.0,0.0,3.79,3.79,3.79,3.79,3.79,3.79,3.79,3.79,3.79,3.79,3.79,3.79,3.79,3.79,3.79,3.79,3.79,3.79,3.79,3.79,3.79,3.79,3.7551,3.6968,0.0,0.0,0.0,0.0,0.0,0.0,0.0,0.0,0.0,0.0,0.0,0.0,0.0,0.0,0.0,0.0,0.0,0.0,0.0,0.0,0.0,0.0,0.0,3.5814,3.6492,3.5845,3.5845,3.6523,3.6523,3.6523,3.6523,0.0,0.0,0.0,0.0,0.0,0.0,0.0,0.0,0.0,0.0,0.0,0.0,0.0,0.0,0.0,0.0,0.0,0.0,0.0,3.6523,3.6523,3.6523,3.6523,3.6507,3.6523,3.6523,3.6507,3.6523,3.7461,0.0,0.0,0.0,0.0,0.0,0.0,0.0,0.0,0.0,0.0,0.0,0.0,0.0,0.0,0.0,0.0,0.0,0.0,0.0,0.0,0.0,0.0,0.0,0.0,0.0,0.0,0.0,0.0,0.0,0.0,0.0,0.0,3.79,3.79,3.79,3.79,3.79,3.79,3.79,3.79,3.79,3.79,3.79,3.79,3.79,3.79,3.79,3.79,3.79,3.79,3.79,3.79,3.79,3.79,3.79,3.7785,0.0,0.0,0.0,0.0,0.0,0.0,0.0,0.0,0.0,0.0,0.0,0.0,0.0,0.0,0.0,0.0,0.0,0.0,0.0,0.0,0.0,0.0,0.0,0.0,0.0,0.0,3.6307,3.6523,3.6523,3.6523,0.0,0.0,0.0,3.6523,0.0,0.0,0.0,0.0,0.0,0.0,0.0,0.0,0.0,0.0,0.0,0.0,0.0,0.0,0.0,0.0,0.0,0.0,3.6523,3.6815,3.7123,3.6646,3.6815,3.7092,3.6646,0.0,0.0,0.0,0.0,0.0,0.0,0.0,0.0,0.0,0.0,0.0,0.0,0.0,0.0,0.0,0.0,0.0,0.0,0.0,0.0,0.0,0.0,0.0,0.0,0.0,0.0,0.0,0.0,0.0,0.0,0.0,0.0,0.0,3.79,3.79,3.79,3.79,3.79,3.79,3.79,3.79,3.79,3.79,3.79,3.79,3.79,3.79,3.79,3.79,3.79,3.79,3.79,3.79,3.79,3.79,3.79,3.7785,0.0,0.0,0.0,0.0,0.0,0.0,0.0,0.0,0.0,0.0,0.0,0.0,0.0,0.0,0.0,0.0,0.0,0.0,0.0,0.0,0.0,0.0,0.0,0.0,0.0,3.6307,3.6523,0.0,0.0,0.0,0.0,0.0,0.0,3.6523,0.0,0.0,0.0,0.0,0.0,0.0,0.0,0.0,0.0,0.0,0.0,0.0,0.0,0.0,0.0,0.0,0.0,0.0,0.0,0.0,3.703,3.6615,3.6784,3.6999,3.6599,0.0,0.0,0.0,0.0,0.0,0.0,0.0,0.0,0.0,0.0,0.0,0.0,0.0,0.0,0.0,0.0,0.0,0.0,0.0,0.0,0.0,0.0,0.0,0.0,0.0,0.0,0.0,0.0,0.0,0.0,0.0,0.0,0.0,3.79,3.79,3.79,3.79,3.79,3.79,3.79,3.79,3.79,3.79,3.79,3.79,3.79,3.79,3.79,3.79,3.79,3.79,3.79,3.79,3.79,3.79,3.79,3.7785,0.0,0.0,0.0,0.0,0.0,0.0,0.0,0.0,0.0,0.0,0.0,0.0,0.0,0.0,0.0,0.0,0.0,0.0,0.0,0.0,0.0,0.0,0.0,0.0,0.0,0.0,0.0,0.0,0.0,0.0,0.0,0.0,3.6523,3.6523,0.0,3.6523,0.0,0.0,0.0,0.0,0.0,0.0,0.0,0.0,0.0,0.0,0.0,0.0,0.0,0.0,0.0,0.0,3.6523,3.6569,3.6661,3.6599,3.663,3.6692,0.0,0.0,0.0,0.0,0.0,0.0,0.0,0.0,0.0,0.0,0.0,0.0,0.0,0.0,0.0,0.0,0.0,0.0,0.0,0.0,0.0,0.0,0.0,0.0,0.0,0.0,0.0,0.0,0.0,0.0,0.0,0.0,0.0,0.0,3.79,3.79,3.79,3.79,3.79,0.0,3.79,3.79,3.79,3.79,3.79,3.79,3.79,3.79,3.79,3.79,3.79,3.79,3.79,3.79,3.79,3.79,3.79,3.7808,0.0,0.0,0.0,0.0,0.0,0.0,0.0,0.0,0.0,0.0,0.0,0.0,0.0,0.0,0.0,0.0,0.0,0.0,0.0,0.0,0.0,0.0,0.0,0.0,0.0,0.0,0.0,0.0,0.0,0.0,0.0,0.0,0.0,3.6523,0.0,3.6523,0.0,0.0,0.0,0.0,0.0,0.0,0.0,0.0,0.0,0.0,0.0,0.0,0.0,0.0,0.0,0.0,3.6523,3.7215,3.7984,3.743,3.7677,3.8184,0.0,0.0,0.0,0.0,0.0,0.0,0.0,0.0,0.0,0.0,0.0,0.0,0.0,0.0,0.0,0.0,0.0,0.0,0.0,0.0,0.0,0.0,0.0,0.0,0.0,0.0,0.0,0.0,0.0,0.0,0.0,0.0,0.0,3.79,3.79,3.79,3.79,3.79,3.79,0.0,3.79,3.79,3.79,3.79,3.79,3.79,3.79,3.79,3.79,3.79,3.79,3.79,3.79,3.79,3.79,3.79,3.79,3.7877,0.0,0.0,0.0,0.0,0.0,0.0,0.0,0.0,0.0,0.0,0.0,0.0,0.0,0.0,0.0,0.0,0.0,0.0,0.0,0.0,0.0,0.0,0.0,0.0,0.0,0.0,0.0,0.0,0.0,0.0,0.0,0.0,0.0,3.6523,0.0,3.6523,0.0,0.0,0.0,0.0,0.0,0.0,0.0,0.0,0.0,0.0,0.0,0.0,0.0,0.0,0.0,0.0,0.0,0.0,3.7954,3.7615,3.7984,3.8584,0.0,0.0,0.0,0.0,0.0,0.0,0.0,0.0,0.0,0.0,0.0,0.0,0.0,0.0,0.0,0.0,0.0,0.0,0.0,0.0,0.0,0.0,0.0,0.0,0.0,0.0,0.0,0.0,0.0,0.0,0.0,3.79,3.79,3.79,3.79,3.79,3.79,3.79,3.79,3.79,3.79,3.79,3.79,3.79,3.79,3.79,3.79,3.79,3.79,3.79,3.79,3.79,3.79,3.79,3.79,3.79,3.79,3.79,0.0,0.0,0.0,0.0,0.0,0.0,0.0,0.0,0.0,0.0,0.0,0.0,0.0,0.0,0.0,0.0,0.0,0.0,0.0,0.0,0.0,0.0,0.0,0.0,0.0,0.0,0.0,0.0,0.0,0.0,0.0,0.0,0.0,3.6523,0.0,0.0,0.0,0.0,0.0,0.0,0.0,0.0,0.0,0.0,0.0,0.0,0.0,0.0,0.0,0.0,0.0,0.0,0.0,0.0,3.7677,3.7677,3.8077,3.8584,0.0,0.0,0.0,0.0,0.0,0.0,0.0,0.0,0.0,0.0,0.0,0.0,0.0,0.0,0.0,0.0,0.0,0.0,0.0,0.0,0.0,0.0,0.0,0.0,0.0,0.0,0.0,0.0,0.0,0.0,3.79,3.79,3.7848,3.7743,3.7848,3.7848,3.7743,3.7848,3.79,3.79,3.79,3.79,3.79,3.79,3.79,3.79,3.79,3.79,3.79,3.79,3.79,3.79,3.79,3.79,3.79,3.79,3.79,3.79,0.0,0.0,0.0,0.0,0.0,0.0,0.0,0.0,0.0,0.0,0.0,0.0,0.0,0.0,0.0,0.0,0.0,0.0,0.0,0.0,0.0,0.0,0.0,0.0,0.0,0.0,0.0,0.0,0.0,0.0,0.0,0.0,0.0,0.0,0.0,0.0,0.0,0.0,0.0,0.0,0.0,0.0,0.0,0.0,0.0,0.0,0.0,0.0,0.0,0.0,0.0,0.0,0.0,0.0,0.0,0.0,3.8446,0.0,0.0,0.0,0.0,0.0,0.0,0.0,0.0,0.0,0.0,0.0,0.0,0.0,0.0,0.0,0.0,0.0,0.0,0.0,0.0,0.0,0.0,0.0,0.0,0.0,0.0,0.0,0.0,0.0,0.0,0.0,3.79,3.79,3.7665,3.7142,3.7639,3.7665,3.7142,3.7639,3.79,3.79,3.79,3.79,3.79,3.79,3.79,3.79,3.79,3.79,3.79,3.79,3.79,3.79,3.79,3.79,3.79,3.79,3.79,3.79,0.0,0.0,0.0,0.0,0.0,0.0,0.0,0.0,0.0,0.0,0.0,0.0,0.0,0.0,0.0,0.0,0.0,0.0,0.0,0.0,0.0,0.0,0.0,0.0,0.0,0.0,0.0,0.0,0.0,0.0,0.0,3.6523,3.6523,0.0,0.0,0.0,0.0,0.0,0.0,0.0,0.0,0.0,0.0,0.0,0.0,0.0,0.0,0.0,0.0,0.0,0.0,0.0,0.0,0.0,0.0,0.0,0.0,0.0,0.0,0.0,0.0,0.0,0.0,0.0,0.0,0.0,0.0,0.0,0.0,0.0,0.0,0.0,0.0,0.0,0.0,0.0,0.0,0.0,0.0,0.0,0.0,0.0,0.0,0.0,0.0,0.0,0.0,3.79,3.79,3.79,3.7769,3.7508,3.7769,3.7769,3.7508,3.7769,3.79,3.79,3.79,3.79,3.79,3.79,3.79,3.79,3.79,3.79,3.79,3.79,3.79,3.79,3.79,3.79,3.79,3.79,3.79,3.79,0.0,0.0,0.0,0.0,0.0,0.0,0.0,0.0,0.0,0.0,0.0,0.0,0.0,0.0,0.0,0.0,0.0,0.0,0.0,0.0,0.0,0.0,0.0,0.0,0.0,0.0,0.0,0.0,0.0,0.0,3.6523,3.6523,3.6523,0.0,3.6523,0.0,0.0,0.0,0.0,0.0,0.0,0.0,0.0,0.0,0.0,0.0,0.0,0.0,0.0,0.0,0.0,0.0,0.0,0.0,0.0,0.0,0.0,0.0,0.0,0.0,0.0,0.0,0.0,0.0,0.0,0.0,0.0,0.0,0.0,0.0,0.0,0.0,0.0,0.0,0.0,0.0,0.0,0.0,0.0,0.0,0.0,0.0,0.0,0.0,0.0,0.0,0.0,3.79,3.79,3.79,3.7821,3.7691,3.7821,3.7821,3.7665,3.7821,3.79,3.79,3.79,3.79,3.79,3.79,3.79,3.79,3.79,3.79,3.79,3.79,3.79,3.79,3.79,3.79,3.79,3.79,3.79,3.79,0.0,0.0,0.0,0.0,0.0,0.0,0.0,0.0,0.0,0.0,0.0,0.0,0.0,0.0,0.0,0.0,0.0,0.0,0.0,0.0,0.0,0.0,0.0,0.0,0.0,0.0,0.0,0.0,0.0,0.0,3.6523,3.6523,3.6523,3.6523,3.6523,3.6523,3.6523,0.0,0.0,0.0,0.0,0.0,0.0,0.0,0.0,0.0,0.0,0.0,0.0,0.0,0.0,0.0,0.0,0.0,0.0,0.0,0.0,0.0,0.0,0.0,0.0,0.0,0.0,0.0,0.0,0.0,0.0,0.0,0.0,0.0,0.0,0.0,0.0,0.0,0.0,0.0,0.0,0.0,0.0,0.0,0.0,0.0,0.0,0.0,0.0,0.0,0.0,3.79,3.79,3.79,3.7639,3.7063,3.7612,3.7639,3.7063,3.7612,3.79,3.79,3.79,3.79,3.79,3.79,3.79,3.79,3.79,3.79,3.79,3.79,3.79,3.79,3.79,3.79,3.79,3.79,3.79,3.79,0.0,0.0,0.0,0.0,0.0,0.0,0.0,0.0,0.0,0.0,0.0,0.0,0.0,0.0,0.0,0.0,0.0,0.0,0.0,0.0,0.0,0.0,0.0,0.0,0.0,0.0,0.0,0.0,0.0,3.6523,3.6523,3.6523,3.6523,3.6523,3.6523,3.6523,3.6523,3.6523,0.0,0.0,0.0,0.0,0.0,0.0,0.0,0.0,0.0,0.0,0.0,0.0,0.0,0.0,0.0,0.0,0.0,0.0,0.0,0.0,0.0,0.0,0.0,0.0,0.0,0.0,0.0,0.0,0.0,0.0,0.0,0.0,0.0,0.0,0.0,0.0,0.0,0.0,0.0,0.0,0.0,0.0,0.0,0.0,0.0,0.0,0.0,0.0,0.0,0.0,3.79,3.79,3.7612,3.7011,3.7586,3.7795,3.7586,3.7795,3.79,3.79,3.79,3.79,3.79,3.79,3.79,3.79,3.79,3.79,3.79,3.79,3.79,3.79,3.79,3.79,3.79,3.79,3.79,3.79,0.0,0.0,0.0,0.0,0.0,0.0,0.0,0.0,0.0,0.0,0.0,0.0,0.0,0.0,0.0,0.0,0.0,0.0,0.0,0.0,0.0,0.0,0.0,0.0,0.0,0.0,0.0,0.0,0.0,0.0,0.0,0.0,3.6523,3.6523,3.6523,0.0,0.0,0.0,0.0,3.6523,0.0,0.0,3.6523,0.0,0.0,0.0,0.0,0.0,0.0,0.0,0.0,0.0,0.0,0.0,0.0,0.0,0.0,0.0,0.0,0.0,0.0,0.0,0.0,0.0,0.0,0.0,0.0,0.0,0.0,0.0,0.0,0.0,0.0,0.0,0.0,0.0,0.0,0.0,0.0,0.0,0.0,0.0,0.0,0.0,0.0,0.0,0.0,0.0,3.79,3.79,3.7717,3.7325,3.7691,3.7795,3.7612,3.7612,3.7612,3.7612,3.7612,3.7717,3.79,3.79,3.79,3.79,3.79,3.79,3.79,3.79,3.79,3.79,3.79,3.79,3.79,3.79,3.79,3.79,0.0,0.0,0.0,0.0,0.0,0.0,0.0,0.0,0.0,0.0,0.0,0.0,0.0,0.0,0.0,0.0,0.0,0.0,0.0,0.0,0.0,0.0,0.0,0.0,0.0,0.0,0.0,0.0,0.0,0.0,0.0,0.0,3.6523,0.0,3.6523,3.6523,3.6523,0.0,3.6523,3.6523,0.0,3.6523,3.6523,0.0,0.0,0.0,3.6523,3.6523,0.0,0.0,0.0,0.0,0.0,0.0,0.0,0.0,0.0,0.0,0.0,0.0,0.0,0.0,0.0,0.0,0.0,0.0,0.0,0.0,0.0,0.0,0.0,0.0,0.0,0.0,0.0,0.0,0.0,0.0,0.0,0.0,0.0,0.0,0.0,0.0,0.0,0.0,0.0,3.79,3.79,3.7874,3.7874,3.79,3.7874,3.7586,3.7011,3.6985,3.6985,3.6985,3.6985,3.7299,3.7874,3.79,3.79,3.79,3.79,3.79,3.79,3.79,3.79,3.79,3.79,3.79,3.79,3.79,3.79,3.79,0.0,0.0,0.0,0.0,0.0,0.0,0.0,0.0,0.0,0.0,0.0,0.0,0.0,0.0,0.0,0.0,0.0,0.0,0.0,0.0,0.0,0.0,0.0,0.0,0.0,0.0,0.0,0.0,0.0,0.0,0.0,0.0,0.0,0.0,3.6523,3.6523,3.6523,3.6523,0.0,0.0,3.6523,3.6523,0.0,0.0,0.0,0.0,0.0,3.6523,0.0,0.0,3.6938,3.7461,0.0,0.0,0.0,0.0,0.0,0.0,3.8516,0.0,0.0,0.0,0.0,0.0,0.0,0.0,0.0,0.0,0.0,0.0,0.0,0.0,0.0,0.0,0.0,0.0,0.0,0.0,0.0,0.0,0.0,0.0,0.0,0.0,0.0,0.0,3.79,3.79,3.79,3.7482,3.7456,3.79,3.7063,3.6724,3.7011,3.6567,3.6358,3.6358,3.6802,3.709,3.7273,3.7717,3.79,3.79,3.79,3.79,3.79,3.79,3.79,3.79,3.79,3.79,3.79,3.79,3.79,3.79,0.0,0.0,0.0,0.0,0.0,0.0,0.0,0.0,0.0,0.0,0.0,0.0,0.0,0.0,0.0,0.0,0.0,0.0,0.0,0.0,3.6188,3.612,3.6135,3.626,0.0,0.0,0.0,0.0,0.0,0.0,0.0,0.0,0.0,0.0,0.0,0.0,0.0,0.0,0.0,0.0,3.6523,0.0,0.0,3.6523,3.6523,0.0,0.0,0.0,3.7338,3.7338,3.7769,0.0,0.0,0.0,0.0,0.0,0.0,0.0,0.0,0.0,0.0,0.0,0.0,0.0,0.0,3.8471,0.0,0.0,0.0,0.0,0.0,0.0,0.0,0.0,0.0,0.0,0.0,0.0,0.0,0.0,0.0,0.0,0.0,0.0,0.0,3.79,3.79,3.79,3.79,3.756,3.7429,3.7534,3.6854,3.641,3.6305,3.594,3.5757,3.5783,3.6358,3.675,3.7011,3.7612,3.79,3.79,3.79,3.79,3.79,3.79,3.79,3.79,3.79,3.79,3.79,3.79,3.79,3.79,0.0,0.0,0.0,0.0,0.0,0.0,0.0,0.0,0.0,0.0,0.0,0.0,0.0,0.0,0.0,0.0,0.0,0.0,0.0,0.0,3.7283,3.6954,3.6969,3.6847,3.6523,0.0,0.0,0.0,0.0,0.0,0.0,0.0,0.0,0.0,0.0,0.0,0.0,0.0,0.0,3.6523,3.6523,3.6538,0.0,0.0,3.6661,0.0,3.74,3.7968,3.8491,3.8584,3.9014,0.0,0.0,0.0,0.0,0.0,3.83,0.0,0.0,0.0,0.0,0.0,0.0,0.0,3.8594,3.8632,3.8606,0.0,0.0,0.0,0.0,0.0,0.0,0.0,0.0,0.0,0.0,0.0,0.0,0.0,0.0,0.0,0.0,3.8318,3.8031,3.8083,3.8083,3.8031,3.7926,3.7952,3.7691,3.7011,3.6933,3.6384,3.5312,3.5234,3.5208,3.5208,3.5757,3.6332,3.6933,3.7534,3.7848,3.79,3.79,3.79,3.79,3.79,3.79,3.79,3.79,3.79,3.79,3.79,3.7952,3.8004,0.0,0.0,0.0,0.0,0.0,0.0,0.0,0.0,0.0,0.0,0.0,0.0,0.0,0.0,0.0,0.0,0.0,0.0,0.0,0.0,3.7432,3.6616,3.6862,3.6847,3.6523,3.6523,3.6523,0.0,0.0,0.0,0.0,0.0,0.0,0.0,0.0,0.0,0.0,0.0,0.0,3.6523,3.6523,0.0,3.7307,3.7307,3.7646,3.8138,3.8245,3.8385,3.8584,0.0,3.9384,3.9445,0.0,0.0,0.0,0.0,0.0,0.0,0.0,0.0,0.0,0.0,0.0,0.0,3.7949,3.8057,3.7926,0.0,0.0,0.0,0.0,0.0,0.0,0.0,0.0,0.0,0.0,0.0,0.0,0.0,0.0,0.0,0.0,3.8893,3.8762,3.9233,3.9285,3.8867,3.7952,3.8318,3.8083,3.7037,3.6541,3.5966,3.5312,3.4816,3.458,3.458,3.5182,3.573,3.6305,3.6907,3.7456,3.79,3.79,3.79,3.79,3.79,3.79,3.79,3.79,3.79,3.79,3.79,3.8187,3.8553,0.0,0.0,0.0,0.0,0.0,0.0,0.0,0.0,0.0,0.0,0.0,0.0,0.0,0.0,0.0,0.0,0.0,0.0,0.0,0.0,0.0,3.7208,3.709,3.6923,3.6754,3.66,3.6523,3.6523,0.0,0.0,0.0,0.0,0.0,0.0,0.0,0.0,0.0,0.0,3.6692,3.6999,3.6999,0.0,3.7554,3.7861,3.8214,3.8553,3.8861,3.9199,3.9537,3.9907,4.0461,0.0,0.0,4.0214,4.0931,0.0,3.9044,3.8121,0.0,0.0,0.0,3.7637,0.0,0.0,0.0,3.79,3.7821,3.7508,0.0,0.0,0.0,0.0,0.0,0.0,0.0,0.0,0.0,0.0,0.0,0.0,0.0,0.0,0.0,3.9494,3.9261,3.9599,3.9076,3.8762,3.8762,3.8475,3.79,3.7037,3.641,3.5704,3.4868,3.4554,3.4554,3.4868,3.5417,3.5992,3.6567,3.7168,3.7612,3.79,3.79,3.79,3.79,3.79,3.79,3.79,3.79,3.79,3.7926,3.8214,3.8475,3.8739,0.0,0.0,0.0,0.0,0.0,0.0,0.0,0.0,0.0,0.0,0.0,0.0,0.0,0.0,0.0,0.0,0.0,0.0,0.0,0.0,0.0,0.0,3.7271,3.6954,3.6908,3.6647,3.6523,3.6523,3.6523,0.0,0.0,0.0,0.0,0.0,0.0,0.0,0.0,0.0,0.0,3.7523,0.0,3.7892,3.7938,3.8491,3.8768,3.8953,3.9507,4.0061,4.0505,4.0676,0.0,4.214,4.0584,4.1168,0.0,0.0,0.0,0.0,0.0,0.0,0.0,0.0,0.0,3.7142,0.0,0.0,0.0,3.7743,0.0,0.0,0.0,0.0,0.0,0.0,0.0,0.0,0.0,0.0,0.0,0.0,0.0,0.0,0.0,4.0176,3.9886,3.9782,3.9024,3.8867,3.9549,3.8736,3.7848,3.7037,3.641,3.5547,3.4397,3.4397,3.4711,3.5312,3.573,3.6332,3.7011,3.7508,3.7795,3.79,3.79,3.79,3.79,3.79,3.79,3.79,3.79,3.79,3.7978,3.8501,3.8789,3.8972,0.0,0.0,0.0,0.0,0.0,0.0,0.0,0.0,0.0,0.0,0.0,0.0,0.0,0.0,0.0,0.0,0.0,0.0,3.7929,0.0,0.0,0.0,0.0,0.0,3.6538,3.6538,3.6523,3.6523,3.6523,3.6523,0.0,0.0,0.0,0.0,3.6523,0.0,0.0,0.0,3.743,0.0,3.8799,3.9261,0.0,3.9353,3.9753,4.029,4.0351,4.0443,4.0614,0.0,4.1586,4.1771,0.0,4.2017,0.0,0.0,0.0,0.0,0.0,0.0,0.0,0.0,3.7063,0.0,0.0,0.0,3.7743,3.722,0.0,0.0,0.0,0.0,0.0,0.0,0.0,0.0,0.0,0.0,0.0,0.0,0.0,0.0,0.0,0.0,4.0881,4.0332,4.0672,4.0515,3.9651,3.9494,3.8684,3.7063,3.641,3.5547,3.4397,3.4397,3.4711,3.5286,3.5365,3.5966,3.7011,3.7063,3.7403,3.79,3.79,3.79,3.79,3.79,3.79,3.79,3.79,3.79,3.7978,3.8501,3.905,3.9599,0.0,0.0,0.0,0.0,0.0,0.0,0.0,0.0,0.0,0.0,0.0,0.0,0.0,0.0,0.0,0.0,0.0,0.0,0.0,0.0,0.0,0.0,0.0,0.0,0.0,3.6616,3.6523,3.6523,3.6523,3.6523,3.6523,0.0,0.0,0.0,3.6907,0.0,3.7123,0.0,0.0,0.0,0.0,0.0,0.0,4.0091,4.0228,4.0505,4.0505,4.0505,4.0553,0.0,4.1507,0.0,0.0,0.0,0.0,0.0,0.0,0.0,0.0,0.0,0.0,0.0,0.0,0.0,0.0,0.0,3.7639,0.0,0.0,0.0,0.0,0.0,0.0,0.0,0.0,0.0,0.0,0.0,0.0,0.0,0.0,0.0,0.0,0.0,0.0,0.0,0.0,3.9862,4.0045,3.9155,3.8292,3.756,3.6593,3.573,3.492,3.5234,3.5861,3.6802,3.6802,3.722,3.7978,3.7665,3.7665,3.79,3.79,3.79,3.79,3.79,3.79,3.79,3.79,3.79,3.8004,3.8893,3.9366,3.973,0.0,0.0,0.0,0.0,0.0,0.0,0.0,0.0,0.0,0.0,0.0,0.0,3.8958,3.8958,0.0,0.0,0.0,3.8602,0.0,0.0,3.79,0.0,0.0,0.0,0.0,0.0,3.6523,3.6523,3.6523,3.6599,3.6753,0.0,0.0,0.0,0.0,3.7492,3.7554,0.0,0.0,3.9507,3.9691,4.0061,4.0505,4.0505,4.0505,4.0505,4.0505,4.0505,4.0536,4.0737,4.1476,0.0,4.1353,0.0,0.0,0.0,0.0,0.0,3.9865,0.0,0.0,0.0,0.0,0.0,0.0,0.0,0.0,0.0,0.0,0.0,0.0,0.0,0.0,0.0,0.0,0.0,0.0,0.0,0.0,0.0,0.0,0.0,0.0,0.0,0.0,0.0,0.0,0.0,4.0123,3.9024,3.8292,3.8135,3.7142,3.6332,3.5783,3.5992,3.6619,3.7665,3.7665,3.7952,3.8475,3.8083,3.79,3.79,3.79,3.79,3.79,3.79,3.79,3.79,3.79,3.8004,3.824,3.9233,3.9599,3.9782,0.0,4.0583,0.0,0.0,0.0,0.0,0.0,0.0,0.0,0.0,0.0,0.0,0.0,0.0,0.0,0.0,0.0,3.9167,3.844,0.0,3.79,0.0,0.0,0.0,0.0,0.0,0.0,0.0,0.0,3.6815,3.7461,3.6784,0.0,0.0,0.0,3.7492,3.7584,3.8922,3.9476,3.9568,4.0197,4.0474,4.0505,0.0,4.0505,4.0505,4.0505,0.0,0.0,4.134,4.1586,0.0,0.0,0.0,0.0,0.0,0.0,0.0,0.0,0.0,0.0,0.0,0.0,0.0,0.0,0.0,3.8661,0.0,0.0,0.0,0.0,0.0,0.0,0.0,0.0,0.0,0.0,0.0,0.0,0.0,0.0,0.0,0.0,0.0,0.0,0.0,0.0,0.0,3.9627,3.9573,3.9285,3.871,3.8135,3.756,3.6959,3.6384,3.641,3.7037,3.7037,3.7351,3.7926,3.7926,3.79,3.79,3.79,3.79,3.79,3.79,3.79,3.79,3.79,3.8214,3.8762,3.9366,3.9599,3.9782,0.0,0.0,0.0,0.0,0.0,0.0,0.0,3.967,0.0,0.0,0.0,0.0,0.0,0.0,4.0516,0.0,0.0,3.988,3.9167,3.9421,0.0,0.0,0.0,3.8136,0.0,0.0,0.0,0.0,0.0,0.0,3.8169,3.7923,3.7938,0.0,0.0,3.883,0.0,0.0,0.0,0.0,0.0,4.0799,4.1168,0.0,0.0,4.0505,4.0505,4.0505,0.0,4.0799,4.1199,4.1555,4.1291,4.1691,4.2111,4.1468,4.0928,0.0,0.0,0.0,3.8443,3.7918,0.0,0.0,0.0,0.0,0.0,0.0,0.0,0.0,0.0,0.0,3.947,3.9102,0.0,0.0,0.0,0.0,0.0,0.0,0.0,0.0,0.0,0.0,0.0,0.0,0.0,0.0,0.0,3.8815,3.8579,3.7612,3.7795,3.7612,3.7011,3.7194,3.7586,3.8135,3.8135,3.824,3.8423,3.8057,3.79,3.79,3.79,3.79,3.79,3.79,3.79,3.79,3.79,3.824,3.8789,3.939,3.981,4.0081,4.1723,0.0,0.0,0.0,0.0,0.0,0.0,0.0,0.0,0.0,4.1229,0.0,4.2665,0.0,4.1458,0.0,4.1063,4.0592,3.9912,4.0268,0.0,3.8877,3.9381,0.0,0.0,0.0,0.0,0.0,0.0,3.8614,3.8861,3.8614,3.8614,0.0,0.0,0.0,0.0,0.0,4.0645,0.0,0.0,4.1186,0.0,0.0,4.0676,4.0861,0.0,4.0505,4.0505,4.0505,4.083,4.1137,4.0645,4.1137,4.1681,4.0811,4.0674,4.0565,3.9738,3.9011,0.0,0.0,3.7578,0.0,0.0,0.0,0.0,0.0,0.0,0.0,0.0,0.0,0.0,3.9366,3.9468,0.0,0.0,0.0,0.0,0.0,0.0,0.0,0.0,0.0,0.0,0.0,0.0,0.0,0.0,0.0,3.837,3.7639,3.7978,3.8109,3.7926,3.7926,3.8083,3.8423,3.8423,3.8423,3.8423,3.8057,3.79,3.79,3.79,3.79,3.79,3.79,3.79,3.7926,3.8109,3.8527,3.9076,3.9468,4.0095,4.0602,0.0,0.0,0.0,0.0,4.2364,0.0,0.0,0.0,4.2473,0.0,4.3475,4.3466,4.4495,4.388,4.2962,4.1913,4.1805,0.0,4.0642,4.0642,0.0,0.0,4.0229,3.9589,3.8569,0.0,0.0,0.0,0.0,0.0,3.9599,3.8922,3.8922,0.0,3.9599,0.0,3.9599,4.029,4.1014,4.1648,4.1617,4.1617,4.1586,4.0799,0.0,4.1494,4.0768,4.0505,4.0505,4.0505,4.0505,4.0505,4.0505,4.0505,4.0505,4.0505,4.0487,4.0436,4.0307,3.9699,3.8948,3.8339,0.0,0.0,0.0,0.0,3.8817,0.0,0.0,0.0,0.0,0.0,0.0,3.9024,3.9183,0.0,0.0,0.0,0.0,0.0,0.0,0.0,0.0,0.0,0.0,0.0,0.0,0.0,0.0,0.0,3.871,3.8579,3.8684,3.8974,3.952,3.8449,3.79,3.79,3.79,3.79,3.79,3.79,3.79,3.79,3.79,3.79,3.79,3.79,3.7926,3.8004,3.8501,3.9079,3.9627,3.9677,4.0334,4.1223,4.3207,4.3655,4.4126,0.0,4.3691,4.2953,0.0,0.0,0.0,0.0,4.4292,4.4682,4.6136,4.5178,4.4589,4.4996,4.4376,0.0,0.0,0.0,0.0,4.0577,4.0927,4.0578,3.9265,4.0331,0.0,3.9722,0.0,0.0,4.1063,4.0307,4.0091,4.0276,0.0,0.0,4.032,4.1537,4.2153,4.2294,4.1801,4.1894,0.0,0.0,4.0953,4.1494,4.0768,4.0505,4.0505,4.0505,4.0505,4.0505,4.0505,4.0505,4.0505,4.0505,4.0226,3.9727,3.8916,3.7996,3.7143,3.6653,3.6113,3.5887,0.0,0.0,0.0,0.0,0.0,0.0,0.0,0.0,0.0,0.0,0.0,0.0,0.0,0.0,0.0,0.0,0.0,0.0,0.0,0.0,0.0,0.0,0.0,0.0,0.0,0.0,0.0,3.6828,3.8475,3.905,3.8344,3.8057,3.79,3.79,3.79,3.79,3.79,3.79,3.79,3.79,3.79,3.79,3.79,3.79,3.8135,3.8527,3.8658,3.9311,4.0228,4.0698,4.0688,4.0338,4.4609,0.0,0.0,4.6341,0.0,0.0,4.4464,0.0,0.0,4.5336,4.5409,0.0,4.6543,4.6118,4.5795,4.5886,4.5418,0.0,0.0,0.0,0.0,4.1736,4.1773,4.1164,3.9785,4.0846,0.0,4.0505,0.0,0.0,4.1586,4.0861,4.0505,4.0536,0.0,4.137,0.0,4.2448,4.3033,4.3002,4.2651,0.0,0.0,4.1507,4.123,4.1494,4.0768,4.0505,4.0505,4.0505,4.0505,4.0505,4.0505,4.0505,4.0505,4.0505,4.0296,3.9844,3.8921,3.7833,3.6906,3.6566,3.5902,3.5574,3.6645,3.7403,3.7978,0.0,0.0,0.0,0.0,0.0,0.0,0.0,0.0,0.0,0.0,0.0,0.0,0.0,0.0,0.0,0.0,0.0,0.0,0.0,0.0,0.0,0.0,0.0,0.0,3.6175,3.8397,3.9181,3.8266,3.8266,3.8135,3.79,3.79,3.79,3.79,3.79,3.79,3.79,3.79,3.8031,3.8266,3.8266,3.8579,3.9128,3.934,3.9993,4.0829,4.1168,4.0795,4.0006,0.0,0.0,0.0,0.0,0.0,0.0,0.0,4.6179,0.0,4.6496,0.0,4.6848,4.6611,4.6889,4.6735,0.0,0.0,4.5455,4.495,4.4334,4.3816,4.3441,4.2605,4.1674,4.0593,4.0961,0.0,0.0,0.0,0.0,4.1832,4.1014,4.0707,0.0,0.0,0.0,0.0,4.3143,4.3655,0.0,4.3655,4.3593,4.3451,4.2202,4.174,4.1648,4.0922,4.0566,4.0505,4.0505,4.0505,4.0505,4.0505,4.0505,4.0522,4.0614,4.0532,4.0275,3.9679,3.8506,3.7448,3.7206,3.6303,3.5809,3.7325,3.7743,3.7926,3.8397,3.8475,0.0,0.0,0.0,0.0,0.0,0.0,0.0,0.0,0.0,0.0,0.0,0.0,0.0,0.0,0.0,0.0,0.0,0.0,0.0,0.0,0.0,0.0,3.6175,3.824,0.0,3.871,0.0,3.8397,3.8004,3.7926,3.79,3.79,3.79,3.7952,3.8004,3.8004,3.8318,3.8841,3.8841,3.9181,3.9782,4.028,4.0829,4.1299,4.1299,4.0719,3.993,0.0,0.0,0.0,0.0,0.0,4.8968,5.0046,4.9057,4.8109,4.7825,4.8341,0.0,4.8077,4.7746,4.7505,4.7325,4.691,0.0,0.0,0.0,0.0,4.4543,4.3274,4.273,4.3068,4.2056,4.2027,0.0,4.2509,4.2571,4.3205,4.1986,4.1691,0.0,0.0,0.0,4.4036,4.3747,0.0,4.4375,4.3821,4.3593,4.3513,4.2725,4.2417,4.2355,4.1648,4.1014,4.0505,4.0505,4.0505,4.0505,4.0505,4.0505,4.0597,4.1247,4.0667,3.9853,3.995,3.8741,3.7428,3.7034,3.6469,3.6044,3.6358,3.6802,3.7194,3.7273,3.7299,3.722,3.6907,0.0,0.0,0.0,0.0,0.0,0.0,0.0,0.0,0.0,0.0,0.0,0.0,0.0,0.0,0.0,0.0,0.0,0.0,0.0,0.0,0.0,3.7456,0.0,0.0,0.0,3.8214,3.853,3.8109,3.79,3.79,3.79,3.8135,3.8579,3.8579,3.8919,3.9442,3.9442,3.9782,4.0306,4.0907,4.1194,4.1299,4.1299,4.0338,3.9026,0.0,0.0,0.0,0.0,0.0,0.0,0.0,5.0789,0.0,4.8892,4.8681,4.8542,4.8281,4.8487,4.8629,4.8629,4.8147,4.7575,4.6974,4.6212,4.5493,4.4782,4.3771,0.0,4.3145,0.0,4.225,4.3593,4.2571,4.2602,4.3562,4.225,0.0,4.2633,0.0,4.3667,0.0,0.0,0.0,4.456,4.4252,4.4117,4.4036,4.339,4.3113,4.3033,4.2355,4.1876,4.1476,4.0768,4.0768,4.1076,4.1076,4.1322,4.1661,4.2017,4.1666,4.111,4.0574,3.9474,3.8366,3.7805,3.7122,3.6645,3.6959,3.7273,3.7482,3.7482,3.722,3.7011,3.7011,3.7011,0.0,0.0,0.0,0.0,0.0,0.0,0.0,0.0,0.0,0.0,0.0,0.0,0.0,0.0,0.0,0.0,0.0,0.0,0.0,0.0,0.0,0.0,0.0,0.0,0.0,3.9157,3.8919,3.8789,3.8789,3.8789,3.8919,3.9181,3.9181,3.9494,4.0043,4.0332,4.062,4.0881,4.1193,4.1299,4.1299,4.1299,4.0542,3.9414,0.0,4.9927,0.0,0.0,5.1099,0.0,0.0,5.2065,5.184,5.0135,4.9342,4.8843,4.8459,4.9191,4.9574,4.9211,4.8941,4.8546,4.8043,4.6907,4.5889,4.5084,4.4313,4.3674,4.3179,4.2114,4.225,0.0,4.2386,4.2497,0.0,4.2589,0.0,0.0,0.0,0.0,0.0,0.0,4.4591,4.4591,4.4591,4.4591,4.4529,4.4006,4.3809,4.3728,4.3033,4.2817,4.2633,4.1384,4.1322,4.1801,4.1801,4.2171,4.2633,4.2786,4.2725,4.2359,4.1396,4.043,3.9536,3.8769,3.7976,3.746,3.7818,3.79,3.79,3.79,3.7429,3.7037,3.7168,3.7377,0.0,0.0,0.0,0.0,0.0,0.0,0.0,0.0,0.0,0.0,0.0,0.0,0.0,0.0,0.0,0.0,3.4633,3.7273,0.0,0.0,0.0,3.8893,3.9599,0.0,3.9547,0.0,3.9627,3.9599,3.9599,3.9599,3.9677,3.9782,3.9782,4.0071,4.062,4.109,4.1299,4.1299,4.1299,4.1299,4.1299,4.1299,4.0795,4.0006,0.0,0.0,0.0,0.0,0.0,0.0,0.0,5.3253,5.2961,5.2039,5.1867,5.1203,4.963,5.0073,4.9875,4.8304,4.8633,4.8709,4.8058,4.7846,4.7282,4.622,4.5147,4.471,4.4936,4.2739,4.225,0.0,0.0,0.0,0.0,0.0,0.0,0.0,0.0,0.0,0.0,4.4591,4.4591,4.4591,4.4591,4.4591,4.4591,4.4529,4.4498,4.4406,4.3747,4.3501,4.339,4.2663,4.2448,4.2509,4.2509,4.2571,4.2725,4.3328,4.3082,4.2573,4.2456,4.1609,4.0498,3.9486,3.8836,3.8368,3.7965,3.79,3.79,3.79,3.7429,3.7168,3.7717,3.6959,3.6619,0.0,0.0,0.0,0.0,0.0,0.0,0.0,0.0,0.0,0.0,0.0,0.0,0.0,0.0,3.7795,3.7508,3.6828,3.6332,3.6123,0.0,3.8501,3.9599,3.9076,0.0,4.0306,3.981,3.9599,3.9599,3.9599,3.9886,4.0332,4.0332,4.0646,4.1221,4.1298,4.1299,4.1299,4.1299,4.1299,4.1299,4.1299,4.0795,4.0109,0.0,0.0,0.0,0.0,0.0,0.0,0.0,5.377,5.3927,5.3616,5.2523,5.162,5.1204,5.0927,5.0635,5.025,4.988,4.9548,4.9289,4.8479,4.7687,4.6991,4.5913,4.5313,4.521,4.3623,4.3267,0.0,0.0,0.0,0.0,0.0,0.0,0.0,0.0,4.4591,4.4591,4.4591,4.4591,4.4591,4.4591,4.4591,4.4591,4.4591,4.4591,4.456,4.4283,4.419,4.416,4.3882,4.3544,4.3205,4.3205,4.3482,4.3852,4.4129,4.3723,4.3106,4.2712,4.1793,4.0766,3.9913,3.9358,3.8917,3.8421,3.8308,3.8243,3.7969,3.7717,3.7612,3.7874,3.7769,3.7612,0.0,0.0,0.0,0.0,0.0,0.0,0.0,0.0,0.0,0.0,0.0,0.0,0.0,0.0,0.0,3.7429,3.7246,3.7325,3.7665,0.0,3.824,4.0045,3.986,4.0123,4.0933,4.0724,4.062,4.062,4.062,4.0749,4.0933,4.0933,4.1064,4.1299,4.1299,4.1299,4.1299,4.1299,4.1299,4.1299,4.1299,4.1123,4.0744,5.1804,0.0,5.2099,0.0,5.2996,5.3736,5.3736,5.4184,5.4478,5.4478,5.3075,5.2064,5.208,5.1363,5.1006,5.1216,5.054,5.0098,5.0098,4.8965,4.7956,4.7244,4.6493,0.0,4.5042,4.4279,4.4024,4.4332,4.3821,0.0,0.0,0.0,0.0,0.0,4.4375,4.4591,4.4591,4.4591,4.4591,4.4591,4.4591,4.4591,4.4591,4.4591,4.4591,4.4591,4.4591,4.4591,4.4591,4.4591,4.4283,4.3882,4.3882,4.4221,4.4591,4.4591,4.4266,4.3693,4.286,4.2058,4.1226,4.0257,3.9755,3.9336,3.8737,3.8602,3.8466,3.7992,3.79,3.79,3.79,3.8214,3.8266,3.7612,0.0,0.0,0.0,0.0,0.0,0.0,0.0,3.4685,3.5234,0.0,0.0,0.0,0.0,0.0,0.0,3.7665,0.0,0.0,0.0,0.0,0.0,4.0306,4.0698,4.1299,4.1299,4.1299,4.1299,4.1299,4.1299,4.1299,4.1299,4.1299,4.1299,4.1299,4.1299,4.1299,4.1299,4.1299,4.1299,4.1299,4.1299,4.1224,5.3391,5.3961,5.4444,5.4444,5.4478,5.4494,5.4494,5.4478,5.4478,5.4478,5.3823,5.298,5.1917,5.1268,5.0687,5.0172,5.0098,5.0098,5.0098,4.94,4.8345,0.0,0.0,4.6103,4.4641,4.4591,4.4252,4.3624,0.0,0.0,4.4622,0.0,4.5237,4.4591,4.4591,4.4591,4.4591,4.4591,4.4591,4.4591,4.4591,4.4591,4.4591,4.4591,4.4591,4.4591,4.4591,4.4591,4.4591,4.4591,4.4591,4.4591,4.4591,4.4591,4.4591,4.4591,4.4591,4.4305,4.305,4.2638,4.2161,4.0423,3.9996,3.9755,3.8805,3.8602,3.8466,3.7992,3.79,3.79,3.79,3.7926,3.8083,3.8606,0.0,0.0,0.0,0.0,0.0,0.0,3.8318,3.7769,3.5521,3.6854,0.0,0.0,0.0,0.0,0.0,0.0,0.0,3.6175,3.837,0.0,3.9625,4.0148,4.0698,4.1299,4.1299,4.1299,4.1299,4.1299,4.1299,4.1299,4.1299,4.1299,4.1299,4.1299,4.1299,4.1299,4.1299,4.1299,4.1299,4.1299,4.1299,4.1299,5.3391,5.3598,5.3908,5.441,5.4478,5.4651,5.5168,5.4823,5.4478,5.4478,5.3627,5.2674,5.1883,5.1595,5.1251,0.0,5.076,5.0843,0.0,4.9903,4.9141,4.8674,4.7618,4.6653,4.572,4.5403,4.496,4.4283,0.0,0.0,0.0,4.4806,4.4806,4.4591,4.4591,4.4591,4.4591,4.4591,4.4591,4.4591,4.4591,4.4591,4.4591,4.4591,4.4591,4.4591,4.4591,4.4591,4.4591,4.4591,4.4591,4.4591,4.4591,4.4591,4.4591,4.4591,4.4285,4.384,4.3428,4.2659,4.184,4.1304,4.0816,4.0235,3.9269,3.858,3.8083,3.7923,3.79,3.79,3.79,3.79,3.7952,3.8135,0.0,0.0,0.0,0.0,0.0,0.0,0.0,3.4946,0.0,3.5338,0.0,0.0,0.0,0.0,0.0,0.0,0.0,0.0,3.8998,0.0,4.0123,4.0724,4.109,4.1299,4.1299,4.1299,4.1299,4.1299,4.1299,4.1299,4.1299,4.1299,4.1299,4.1299,4.1299,4.1299,4.1299,4.1299,4.1299,4.1299,4.1299,4.1299,5.3804,5.4046,5.4287,5.4494,5.472,5.4961,5.5168,5.4789,5.4598,5.4892,5.3813,5.2892,5.2539,5.2034,0.0,5.0651,5.0709,5.0894,5.1186,5.0276,4.9576,4.9273,4.8331,4.734,4.6365,0.0,0.0,4.5361,4.5361,4.5237,4.4991,4.5237,4.5207,4.4991,4.5237,4.5361,4.5361,4.5361,4.5361,4.5361,4.5361,4.5361,4.5361,4.5361,4.5361,4.5361,4.5361,4.5361,4.533,4.5053,4.4991,4.4929,4.4683,4.4591,4.4591,4.4591,4.4131,4.3536,4.3299,4.2476,4.164,4.1388,4.1178,4.0786,3.984,3.8899,3.8135,3.7952,3.8057,3.8214,3.8214,3.8397,3.8553,3.8553,3.8841,3.8817,0.0,0.0,0.0,0.0,0.0,0.0,0.0,3.6044,0.0,0.0,0.0,0.0,0.0,0.0,0.0,3.8423,3.939,0.0,4.0385,4.101,4.1299,4.1299,4.1299,4.1299,4.1299,4.1299,4.1299,4.1299,4.1299,4.1299,4.1299,4.1299,4.1299,4.1299,4.1299,4.1299,4.1299,4.1299,4.1299,4.1299,5.4582,5.5099,0.0,0.0,5.5134,0.0,5.477,5.4616,5.4823,5.5582,5.4415,5.3555,5.3716,5.2539,5.1313,5.0255,0.0,0.0,0.0,5.0496,4.9754,4.899,4.8862,4.8106,4.6685,4.7281,4.7281,4.6603,4.6603,4.6265,4.568,4.6296,4.6265,4.5699,4.6326,4.6603,4.6603,4.6603,4.6603,4.6603,4.6603,4.6603,4.6603,4.6603,4.6603,4.6603,4.6603,4.6603,4.648,4.5884,4.5669,4.5576,4.4929,4.4745,4.4714,4.4622,4.417,4.3547,4.289,4.229,4.1676,4.1036,4.125,4.1385,4.0513,3.9531,3.8679,3.8181,3.8446,3.8762,3.8762,3.9233,3.9599,3.9599,3.9599,3.939,3.8713,0.0,0.0,0.0,0.0,0.0,0.0,3.8292,3.8187,0.0,0.0,0.0,0.0,0.0,3.9705,3.8083,3.9625,4.0463,4.0463,4.1012,4.1299,4.1299,4.1325,4.1325,4.1299,4.1325,4.1325,4.1299,4.1299,4.1299,4.1299,4.1299,4.1299,4.1299,4.1299,4.1299,4.1299,4.1299,4.1325,4.1376,0.0,0.0,5.5065,5.6081,5.5426,5.5099,5.6115,5.572,5.5616,5.6426,5.5417,5.4425,5.3968,5.281,5.1759,5.101,5.0959,5.1024,5.1186,5.0416,4.9875,4.9679,4.901,4.8254,4.7373,4.7527,4.7281,4.6603,4.6603,4.6511,4.6357,4.6511,4.6511,4.6357,4.6511,4.6603,4.6603,4.6603,4.6603,4.6603,4.6603,4.6603,4.6603,4.6603,4.6603,4.6603,4.6603,4.6603,4.6573,4.6419,4.6357,4.6326,4.6172,4.613,4.5946,4.4899,4.4496,4.4319,4.4118,4.3621,4.3107,4.2869,4.2288,4.1711,4.1484,4.068,3.9977,3.9844,3.957,3.939,3.939,3.952,3.9599,3.9599,3.9599,3.9259,3.824,3.7874,0.0,0.0,3.6488,3.6541,3.7168,3.7325,3.7848,0.0,0.0,0.0,0.0,4.062,4.0514,3.9233,4.0435,4.1115,4.1115,4.1221,4.1299,4.1299,4.1768,4.1742,4.1299,4.1768,4.1742,4.1299,4.1299,4.1299,4.1299,4.1299,4.1299,4.1299,4.1299,4.1299,4.1299,4.1299,4.1585,4.2003,5.5685,5.5547,5.5598,5.5736,5.5632,5.5701,5.6184,5.6168,5.6426,5.7219,5.6423,5.5824,5.5773,5.4128,5.2887,5.2492,5.1699,5.1218,5.1218,5.0576,5.0077,4.9912,4.9259,4.8656,4.8081,4.806,4.7896,4.7527,4.7527,4.7373,4.7065,4.7373,4.7342,4.7065,4.7373,4.7527,4.7527,4.7527,4.7527,4.7527,4.7527,4.7527,4.7527,4.7527,4.7527,4.7527,4.7527,4.7527,4.7465,4.7157,4.7065,4.7004,4.6696,4.6603,4.6449,4.573,4.532,4.4978,4.4636,4.4095,4.3594,4.351,4.2845,4.2205,4.2256,4.1677,4.0985,4.0505,4.0357,4.0257,3.9989,4.02,4.0305,3.9993,3.9991,3.9573,3.8423,3.8057,0.0,3.7351,3.7063,3.7273,3.8109,3.8423,3.8817,3.9547,0.0,0.0,4.0385,4.0959,4.0881,3.9967,4.0829,4.1299,4.1299,4.1299,4.1455,4.1716,4.1742,4.1742,4.1716,4.1742,4.1611,4.1299,4.1299,4.1299,4.1299,4.1299,4.1299,4.1325,4.1611,4.1533,4.1351,4.1874,4.2134,4.2186,5.6065,5.6322,5.6288,5.5203,5.6012,5.6598,5.603,5.6529,5.7219,5.7978,5.7446,5.719,5.7724,5.563,5.4167,5.4059,5.2403,5.1278,5.1092,5.0563,5.0107,4.9801,4.9401,4.8995,4.8604,4.8583,4.8583,4.8583,4.8583,4.8307,4.7773,4.8337,4.8276,4.7773,4.8337,4.8583,4.8583,4.8583,4.8583,4.8583,4.8583,4.8583,4.8583,4.8583,4.8583,4.8583,4.8583,4.8583,4.8491,4.7958,4.7742,4.765,4.7096,4.6911,4.6911,4.6911,4.6519,4.5866,4.4993,4.4261,4.3719,4.3658,4.3287,4.2957,4.3008,4.2563,4.188,4.0968,4.1024,4.1079,4.064,4.0933,4.1116,4.062,4.0385,3.9888,3.8867,0.0,3.8161,3.8527,3.8344,3.8579,3.9625,4.0045,4.015,3.9886,4.0672,4.0959,0.0,4.1012,4.1115,4.0697,4.1167,4.1455,4.1455,4.1455,4.169,4.2186,4.1847,4.1899,4.2317,4.1873,4.1611,4.1455,4.1455,4.1402,4.1299,4.1299,4.1325,4.1507,4.2003,4.1951,4.1665,4.2631,4.2762,4.2447,5.746,5.6582,5.6099,5.7185,5.7047,5.6978,5.746,5.7667,5.8012,5.872,5.8288,5.7759,5.7337,5.5984,5.4895,5.4385,5.2935,5.1629,5.0672,4.9642,4.917,4.9401,4.8934,4.8666,4.8583,4.8583,4.8583,4.8583,4.8583,4.8553,4.843,4.8553,4.8522,4.843,4.8553,4.8583,4.8583,4.8583,4.8583,4.8583,4.8583,4.8583,4.8583,4.8583,4.8583,4.8583,4.8583,4.8583,4.8583,4.846,4.843,4.843,4.8307,4.8276,4.8276,4.8276,4.8214,4.7708,4.5878,4.4828,4.4283,4.4279,4.4186,4.4139,4.4139,4.3432,4.2711,4.2557,4.1856,4.1242,4.1167,4.1221,4.1273,4.1193,4.0332,3.9494,3.8815,0.0,3.8449,3.8083,3.8815,3.9599,4.0202,3.9939,4.0071,4.0959,4.0749,4.0724,4.1142,4.1247,4.1507,4.1898,4.2003,4.2055,4.2055,4.2055,4.2107,4.2212,4.3075,4.3284,4.2892,4.331,4.297,4.2055,4.2055,4.1768,4.1299,4.1299,4.1611,4.2081,4.216,4.2422,4.2762,4.2918,4.3284,4.365,5.7909,5.7012,5.646,5.7185,5.7012,5.7047,5.7805,5.8254,5.8616,5.8961,5.8475,5.7995,5.7723,5.625,5.5185,5.4927,5.324,5.1868,5.112,5.0041,4.9454,4.9622,4.8954,4.8583,4.8583,4.8583,4.8583,4.8583,4.8583,4.8583,4.8583,4.8583,4.8583,4.8583,4.8583,4.8583,4.8583,4.8583,4.8583,4.8583,4.8583,4.8583,4.8583,4.8583,4.8583,4.8583,4.8583,4.8583,4.8583,4.8583,4.8583,4.8583,4.8583,4.8583,4.8583,4.8583,4.8051,4.7259,4.629,4.5245,4.4401,4.4401,4.4401,4.4242,4.3678,4.3393,4.303,4.2178,4.1854,4.1647,4.1349,4.1299,4.1194,4.0855,4.0123,0.0,0.0,3.8896,3.8841,3.9183,3.9705,4.0254,4.0829,4.0646,4.0724,4.1247,4.1038,4.101,4.1298,4.1611,4.1924,4.2186,4.25,4.2631,4.2631,4.2631,4.2788,4.3127,4.331,4.3441,4.3467,4.3441,4.2971,4.2186,4.2186,4.1872,4.1299,4.1299,4.1455,4.1742,4.2081,4.2343,4.2631,4.3258,4.3677,4.3886,5.8254,5.7426,5.684,5.7012,5.7047,5.7253,5.7805,5.841,5.8771,5.8771,5.828,5.7832,5.7704,5.6416,5.5487,5.5351,5.3727,5.2449,5.1876,5.0803,5.003,4.9773,4.9015,4.8583,4.8583,4.8583,4.8583,4.8583,4.8583,4.8583,4.8583,4.8583,4.8583,4.8583,4.8583,4.8583,4.8583,4.8583,4.8583,4.8583,4.8583,4.8583,4.8583,4.8583,4.8583,4.8583,4.8583,4.8583,4.8583,4.8583,4.8583,4.8583,4.8583,4.8583,4.8583,4.8583,4.7734,4.6711,4.6557,4.5469,4.4401,4.4401,4.4401,4.4144,4.3202,4.3212,4.3047,4.17,4.1674,4.1796,4.1399,4.1299,4.1142,4.0672,0.0,0.0,0.0,3.939,3.9442,4.0305,4.0515,4.0776,4.1247,4.1299,4.1376,4.1507,4.1507,4.1559,4.1691,4.2134,4.2447,4.2578,4.2866,4.3049,4.3232,4.3232,4.3441,4.3886,4.3572,4.365,4.4068,4.3624,4.3023,4.2395,4.2395,4.1951,4.1299,4.1299,4.1402,4.1559,4.2029,4.2343,4.2683,4.3572,4.399,4.4095,5.8788,5.7771,5.7012,5.7702,5.784,5.784,5.7909,5.8048,5.8157,5.8157,5.7649,5.7072,5.6478,5.6309,5.5982,5.5446,5.4685,5.3793,5.2685,5.1542,5.0434,4.9372,4.8852,4.8583,4.8583,4.8583,4.8583,4.8583,4.8583,4.8583,4.8583,4.8583,4.8583,4.8583,4.8583,4.8583,4.8583,4.8583,4.8583,4.8583,4.8583,4.8583,4.8583,4.8583,4.8583,4.8583,4.8583,4.8583,4.8583,4.8583,4.8583,4.8583,4.8583,4.8583,4.8583,4.8583,4.8103,4.737,4.6689,4.5469,4.4401,4.4401,4.4401,4.4256,4.3677,4.3228,4.2776,4.2159,4.167,4.1349,4.1324,4.1299,4.1298,4.1221,0.0,0.0,4.0332,4.028,4.0331,4.0385,4.0881,4.1247,4.1299,4.1299,4.1533,4.2081,4.2134,4.2369,4.284,4.2918,4.3206,4.3755,4.3284,4.3284,4.3834,4.3834,4.386,4.3912,4.4356,4.459,4.4643,4.459,4.3963,4.2945,4.2945,4.2318,4.1299,4.1299,4.1638,4.2134,4.216,4.284,4.3781,4.386,4.4199,4.4643,5.8926,5.8185,5.7702,5.8444,5.8202,5.8047,5.853,5.8321,5.8085,5.8085,5.726,5.6556,5.6322,5.5961,5.5673,5.5409,5.4938,5.4282,5.3381,5.2417,5.0965,4.8934,4.8687,4.8583,4.8583,4.8583,4.8583,4.8583,4.8583,4.8583,4.8583,4.8583,4.8583,4.8583,4.8583,4.8583,4.8583,4.8583,4.8583,4.8583,4.8583,4.8583,4.8583,4.8583,4.8583,4.8583,4.8583,4.8583,4.8583,4.8583,4.8583,4.8583,4.8583,4.8583,4.8583,4.8583,4.8124,4.7551,4.7263,4.6144,4.4892,4.4063,4.3835,4.3523,4.2209,4.237,4.2418,4.1116,4.1368,4.169,4.1295,4.1261,4.1299,4.1299,0.0,4.0515,4.0932,4.0644,4.0515,4.0907,4.1481,4.1872,4.1872,4.216,4.2474,4.2683,4.2709,4.2788,4.2997,4.3363,4.3807,4.4382,4.4172,4.4146,4.4408,4.4408,4.4408,4.4408,4.459,4.4695,4.4695,4.4695,4.4277,4.3546,4.3546,4.3101,4.2318,4.2004,4.2003,4.216,4.1768,4.216,4.284,4.284,4.3415,4.4147,5.8685,5.8081,5.7633,5.7892,5.7736,5.7736,5.8254,5.8184,5.8085,5.8085,5.7053,5.6283,5.6283,5.5741,5.5389,5.5389,5.5019,5.4419,5.3571,5.2481,5.1,4.9035,4.8706,4.8583,4.8583,4.8583,4.8583,4.8583,4.8583,4.8583,4.8583,4.8583,4.8583,4.8583,4.8583,4.8583,4.8583,4.8583,4.8583,4.8583,4.8583,4.8583,4.8583,4.8583,4.8583,4.8583,4.8583,4.8583,4.8583,4.8583,4.8583,4.8583,4.8583,4.8583,4.8583,4.8583,4.8276,4.7852,4.7635,4.6689,4.5453,4.4146,4.368,4.3159,4.1766,4.2399,4.2814,4.1074,4.1775,4.244,4.1658,4.168,4.1769,4.1611,4.1246,4.1115,4.1533,4.1219,4.1193,4.1743,4.2186,4.2447,4.2447,4.2788,4.3075,4.3284,4.3284,4.3363,4.3519,4.3938,4.433,4.4695,4.4695,4.4695,4.4695,4.4695,4.4695,4.4695,4.4695,4.4695,4.4695,4.4695,4.4408,4.3886,4.3886,4.3467,4.2709,4.2343,4.2081,4.1898,4.1455,4.1768,4.2447,4.2447,4.3154,4.4095,5.8081,5.7322,5.6598,5.5789,5.6322,5.684,5.684,5.7569,5.8119,5.8085,5.7053,5.6283,5.6283,5.5741,5.5389,5.5389,5.5019,5.4294,5.3186,5.1606,5.0389,4.9743,4.9004,4.8614,4.8614,4.8614,4.8614,4.8614,4.8583,4.8583,4.8583,4.8583,4.8583,4.8583,4.8583,4.8583,4.8583,4.8583,4.8583,4.8583,4.8583,4.8583,4.8583,4.8583,4.8583,4.8583,4.8583,4.8583,4.8583,4.8583,4.8583,4.8614,4.8614,4.8614,4.8614,4.8614,4.8539,4.8361,4.7703,4.6978,4.6091,4.4819,4.4015,4.3383,4.2819,4.3665,4.4117,4.2469,4.3075,4.3562,4.2418,4.2631,4.284,4.2291,4.2212,4.2212,4.2212,4.2212,4.2395,4.2918,4.2997,4.2997,4.2997,4.2997,4.3258,4.386,4.3912,4.4121,4.4669,4.4695,4.4695,4.4695,4.4695,4.4695,4.4695,4.4695,4.4695,4.4695,4.4695,4.4695,4.4695,4.4695,4.4408,4.3912,4.3912,4.3258,4.2212,4.2212,4.1872,4.1299,4.1299,4.1978,4.2997,4.2997,4.3702,4.4695,5.9461,5.9323,5.9254,5.9564,5.9806,5.9771,5.9254,5.9057,5.8569,5.7606,5.6787,5.6159,5.5701,5.5511,5.5389,5.5389,5.4728,5.3879,5.2887,5.1929,5.1313,5.1097,5.0451,5.0082,5.0082,4.962,4.9374,4.9374,4.885,4.8583,4.8583,4.8583,4.8583,4.8583,4.8583,4.8583,4.8583,4.8583,4.8583,4.8583,4.8583,4.8583,4.8583,4.8583,4.8583,4.8583,4.8583,4.8583,4.8583,4.8583,4.8943,4.9374,4.9374,4.9682,4.9989,4.9497,4.9291,4.9163,4.8962,4.7688,4.609,4.4753,4.3968,4.3362,4.2754,4.3598,4.4085,4.2712,4.3473,4.4044,4.29,4.2863,4.2945,4.2788,4.2762,4.2762,4.2762,4.2762,4.284,4.2971,4.3363,4.3624,4.3624,4.399,4.4277,4.446,4.446,4.4512,4.4695,4.4695,4.4695,4.4695,4.4695,4.4695,4.4695,4.4695,4.4695,4.4695,4.4695,4.4695,4.4695,4.4695,4.4616,4.446,4.446,4.4042,4.3363,4.2944,4.2422,4.1898,4.1481,4.1508,4.1847,4.2265,4.2892,4.3519,5.9254,5.9288,5.9323,5.9495,5.9771,5.9909,5.9771,5.945,5.8961,5.8137,5.7257,5.6507,5.5814,5.5552,5.5328,5.5164,5.4327,5.3518,5.2743,5.2306,5.2113,5.2113,5.1713,5.1251,5.0697,5.0297,5.0103,5.0103,4.9374,4.9035,4.9035,4.8758,4.8583,4.8583,4.8583,4.8583,4.8583,4.8583,4.8583,4.8583,4.8583,4.8583,4.8583,4.8583,4.8583,4.8583,4.8583,4.8583,4.8583,4.8583,4.8912,4.9312,4.961,4.998,5.0288,5.0165,4.9992,4.9832,4.9538,4.8324,4.6899,4.5797,4.4846,4.4116,4.375,4.4621,4.5109,4.3674,4.4405,4.4897,4.3539,4.352,4.3598,4.3389,4.3363,4.3363,4.3363,4.3363,4.3441,4.365,4.399,4.4225,4.4225,4.4513,4.4695,4.4695,4.4695,4.4695,4.4695,4.4695,4.4695,4.4695,4.4695,4.4695,4.4695,4.4695,4.4695,4.4695,4.4695,4.4695,4.4695,4.4695,4.4695,4.4695,4.4487,4.4068,4.3493,4.2918,4.2343,4.1794,4.1455,4.156,4.2004,4.2369,4.3023,4.3676,5.8219,5.8116,5.7909,5.7322,5.7771,5.8426,5.8995,5.9159,5.9188,5.9136,5.8069,5.7021,5.6303,5.5721,5.5246,5.4906,5.4028,5.329,5.2721,5.2721,5.2721,5.2676,5.2676,5.2144,5.0913,5.082,5.079,5.079,5.0134,4.9764,4.9703,4.9004,4.8645,4.8583,4.8583,4.8583,4.8583,4.8583,4.8583,4.8583,4.8583,4.8583,4.8583,4.8583,4.8645,4.8696,4.8696,4.8696,4.8696,4.8696,4.8758,4.8891,4.9558,4.9887,5.0103,5.0636,5.0692,5.0455,4.9785,4.9002,4.8238,4.756,4.6469,4.5525,4.5412,4.6311,4.674,4.5077,4.564,4.5924,4.4335,4.4409,4.4538,4.4069,4.3964,4.3964,4.3964,4.3964,4.4147,4.4643,4.4695,4.4695,4.4695,4.4695,4.4695,4.4695,4.4695,4.4695,4.4695,4.4695,4.4695,4.4695,4.4695,4.4695,4.4695,4.4695,4.4695,4.4695,4.4695,4.4695,4.4695,4.4695,4.4695,4.4669,4.4173,4.3598,4.2945,4.2474,4.1873,4.1299,4.1299,4.1926,4.2866,4.2971,4.365,4.4564,5.9599,5.9702,5.984,6.0254,6.0461,6.0427,6.0013,5.9571,5.889,5.782,5.7,5.6303,5.5653,5.547,5.5369,5.5266,5.479,5.3985,5.2765,5.3055,5.31,5.2729,5.2676,5.2553,5.2267,5.1744,5.1498,5.1498,5.082,5.0205,4.9703,4.9549,4.9158,4.8583,4.8583,4.8583,4.8583,4.8583,4.8583,4.8583,4.8583,4.8583,4.8583,4.8583,4.8974,4.9466,4.9466,4.9466,4.9466,4.9466,4.9805,5.0266,5.042,5.119,5.199,5.159,5.1416,5.1338,5.1176,5.0134,4.9046,4.8878,4.8159,4.7238,4.6307,4.6673,4.6951,4.6107,4.6171,4.6164,4.5369,4.494,4.4669,4.4538,4.4539,4.4539,4.4539,4.4539,4.4564,4.4695,4.4695,4.4695,4.4695,4.4695,4.4695,4.4695,4.4695,4.4695,4.4695,4.4695,4.4695,4.4695,4.4695,4.4695,4.4695,4.4695,4.4695,4.4695,4.4695,4.4695,4.4695,4.4695,4.4695,4.4695,4.4564,4.3937,4.2997,4.2866,4.2213,4.1299,4.1299,4.143,4.1769,4.2657,4.3154,4.3493,5.953,5.9633,5.9875,6.0634,6.0461,6.0323,6.0668,5.9913,5.9013,5.8294,5.7395,5.6691,5.6384,5.5767,5.5225,5.4811,5.437,5.3726,5.2743,5.2922,5.2966,5.2698,5.2676,5.2676,5.2676,5.2359,5.2175,5.2175,5.1498,5.082,5.0195,5.0195,4.962,4.8614,4.8974,4.8943,4.8583,4.8583,4.8583,4.8583,4.8583,4.8583,4.8583,4.8583,4.885,4.9189,4.9189,4.9404,4.9764,5.0051,5.0389,5.0759,5.1067,5.1652,5.2236,5.2206,5.2152,5.1941,5.1216,5.0436,4.964,4.8905,4.8409,4.794,4.7319,4.7378,4.7452,4.6895,4.6575,4.6244,4.5715,4.51,4.4695,4.4695,4.4695,4.4695,4.4695,4.4695,4.4695,4.4695,4.4695,4.4695,4.4695,4.4695,4.4695,4.4695,4.4695,4.4695,4.4695,4.4695,4.4695,4.4695,4.4695,4.4695,4.4695,4.4695,4.4695,4.4695,4.4695,4.4695,4.4695,4.4695,4.4695,4.4695,4.4434,4.399,4.3389,4.284,4.2265,4.169,4.1428,4.1481,4.1794,4.2396,4.2971,4.3546,5.9168,5.9219,5.9461,6.0254,5.984,5.9823,6.1116,6.0112,5.9245,5.9315,5.8119,5.7276,5.7407,5.645,5.5297,5.4189,5.4033,5.3667,5.2905,5.3043,5.3135,5.3067,5.2922,5.286,5.286,5.2737,5.2676,5.2676,5.2021,5.1374,5.0697,5.0574,4.9835,4.8614,4.922,4.9158,4.8583,4.8583,4.8583,4.8583,4.8583,4.8583,4.8583,4.8583,4.8676,4.8789,4.8789,4.9251,4.998,5.0513,5.0759,5.0974,5.1528,5.1775,5.199,5.2544,5.2676,5.2427,5.1146,5.0597,5.0071,4.8806,4.8283,4.8108,4.8108,4.8108,4.7956,4.7391,4.6821,4.6244,4.5715,4.51,4.4695,4.4695,4.4695,4.4695,4.4695,4.4695,4.4695,4.4695,4.4695,4.4747,4.4852,4.4773,4.4747,4.4852,4.4747,4.4695,4.4695,4.4695,4.4695,4.4695,4.4695,4.4695,4.4695,4.4695,4.4695,4.4695,4.4695,4.4695,4.4695,4.4695,4.4695,4.4669,4.4225,4.399,4.3807,4.2761,4.2343,4.2264,4.1585,4.1664,4.2186,4.2186,4.2918,4.3964,5.9909,6.0047,6.0289,6.1013,6.1047,6.1047,6.1254,6.0189,5.9381,5.9381,5.7765,5.685,5.75,5.7416,5.6433,5.4283,5.546,5.5554,5.369,5.4504,5.4837,5.4453,5.3876,5.3568,5.3568,5.2983,5.2676,5.2676,5.2021,5.1374,5.0697,5.0112,4.9374,4.8583,4.8706,4.8676,4.8583,4.8583,4.8583,4.8583,4.8583,4.8583,4.8583,4.8583,4.9004,4.9549,4.9549,4.9989,5.0574,5.0667,5.1097,5.159,5.1682,5.2113,5.2583,5.2676,5.2676,5.2653,5.245,5.1403,5.0335,5.0119,4.9104,4.8108,4.8108,4.8108,4.7956,4.7391,4.6821,4.6244,4.5715,4.51,4.4695,4.4695,4.4695,4.4695,4.4695,4.4695,4.4695,4.4695,4.4695,4.4904,4.5426,4.5008,4.493,4.5426,4.4982,4.4695,4.4695,4.4695,4.4695,4.4695,4.4695,4.4695,4.4695,4.4695,4.4695,4.4695,4.4695,4.4695,4.4695,4.4695,4.4695,4.4695,4.4616,4.433,4.386,4.318,4.2892,4.2788,4.1742,4.1664,4.2186,4.2186,4.2918,4.3912,6.0047,6.0185,6.0565,6.1772,6.1599,6.1461,6.191,6.082,5.9967,5.9967,5.8595,5.7863,5.8561,5.8375,5.7056,5.4347,5.5542,5.5673,5.3844,5.4514,5.4939,5.4706,5.406,5.3691,5.3691,5.3045,5.2676,5.2676,5.2421,5.1713,5.0697,5.0759,5.002,4.8614,4.9035,4.9004,4.8583,4.8583,4.8583,4.8583,4.8583,4.8583,4.8583,4.8583,4.8799,4.9127,4.9549,5.0134,5.0759,5.1128,5.1713,5.2267,5.2267,5.246,5.2676,5.2676,5.2676,5.2608,5.22,5.1263,5.0287,4.9907,4.893,4.8108,4.8108,4.788,4.7571,4.7339,4.6586,4.5874,4.5662,4.51,4.4695,4.4695,4.4695,4.4695,4.4695,4.4695,4.4695,4.4695,4.4695,4.4799,4.506,4.4852,4.4799,4.5087,4.4852,4.4695,4.4695,4.4695,4.4695,4.4695,4.4695,4.4695,4.4695,4.4695,4.4695,4.4695,4.4695,4.4695,4.4695,4.4695,4.4695,4.4695,4.4695,4.4564,4.4278,4.3363,4.2997,4.2892,4.1743,4.1455,4.1742,4.2081,4.2709,4.3441]}]]